<?xml version="1.0" encoding="UTF-8" standalone="no" ?>
<gpx xmlns="http://www.topografix.com/GPX/1/1" xmlns:xsi="http://www.w3.org/2001/XMLSchema-instance" xsi:schemaLocation="http://www.topografix.com/GPX/1/1 http://www.topografix.com/GPX/1/1/gpx.xsd" version="1.1" creator="VisuGPX - https://www.visugpx.com">
  <metadata>
    <name>Pic de Castel Diaou</name>
    <desc><![CDATA[Secteur Ouest du Blavet. Une randonnée sans difficulté qui permet de voir de beaux point de vue. On fini par le surplomb des gorges du Blavet.]]></desc>
  </metadata>
  <wpt lat="43.53923" lon="6.61829">
    <ele>472.6</ele>
    <name><![CDATA[360°]]></name>
    <type><![CDATA[vue]]></type>
  </wpt>
  <trk>
    <name><![CDATA[Pic Castel Diaou]]></name>
    <extensions>
      <line xmlns="http://www.topografix.com/GPX/gpx_style/0/2">
        <color>ff0000</color>
        <opacity>1</opacity>
        <width>5</width>
      </line>
    </extensions>
    <trkseg>
      <trkpt lat="43.51649" lon="6.65326">
        <ele>215.4</ele>
        <time>2024-12-29T09:27:52Z</time>
      </trkpt>
      <trkpt lat="43.51652" lon="6.65321">
        <ele>215.7</ele>
        <time>2024-12-29T09:27:56.928Z</time>
      </trkpt>
      <trkpt lat="43.51657" lon="6.65312">
        <ele>216.2</ele>
        <time>2024-12-29T09:28:05Z</time>
      </trkpt>
      <trkpt lat="43.51659" lon="6.65304">
        <ele>216.3</ele>
        <time>2024-12-29T09:28:10.000Z</time>
      </trkpt>
      <trkpt lat="43.51661" lon="6.65297">
        <ele>216.8</ele>
        <time>2024-12-29T09:28:15Z</time>
      </trkpt>
      <trkpt lat="43.5166" lon="6.65289">
        <ele>216.6</ele>
        <time>2024-12-29T09:28:19.499Z</time>
      </trkpt>
      <trkpt lat="43.51659" lon="6.65282">
        <ele>216.3</ele>
        <time>2024-12-29T09:28:24Z</time>
      </trkpt>
      <trkpt lat="43.51658" lon="6.65274">
        <ele>216.4</ele>
        <time>2024-12-29T09:28:29.999Z</time>
      </trkpt>
      <trkpt lat="43.51657" lon="6.65266">
        <ele>216.9</ele>
        <time>2024-12-29T09:28:36Z</time>
      </trkpt>
      <trkpt lat="43.51658" lon="6.65259">
        <ele>217.6</ele>
        <time>2024-12-29T09:28:41.000Z</time>
      </trkpt>
      <trkpt lat="43.51658" lon="6.65253">
        <ele>218.1</ele>
        <time>2024-12-29T09:28:46Z</time>
      </trkpt>
      <trkpt lat="43.51657" lon="6.65246">
        <ele>218.3</ele>
        <time>2024-12-29T09:28:50.999Z</time>
      </trkpt>
      <trkpt lat="43.51656" lon="6.65239">
        <ele>218.3</ele>
        <time>2024-12-29T09:28:56Z</time>
      </trkpt>
      <trkpt lat="43.51651" lon="6.65239">
        <ele>217.8</ele>
        <time>2024-12-29T09:29:01.000Z</time>
      </trkpt>
      <trkpt lat="43.51646" lon="6.65238">
        <ele>217.3</ele>
        <time>2024-12-29T09:29:06Z</time>
      </trkpt>
      <trkpt lat="43.51643" lon="6.65239">
        <ele>217</ele>
        <time>2024-12-29T09:31:04Z</time>
      </trkpt>
      <trkpt lat="43.51651" lon="6.65238">
        <ele>217.8</ele>
        <time>2024-12-29T09:31:55Z</time>
      </trkpt>
      <trkpt lat="43.51654" lon="6.65232">
        <ele>218.1</ele>
        <time>2024-12-29T09:32:03.000Z</time>
      </trkpt>
      <trkpt lat="43.51658" lon="6.65226">
        <ele>218.7</ele>
        <time>2024-12-29T09:32:11Z</time>
      </trkpt>
      <trkpt lat="43.5166" lon="6.65219">
        <ele>218.9</ele>
        <time>2024-12-29T09:32:18.500Z</time>
      </trkpt>
      <trkpt lat="43.51663" lon="6.65211">
        <ele>219</ele>
        <time>2024-12-29T09:32:26Z</time>
      </trkpt>
      <trkpt lat="43.51665" lon="6.65202">
        <ele>218.9</ele>
        <time>2024-12-29T09:32:39Z</time>
      </trkpt>
      <trkpt lat="43.51669" lon="6.65199">
        <ele>219.5</ele>
        <time>2024-12-29T09:32:57Z</time>
      </trkpt>
      <trkpt lat="43.51673" lon="6.65195">
        <ele>219.9</ele>
        <time>2024-12-29T09:33:04.000Z</time>
      </trkpt>
      <trkpt lat="43.51676" lon="6.65191">
        <ele>220.3</ele>
        <time>2024-12-29T09:33:11Z</time>
      </trkpt>
      <trkpt lat="43.5168" lon="6.65184">
        <ele>220.7</ele>
        <time>2024-12-29T09:33:21Z</time>
      </trkpt>
      <trkpt lat="43.51686" lon="6.65176">
        <ele>221.6</ele>
        <time>2024-12-29T09:33:32Z</time>
      </trkpt>
      <trkpt lat="43.51691" lon="6.65172">
        <ele>222.4</ele>
        <time>2024-12-29T09:33:39.000Z</time>
      </trkpt>
      <trkpt lat="43.51696" lon="6.65168">
        <ele>223.1</ele>
        <time>2024-12-29T09:33:46Z</time>
      </trkpt>
      <trkpt lat="43.51703" lon="6.65163">
        <ele>223.1</ele>
        <time>2024-12-29T09:33:53.895Z</time>
      </trkpt>
      <trkpt lat="43.51705" lon="6.65159">
        <ele>222.8</ele>
        <time>2024-12-29T09:33:58.479Z</time>
      </trkpt>
      <trkpt lat="43.51709" lon="6.65155">
        <ele>222.5</ele>
        <time>2024-12-29T09:34:03.239Z</time>
      </trkpt>
      <trkpt lat="43.51712" lon="6.65151">
        <ele>222.4</ele>
        <time>2024-12-29T09:34:08Z</time>
      </trkpt>
      <trkpt lat="43.51715" lon="6.65147">
        <ele>222.2</ele>
        <time>2024-12-29T09:34:13.000Z</time>
      </trkpt>
      <trkpt lat="43.51719" lon="6.65143">
        <ele>222.1</ele>
        <time>2024-12-29T09:34:18Z</time>
      </trkpt>
      <trkpt lat="43.51725" lon="6.65137">
        <ele>222.3</ele>
        <time>2024-12-29T09:34:27Z</time>
      </trkpt>
      <trkpt lat="43.51729" lon="6.65131">
        <ele>222.3</ele>
        <time>2024-12-29T09:34:31.917Z</time>
      </trkpt>
      <trkpt lat="43.51736" lon="6.65127">
        <ele>223</ele>
        <time>2024-12-29T09:34:37Z</time>
      </trkpt>
      <trkpt lat="43.5174" lon="6.65123">
        <ele>223.1</ele>
        <time>2024-12-29T09:34:42.500Z</time>
      </trkpt>
      <trkpt lat="43.51745" lon="6.6512">
        <ele>223.5</ele>
        <time>2024-12-29T09:34:48Z</time>
      </trkpt>
      <trkpt lat="43.5175" lon="6.65115">
        <ele>223.6</ele>
        <time>2024-12-29T09:34:53.000Z</time>
      </trkpt>
      <trkpt lat="43.51755" lon="6.6511">
        <ele>223.6</ele>
        <time>2024-12-29T09:34:58Z</time>
      </trkpt>
      <trkpt lat="43.5176" lon="6.65106">
        <ele>223.5</ele>
        <time>2024-12-29T09:35:04.000Z</time>
      </trkpt>
      <trkpt lat="43.51766" lon="6.65101">
        <ele>223.1</ele>
        <time>2024-12-29T09:35:10Z</time>
      </trkpt>
      <trkpt lat="43.51772" lon="6.651">
        <ele>223.6</ele>
        <time>2024-12-29T09:35:14.251Z</time>
      </trkpt>
      <trkpt lat="43.51778" lon="6.65098">
        <ele>223.8</ele>
        <time>2024-12-29T09:35:18.503Z</time>
      </trkpt>
      <trkpt lat="43.51782" lon="6.65097">
        <ele>224</ele>
        <time>2024-12-29T09:35:22Z</time>
      </trkpt>
      <trkpt lat="43.51787" lon="6.65097">
        <ele>224.7</ele>
        <time>2024-12-29T09:35:29.000Z</time>
      </trkpt>
      <trkpt lat="43.51791" lon="6.65097">
        <ele>225.3</ele>
        <time>2024-12-29T09:35:36Z</time>
      </trkpt>
      <trkpt lat="43.51796" lon="6.65095">
        <ele>225.6</ele>
        <time>2024-12-29T09:35:42.500Z</time>
      </trkpt>
      <trkpt lat="43.518" lon="6.65093">
        <ele>225.8</ele>
        <time>2024-12-29T09:35:49Z</time>
      </trkpt>
      <trkpt lat="43.51807" lon="6.65088">
        <ele>226.2</ele>
        <time>2024-12-29T09:36:00Z</time>
      </trkpt>
      <trkpt lat="43.51814" lon="6.65083">
        <ele>226.8</ele>
        <time>2024-12-29T09:36:15Z</time>
      </trkpt>
      <trkpt lat="43.51818" lon="6.65079">
        <ele>226.8</ele>
        <time>2024-12-29T09:36:21.500Z</time>
      </trkpt>
      <trkpt lat="43.51822" lon="6.65074">
        <ele>226.5</ele>
        <time>2024-12-29T09:36:28Z</time>
      </trkpt>
      <trkpt lat="43.51825" lon="6.65068">
        <ele>225.9</ele>
        <time>2024-12-29T09:36:34.000Z</time>
      </trkpt>
      <trkpt lat="43.51828" lon="6.65063">
        <ele>225.5</ele>
        <time>2024-12-29T09:36:40Z</time>
      </trkpt>
      <trkpt lat="43.51831" lon="6.65058">
        <ele>225</ele>
        <time>2024-12-29T09:36:46.500Z</time>
      </trkpt>
      <trkpt lat="43.51834" lon="6.65053">
        <ele>224.5</ele>
        <time>2024-12-29T09:36:53Z</time>
      </trkpt>
      <trkpt lat="43.51841" lon="6.65055">
        <ele>226</ele>
        <time>2024-12-29T09:36:56.898Z</time>
      </trkpt>
      <trkpt lat="43.51848" lon="6.65059">
        <ele>227.8</ele>
        <time>2024-12-29T09:37:00.649Z</time>
      </trkpt>
      <trkpt lat="43.51854" lon="6.6506">
        <ele>228.8</ele>
        <time>2024-12-29T09:37:04Z</time>
      </trkpt>
      <trkpt lat="43.51859" lon="6.65059">
        <ele>229.3</ele>
        <time>2024-12-29T09:37:09.000Z</time>
      </trkpt>
      <trkpt lat="43.51864" lon="6.65058">
        <ele>229.9</ele>
        <time>2024-12-29T09:37:14Z</time>
      </trkpt>
      <trkpt lat="43.51869" lon="6.65055">
        <ele>230</ele>
        <time>2024-12-29T09:37:21.452Z</time>
      </trkpt>
      <trkpt lat="43.51873" lon="6.65053">
        <ele>230.1</ele>
        <time>2024-12-29T09:37:27Z</time>
      </trkpt>
      <trkpt lat="43.51877" lon="6.65055">
        <ele>231.2</ele>
        <time>2024-12-29T09:37:32.000Z</time>
      </trkpt>
      <trkpt lat="43.51882" lon="6.65057">
        <ele>232.3</ele>
        <time>2024-12-29T09:37:37Z</time>
      </trkpt>
      <trkpt lat="43.5189" lon="6.65056">
        <ele>233.2</ele>
        <time>2024-12-29T09:37:44.652Z</time>
      </trkpt>
      <trkpt lat="43.51896" lon="6.65054">
        <ele>233.1</ele>
        <time>2024-12-29T09:37:50Z</time>
      </trkpt>
      <trkpt lat="43.51902" lon="6.65054">
        <ele>233.6</ele>
        <time>2024-12-29T09:37:55.673Z</time>
      </trkpt>
      <trkpt lat="43.51907" lon="6.65056">
        <ele>234.4</ele>
        <time>2024-12-29T09:38:01Z</time>
      </trkpt>
      <trkpt lat="43.51914" lon="6.65051">
        <ele>233.8</ele>
        <time>2024-12-29T09:38:12Z</time>
      </trkpt>
      <trkpt lat="43.51919" lon="6.65049">
        <ele>233.9</ele>
        <time>2024-12-29T09:38:17.000Z</time>
      </trkpt>
      <trkpt lat="43.51924" lon="6.65047">
        <ele>234.1</ele>
        <time>2024-12-29T09:38:22Z</time>
      </trkpt>
      <trkpt lat="43.51929" lon="6.65047">
        <ele>234.6</ele>
        <time>2024-12-29T09:38:26.500Z</time>
      </trkpt>
      <trkpt lat="43.51933" lon="6.65046">
        <ele>235.1</ele>
        <time>2024-12-29T09:38:31Z</time>
      </trkpt>
      <trkpt lat="43.51938" lon="6.65047">
        <ele>236</ele>
        <time>2024-12-29T09:38:36.000Z</time>
      </trkpt>
      <trkpt lat="43.51943" lon="6.65047">
        <ele>236.7</ele>
        <time>2024-12-29T09:38:41Z</time>
      </trkpt>
      <trkpt lat="43.51949" lon="6.65047">
        <ele>237.3</ele>
        <time>2024-12-29T09:38:45.500Z</time>
      </trkpt>
      <trkpt lat="43.51954" lon="6.65046">
        <ele>237.5</ele>
        <time>2024-12-29T09:38:50Z</time>
      </trkpt>
      <trkpt lat="43.51959" lon="6.65046">
        <ele>238</ele>
        <time>2024-12-29T09:38:57.000Z</time>
      </trkpt>
      <trkpt lat="43.51965" lon="6.65046">
        <ele>238.6</ele>
        <time>2024-12-29T09:39:04Z</time>
      </trkpt>
      <trkpt lat="43.5197" lon="6.65042">
        <ele>238.3</ele>
        <time>2024-12-29T09:39:09.500Z</time>
      </trkpt>
      <trkpt lat="43.51975" lon="6.65038">
        <ele>238.3</ele>
        <time>2024-12-29T09:39:15Z</time>
      </trkpt>
      <trkpt lat="43.5198" lon="6.65036">
        <ele>238.7</ele>
        <time>2024-12-29T09:39:20.000Z</time>
      </trkpt>
      <trkpt lat="43.51985" lon="6.65034">
        <ele>239.2</ele>
        <time>2024-12-29T09:39:25Z</time>
      </trkpt>
      <trkpt lat="43.51989" lon="6.6503">
        <ele>239.3</ele>
        <time>2024-12-29T09:39:30.000Z</time>
      </trkpt>
      <trkpt lat="43.51993" lon="6.65027">
        <ele>239.6</ele>
        <time>2024-12-29T09:39:35Z</time>
      </trkpt>
      <trkpt lat="43.51997" lon="6.65023">
        <ele>239.6</ele>
        <time>2024-12-29T09:39:40.000Z</time>
      </trkpt>
      <trkpt lat="43.52" lon="6.65019">
        <ele>239.4</ele>
        <time>2024-12-29T09:39:45Z</time>
      </trkpt>
      <trkpt lat="43.52005" lon="6.65015">
        <ele>239.8</ele>
        <time>2024-12-29T09:39:51.000Z</time>
      </trkpt>
      <trkpt lat="43.52009" lon="6.6501">
        <ele>239.9</ele>
        <time>2024-12-29T09:39:57Z</time>
      </trkpt>
      <trkpt lat="43.52013" lon="6.65007">
        <ele>240.5</ele>
        <time>2024-12-29T09:40:02.000Z</time>
      </trkpt>
      <trkpt lat="43.52017" lon="6.65003">
        <ele>241.2</ele>
        <time>2024-12-29T09:40:07Z</time>
      </trkpt>
      <trkpt lat="43.52022" lon="6.64998">
        <ele>242.3</ele>
        <time>2024-12-29T09:40:14.500Z</time>
      </trkpt>
      <trkpt lat="43.52027" lon="6.64994">
        <ele>243.4</ele>
        <time>2024-12-29T09:40:22Z</time>
      </trkpt>
      <trkpt lat="43.52032" lon="6.64989">
        <ele>243.8</ele>
        <time>2024-12-29T09:40:28.000Z</time>
      </trkpt>
      <trkpt lat="43.52037" lon="6.64984">
        <ele>244.2</ele>
        <time>2024-12-29T09:40:34Z</time>
      </trkpt>
      <trkpt lat="43.52044" lon="6.64979">
        <ele>245.1</ele>
        <time>2024-12-29T09:40:51Z</time>
      </trkpt>
      <trkpt lat="43.52048" lon="6.64977">
        <ele>245.7</ele>
        <time>2024-12-29T09:40:57.500Z</time>
      </trkpt>
      <trkpt lat="43.52052" lon="6.64975">
        <ele>246.4</ele>
        <time>2024-12-29T09:41:04Z</time>
      </trkpt>
      <trkpt lat="43.52057" lon="6.64975">
        <ele>247.2</ele>
        <time>2024-12-29T09:41:14.500Z</time>
      </trkpt>
      <trkpt lat="43.52062" lon="6.64976">
        <ele>247.9</ele>
        <time>2024-12-29T09:41:25Z</time>
      </trkpt>
      <trkpt lat="43.52067" lon="6.64982">
        <ele>248.5</ele>
        <time>2024-12-29T09:42:07Z</time>
      </trkpt>
      <trkpt lat="43.52073" lon="6.64981">
        <ele>249.3</ele>
        <time>2024-12-29T09:42:36Z</time>
      </trkpt>
      <trkpt lat="43.52078" lon="6.64981">
        <ele>249.9</ele>
        <time>2024-12-29T09:42:42.000Z</time>
      </trkpt>
      <trkpt lat="43.52082" lon="6.64981">
        <ele>250.5</ele>
        <time>2024-12-29T09:42:48Z</time>
      </trkpt>
      <trkpt lat="43.52087" lon="6.64979">
        <ele>250.9</ele>
        <time>2024-12-29T09:42:53.500Z</time>
      </trkpt>
      <trkpt lat="43.52092" lon="6.64977">
        <ele>251</ele>
        <time>2024-12-29T09:42:59Z</time>
      </trkpt>
      <trkpt lat="43.52096" lon="6.64975">
        <ele>251</ele>
        <time>2024-12-29T09:43:04.000Z</time>
      </trkpt>
      <trkpt lat="43.52101" lon="6.64974">
        <ele>251.1</ele>
        <time>2024-12-29T09:43:09Z</time>
      </trkpt>
      <trkpt lat="43.52105" lon="6.6497">
        <ele>251.6</ele>
        <time>2024-12-29T09:43:15.500Z</time>
      </trkpt>
      <trkpt lat="43.5211" lon="6.64967">
        <ele>252.3</ele>
        <time>2024-12-29T09:43:22Z</time>
      </trkpt>
      <trkpt lat="43.52114" lon="6.64963">
        <ele>253</ele>
        <time>2024-12-29T09:43:27.500Z</time>
      </trkpt>
      <trkpt lat="43.52119" lon="6.6496">
        <ele>253.1</ele>
        <time>2024-12-29T09:43:33Z</time>
      </trkpt>
      <trkpt lat="43.52123" lon="6.64956">
        <ele>253.6</ele>
        <time>2024-12-29T09:43:39.000Z</time>
      </trkpt>
      <trkpt lat="43.52128" lon="6.64952">
        <ele>253.8</ele>
        <time>2024-12-29T09:43:45Z</time>
      </trkpt>
      <trkpt lat="43.52132" lon="6.64947">
        <ele>254.4</ele>
        <time>2024-12-29T09:43:52.000Z</time>
      </trkpt>
      <trkpt lat="43.52136" lon="6.64942">
        <ele>254.8</ele>
        <time>2024-12-29T09:43:59Z</time>
      </trkpt>
      <trkpt lat="43.52141" lon="6.64937">
        <ele>254.9</ele>
        <time>2024-12-29T09:44:05.000Z</time>
      </trkpt>
      <trkpt lat="43.52146" lon="6.64933">
        <ele>255.1</ele>
        <time>2024-12-29T09:44:11Z</time>
      </trkpt>
      <trkpt lat="43.52151" lon="6.64928">
        <ele>255.6</ele>
        <time>2024-12-29T09:44:17.000Z</time>
      </trkpt>
      <trkpt lat="43.52157" lon="6.64923">
        <ele>256.1</ele>
        <time>2024-12-29T09:44:23Z</time>
      </trkpt>
      <trkpt lat="43.52159" lon="6.64916">
        <ele>257.4</ele>
        <time>2024-12-29T09:44:28.000Z</time>
      </trkpt>
      <trkpt lat="43.52161" lon="6.64908">
        <ele>258.8</ele>
        <time>2024-12-29T09:44:33Z</time>
      </trkpt>
      <trkpt lat="43.52158" lon="6.64901">
        <ele>260.3</ele>
        <time>2024-12-29T09:44:37.999Z</time>
      </trkpt>
      <trkpt lat="43.52155" lon="6.64894">
        <ele>261.8</ele>
        <time>2024-12-29T09:44:43Z</time>
      </trkpt>
      <trkpt lat="43.5215" lon="6.64894">
        <ele>262.2</ele>
        <time>2024-12-29T09:44:48.000Z</time>
      </trkpt>
      <trkpt lat="43.52145" lon="6.64894">
        <ele>262.5</ele>
        <time>2024-12-29T09:44:53Z</time>
      </trkpt>
      <trkpt lat="43.52139" lon="6.64895">
        <ele>262.7</ele>
        <time>2024-12-29T09:44:58.000Z</time>
      </trkpt>
      <trkpt lat="43.52133" lon="6.64896">
        <ele>263.5</ele>
        <time>2024-12-29T09:45:03Z</time>
      </trkpt>
      <trkpt lat="43.52127" lon="6.64902">
        <ele>263.3</ele>
        <time>2024-12-29T09:45:12Z</time>
      </trkpt>
      <trkpt lat="43.52123" lon="6.64906">
        <ele>263.3</ele>
        <time>2024-12-29T09:45:16.999Z</time>
      </trkpt>
      <trkpt lat="43.52119" lon="6.64909">
        <ele>263.2</ele>
        <time>2024-12-29T09:45:22Z</time>
      </trkpt>
      <trkpt lat="43.52116" lon="6.64914">
        <ele>262.7</ele>
        <time>2024-12-29T09:45:26.499Z</time>
      </trkpt>
      <trkpt lat="43.52112" lon="6.64918">
        <ele>262.6</ele>
        <time>2024-12-29T09:45:31Z</time>
      </trkpt>
      <trkpt lat="43.52108" lon="6.64921">
        <ele>262.4</ele>
        <time>2024-12-29T09:45:35.499Z</time>
      </trkpt>
      <trkpt lat="43.52103" lon="6.64925">
        <ele>262</ele>
        <time>2024-12-29T09:45:40Z</time>
      </trkpt>
      <trkpt lat="43.52098" lon="6.64927">
        <ele>261.9</ele>
        <time>2024-12-29T09:45:44.500Z</time>
      </trkpt>
      <trkpt lat="43.52094" lon="6.64928">
        <ele>261.9</ele>
        <time>2024-12-29T09:45:49Z</time>
      </trkpt>
      <trkpt lat="43.5209" lon="6.64925">
        <ele>262.8</ele>
        <time>2024-12-29T09:45:53.499Z</time>
      </trkpt>
      <trkpt lat="43.52085" lon="6.64921">
        <ele>264</ele>
        <time>2024-12-29T09:45:58Z</time>
      </trkpt>
      <trkpt lat="43.52083" lon="6.64915">
        <ele>265.1</ele>
        <time>2024-12-29T09:46:03.499Z</time>
      </trkpt>
      <trkpt lat="43.5208" lon="6.6491">
        <ele>264.7</ele>
        <time>2024-12-29T09:46:09Z</time>
      </trkpt>
      <trkpt lat="43.52078" lon="6.64905">
        <ele>264.5</ele>
        <time>2024-12-29T09:46:13.499Z</time>
      </trkpt>
      <trkpt lat="43.52075" lon="6.64899">
        <ele>264.4</ele>
        <time>2024-12-29T09:46:18Z</time>
      </trkpt>
      <trkpt lat="43.52073" lon="6.64893">
        <ele>264.5</ele>
        <time>2024-12-29T09:46:22.999Z</time>
      </trkpt>
      <trkpt lat="43.52072" lon="6.64887">
        <ele>265</ele>
        <time>2024-12-29T09:46:28Z</time>
      </trkpt>
      <trkpt lat="43.5207" lon="6.64875">
        <ele>266.2</ele>
        <time>2024-12-29T09:46:35Z</time>
      </trkpt>
      <trkpt lat="43.52066" lon="6.64866">
        <ele>266.3</ele>
        <time>2024-12-29T09:46:43Z</time>
      </trkpt>
      <trkpt lat="43.52064" lon="6.64854">
        <ele>267.7</ele>
        <time>2024-12-29T09:46:51Z</time>
      </trkpt>
      <trkpt lat="43.52062" lon="6.64843">
        <ele>269.1</ele>
        <time>2024-12-29T09:46:59Z</time>
      </trkpt>
      <trkpt lat="43.52059" lon="6.64838">
        <ele>269.2</ele>
        <time>2024-12-29T09:47:03.499Z</time>
      </trkpt>
      <trkpt lat="43.52056" lon="6.64833">
        <ele>269.2</ele>
        <time>2024-12-29T09:47:08Z</time>
      </trkpt>
      <trkpt lat="43.52054" lon="6.64826">
        <ele>269.5</ele>
        <time>2024-12-29T09:47:12.999Z</time>
      </trkpt>
      <trkpt lat="43.52052" lon="6.6482">
        <ele>269.6</ele>
        <time>2024-12-29T09:47:18Z</time>
      </trkpt>
      <trkpt lat="43.52049" lon="6.64814">
        <ele>269.4</ele>
        <time>2024-12-29T09:47:22.499Z</time>
      </trkpt>
      <trkpt lat="43.52047" lon="6.64808">
        <ele>269.5</ele>
        <time>2024-12-29T09:47:27Z</time>
      </trkpt>
      <trkpt lat="43.52044" lon="6.64802">
        <ele>269.5</ele>
        <time>2024-12-29T09:47:31.499Z</time>
      </trkpt>
      <trkpt lat="43.52042" lon="6.64796">
        <ele>270</ele>
        <time>2024-12-29T09:47:36Z</time>
      </trkpt>
      <trkpt lat="43.5204" lon="6.64791">
        <ele>270.4</ele>
        <time>2024-12-29T09:47:40.499Z</time>
      </trkpt>
      <trkpt lat="43.52037" lon="6.64785">
        <ele>270.8</ele>
        <time>2024-12-29T09:47:45Z</time>
      </trkpt>
      <trkpt lat="43.52034" lon="6.64779">
        <ele>271.3</ele>
        <time>2024-12-29T09:47:50.999Z</time>
      </trkpt>
      <trkpt lat="43.52032" lon="6.64774">
        <ele>271.4</ele>
        <time>2024-12-29T09:47:57Z</time>
      </trkpt>
      <trkpt lat="43.52029" lon="6.64767">
        <ele>271.4</ele>
        <time>2024-12-29T09:48:02.499Z</time>
      </trkpt>
      <trkpt lat="43.52026" lon="6.6476">
        <ele>271.6</ele>
        <time>2024-12-29T09:48:08Z</time>
      </trkpt>
      <trkpt lat="43.52024" lon="6.64754">
        <ele>272.1</ele>
        <time>2024-12-29T09:48:12.499Z</time>
      </trkpt>
      <trkpt lat="43.52021" lon="6.64748">
        <ele>272.4</ele>
        <time>2024-12-29T09:48:17Z</time>
      </trkpt>
      <trkpt lat="43.5202" lon="6.64742">
        <ele>272.7</ele>
        <time>2024-12-29T09:48:21.999Z</time>
      </trkpt>
      <trkpt lat="43.52018" lon="6.64735">
        <ele>272.8</ele>
        <time>2024-12-29T09:48:27Z</time>
      </trkpt>
      <trkpt lat="43.52017" lon="6.64729">
        <ele>273.1</ele>
        <time>2024-12-29T09:48:31.499Z</time>
      </trkpt>
      <trkpt lat="43.52015" lon="6.64722">
        <ele>273.2</ele>
        <time>2024-12-29T09:48:36Z</time>
      </trkpt>
      <trkpt lat="43.52014" lon="6.64715">
        <ele>273.5</ele>
        <time>2024-12-29T09:48:41.999Z</time>
      </trkpt>
      <trkpt lat="43.52013" lon="6.64708">
        <ele>273.9</ele>
        <time>2024-12-29T09:48:48Z</time>
      </trkpt>
      <trkpt lat="43.52013" lon="6.647">
        <ele>274.4</ele>
        <time>2024-12-29T09:48:53.999Z</time>
      </trkpt>
      <trkpt lat="43.52013" lon="6.64693">
        <ele>274.9</ele>
        <time>2024-12-29T09:49:00Z</time>
      </trkpt>
      <trkpt lat="43.52012" lon="6.64684">
        <ele>275.1</ele>
        <time>2024-12-29T09:49:05.999Z</time>
      </trkpt>
      <trkpt lat="43.52012" lon="6.64675">
        <ele>275.5</ele>
        <time>2024-12-29T09:49:12Z</time>
      </trkpt>
      <trkpt lat="43.52012" lon="6.64667">
        <ele>275.9</ele>
        <time>2024-12-29T09:49:17.499Z</time>
      </trkpt>
      <trkpt lat="43.52011" lon="6.64659">
        <ele>276.4</ele>
        <time>2024-12-29T09:49:23Z</time>
      </trkpt>
      <trkpt lat="43.5201" lon="6.64651">
        <ele>277</ele>
        <time>2024-12-29T09:49:27.999Z</time>
      </trkpt>
      <trkpt lat="43.5201" lon="6.64644">
        <ele>277.8</ele>
        <time>2024-12-29T09:49:33Z</time>
      </trkpt>
      <trkpt lat="43.52008" lon="6.64638">
        <ele>277.6</ele>
        <time>2024-12-29T09:49:37.499Z</time>
      </trkpt>
      <trkpt lat="43.52007" lon="6.64631">
        <ele>278.5</ele>
        <time>2024-12-29T09:49:42Z</time>
      </trkpt>
      <trkpt lat="43.52004" lon="6.64625">
        <ele>278.3</ele>
        <time>2024-12-29T09:49:45.999Z</time>
      </trkpt>
      <trkpt lat="43.52001" lon="6.64619">
        <ele>278</ele>
        <time>2024-12-29T09:49:50Z</time>
      </trkpt>
      <trkpt lat="43.51997" lon="6.64615">
        <ele>277.4</ele>
        <time>2024-12-29T09:49:54.499Z</time>
      </trkpt>
      <trkpt lat="43.51993" lon="6.6461">
        <ele>277.4</ele>
        <time>2024-12-29T09:49:59Z</time>
      </trkpt>
      <trkpt lat="43.51987" lon="6.64603">
        <ele>278.1</ele>
        <time>2024-12-29T09:50:07Z</time>
      </trkpt>
      <trkpt lat="43.51979" lon="6.64598">
        <ele>277.1</ele>
        <time>2024-12-29T09:50:15Z</time>
      </trkpt>
      <trkpt lat="43.51976" lon="6.64593">
        <ele>277.6</ele>
        <time>2024-12-29T09:50:18.999Z</time>
      </trkpt>
      <trkpt lat="43.51972" lon="6.64589">
        <ele>277.3</ele>
        <time>2024-12-29T09:50:23Z</time>
      </trkpt>
      <trkpt lat="43.5197" lon="6.64582">
        <ele>278.5</ele>
        <time>2024-12-29T09:50:27.499Z</time>
      </trkpt>
      <trkpt lat="43.51967" lon="6.64576">
        <ele>278.5</ele>
        <time>2024-12-29T09:50:32Z</time>
      </trkpt>
      <trkpt lat="43.51967" lon="6.64569">
        <ele>279.5</ele>
        <time>2024-12-29T09:50:36.499Z</time>
      </trkpt>
      <trkpt lat="43.51966" lon="6.64562">
        <ele>280.1</ele>
        <time>2024-12-29T09:50:41Z</time>
      </trkpt>
      <trkpt lat="43.51967" lon="6.64555">
        <ele>281.3</ele>
        <time>2024-12-29T09:50:45.500Z</time>
      </trkpt>
      <trkpt lat="43.51968" lon="6.64548">
        <ele>281.2</ele>
        <time>2024-12-29T09:50:50Z</time>
      </trkpt>
      <trkpt lat="43.5197" lon="6.64542">
        <ele>281.4</ele>
        <time>2024-12-29T09:50:55.000Z</time>
      </trkpt>
      <trkpt lat="43.51972" lon="6.64536">
        <ele>281.5</ele>
        <time>2024-12-29T09:51:00Z</time>
      </trkpt>
      <trkpt lat="43.51977" lon="6.64528">
        <ele>282.9</ele>
        <time>2024-12-29T09:56:27Z</time>
      </trkpt>
      <trkpt lat="43.5198" lon="6.64522">
        <ele>283.5</ele>
        <time>2024-12-29T09:56:34.500Z</time>
      </trkpt>
      <trkpt lat="43.51983" lon="6.64516">
        <ele>284.1</ele>
        <time>2024-12-29T09:56:42Z</time>
      </trkpt>
      <trkpt lat="43.51986" lon="6.64511">
        <ele>284.6</ele>
        <time>2024-12-29T09:56:48.000Z</time>
      </trkpt>
      <trkpt lat="43.51989" lon="6.64505">
        <ele>285</ele>
        <time>2024-12-29T09:56:54Z</time>
      </trkpt>
      <trkpt lat="43.51995" lon="6.6451">
        <ele>287.7</ele>
        <time>2024-12-29T09:57:08Z</time>
      </trkpt>
      <trkpt lat="43.51999" lon="6.64516">
        <ele>289.9</ele>
        <time>2024-12-29T09:57:17.500Z</time>
      </trkpt>
      <trkpt lat="43.52004" lon="6.64521">
        <ele>293</ele>
        <time>2024-12-29T09:57:27Z</time>
      </trkpt>
      <trkpt lat="43.52008" lon="6.64524">
        <ele>295.8</ele>
        <time>2024-12-29T09:57:56Z</time>
      </trkpt>
      <trkpt lat="43.52009" lon="6.64518">
        <ele>294.9</ele>
        <time>2024-12-29T09:58:07.000Z</time>
      </trkpt>
      <trkpt lat="43.5201" lon="6.64512">
        <ele>293.9</ele>
        <time>2024-12-29T09:58:18Z</time>
      </trkpt>
      <trkpt lat="43.52015" lon="6.6451">
        <ele>295.3</ele>
        <time>2024-12-29T09:58:40Z</time>
      </trkpt>
      <trkpt lat="43.5202" lon="6.64503">
        <ele>294.8</ele>
        <time>2024-12-29T09:58:58Z</time>
      </trkpt>
      <trkpt lat="43.52023" lon="6.64496">
        <ele>293.8</ele>
        <time>2024-12-29T09:59:04.500Z</time>
      </trkpt>
      <trkpt lat="43.52026" lon="6.6449">
        <ele>293.4</ele>
        <time>2024-12-29T09:59:11Z</time>
      </trkpt>
      <trkpt lat="43.52033" lon="6.64483">
        <ele>293.5</ele>
        <time>2024-12-29T09:59:22Z</time>
      </trkpt>
      <trkpt lat="43.52037" lon="6.64484">
        <ele>294.7</ele>
        <time>2024-12-29T09:59:29.500Z</time>
      </trkpt>
      <trkpt lat="43.52041" lon="6.64486">
        <ele>296.1</ele>
        <time>2024-12-29T09:59:37Z</time>
      </trkpt>
      <trkpt lat="43.52046" lon="6.64486">
        <ele>297.2</ele>
        <time>2024-12-29T09:59:45.000Z</time>
      </trkpt>
      <trkpt lat="43.52051" lon="6.64487">
        <ele>298.7</ele>
        <time>2024-12-29T09:59:53Z</time>
      </trkpt>
      <trkpt lat="43.52056" lon="6.64488">
        <ele>300.1</ele>
        <time>2024-12-29T09:59:59.500Z</time>
      </trkpt>
      <trkpt lat="43.5206" lon="6.6449">
        <ele>301.6</ele>
        <time>2024-12-29T10:00:06Z</time>
      </trkpt>
      <trkpt lat="43.52065" lon="6.6449">
        <ele>302.9</ele>
        <time>2024-12-29T10:00:18.000Z</time>
      </trkpt>
      <trkpt lat="43.5207" lon="6.6449">
        <ele>304.1</ele>
        <time>2024-12-29T10:00:30Z</time>
      </trkpt>
      <trkpt lat="43.52078" lon="6.6449">
        <ele>306.1</ele>
        <time>2024-12-29T10:00:40Z</time>
      </trkpt>
      <trkpt lat="43.52085" lon="6.64491">
        <ele>308.2</ele>
        <time>2024-12-29T10:00:52Z</time>
      </trkpt>
      <trkpt lat="43.52091" lon="6.6449">
        <ele>309.4</ele>
        <time>2024-12-29T10:01:04Z</time>
      </trkpt>
      <trkpt lat="43.52096" lon="6.64489">
        <ele>310.4</ele>
        <time>2024-12-29T10:01:15Z</time>
      </trkpt>
      <trkpt lat="43.52103" lon="6.64488">
        <ele>311.9</ele>
        <time>2024-12-29T10:01:30Z</time>
      </trkpt>
      <trkpt lat="43.52108" lon="6.64486">
        <ele>312.7</ele>
        <time>2024-12-29T10:01:50Z</time>
      </trkpt>
      <trkpt lat="43.52111" lon="6.64485">
        <ele>313.2</ele>
        <time>2024-12-29T10:02:04Z</time>
      </trkpt>
      <trkpt lat="43.52116" lon="6.64484">
        <ele>314.4</ele>
        <time>2024-12-29T10:02:22Z</time>
      </trkpt>
      <trkpt lat="43.52123" lon="6.64484">
        <ele>316.4</ele>
        <time>2024-12-29T10:02:44Z</time>
      </trkpt>
      <trkpt lat="43.52128" lon="6.64483">
        <ele>317.6</ele>
        <time>2024-12-29T10:03:07Z</time>
      </trkpt>
      <trkpt lat="43.52136" lon="6.64483">
        <ele>319.9</ele>
        <time>2024-12-29T10:03:24Z</time>
      </trkpt>
      <trkpt lat="43.52142" lon="6.64484">
        <ele>321.8</ele>
        <time>2024-12-29T10:03:33.500Z</time>
      </trkpt>
      <trkpt lat="43.52148" lon="6.64484">
        <ele>323.4</ele>
        <time>2024-12-29T10:03:43Z</time>
      </trkpt>
      <trkpt lat="43.52153" lon="6.64483">
        <ele>324.5</ele>
        <time>2024-12-29T10:03:49.000Z</time>
      </trkpt>
      <trkpt lat="43.52159" lon="6.64483">
        <ele>326.1</ele>
        <time>2024-12-29T10:03:55Z</time>
      </trkpt>
      <trkpt lat="43.52166" lon="6.64481">
        <ele>327.4</ele>
        <time>2024-12-29T10:04:19Z</time>
      </trkpt>
      <trkpt lat="43.52173" lon="6.6448">
        <ele>328.7</ele>
        <time>2024-12-29T10:04:58Z</time>
      </trkpt>
      <trkpt lat="43.52178" lon="6.64481">
        <ele>330.1</ele>
        <time>2024-12-29T10:05:05.500Z</time>
      </trkpt>
      <trkpt lat="43.52183" lon="6.64482">
        <ele>331.6</ele>
        <time>2024-12-29T10:05:13Z</time>
      </trkpt>
      <trkpt lat="43.52191" lon="6.64479">
        <ele>332.4</ele>
        <time>2024-12-29T10:05:27Z</time>
      </trkpt>
      <trkpt lat="43.52195" lon="6.64479">
        <ele>333.3</ele>
        <time>2024-12-29T10:05:34.000Z</time>
      </trkpt>
      <trkpt lat="43.522" lon="6.64479">
        <ele>334.6</ele>
        <time>2024-12-29T10:05:41Z</time>
      </trkpt>
      <trkpt lat="43.52205" lon="6.64481">
        <ele>336.2</ele>
        <time>2024-12-29T10:05:47.500Z</time>
      </trkpt>
      <trkpt lat="43.52209" lon="6.64482">
        <ele>337.8</ele>
        <time>2024-12-29T10:05:54Z</time>
      </trkpt>
      <trkpt lat="43.52214" lon="6.64483">
        <ele>339.4</ele>
        <time>2024-12-29T10:06:02.000Z</time>
      </trkpt>
      <trkpt lat="43.52219" lon="6.64485">
        <ele>341.3</ele>
        <time>2024-12-29T10:06:10Z</time>
      </trkpt>
      <trkpt lat="43.52225" lon="6.64486">
        <ele>343.1</ele>
        <time>2024-12-29T10:06:18.000Z</time>
      </trkpt>
      <trkpt lat="43.52231" lon="6.64487">
        <ele>344.7</ele>
        <time>2024-12-29T10:06:26Z</time>
      </trkpt>
      <trkpt lat="43.52235" lon="6.64484">
        <ele>344.6</ele>
        <time>2024-12-29T10:06:34.000Z</time>
      </trkpt>
      <trkpt lat="43.52239" lon="6.6448">
        <ele>344.4</ele>
        <time>2024-12-29T10:06:42Z</time>
      </trkpt>
      <trkpt lat="43.52247" lon="6.64477">
        <ele>345.5</ele>
        <time>2024-12-29T10:07:03Z</time>
      </trkpt>
      <trkpt lat="43.52252" lon="6.64477">
        <ele>346.6</ele>
        <time>2024-12-29T10:07:09.000Z</time>
      </trkpt>
      <trkpt lat="43.52257" lon="6.64477">
        <ele>347.7</ele>
        <time>2024-12-29T10:07:15Z</time>
      </trkpt>
      <trkpt lat="43.52261" lon="6.64477">
        <ele>348.5</ele>
        <time>2024-12-29T10:07:22.500Z</time>
      </trkpt>
      <trkpt lat="43.52266" lon="6.64477">
        <ele>349.6</ele>
        <time>2024-12-29T10:07:30Z</time>
      </trkpt>
      <trkpt lat="43.52271" lon="6.64476">
        <ele>350.4</ele>
        <time>2024-12-29T10:07:39.500Z</time>
      </trkpt>
      <trkpt lat="43.52276" lon="6.64475">
        <ele>351.2</ele>
        <time>2024-12-29T10:07:49Z</time>
      </trkpt>
      <trkpt lat="43.52281" lon="6.64475">
        <ele>352.2</ele>
        <time>2024-12-29T10:07:59.000Z</time>
      </trkpt>
      <trkpt lat="43.52285" lon="6.64475">
        <ele>353</ele>
        <time>2024-12-29T10:08:09Z</time>
      </trkpt>
      <trkpt lat="43.52291" lon="6.64476">
        <ele>354.3</ele>
        <time>2024-12-29T10:08:17.500Z</time>
      </trkpt>
      <trkpt lat="43.52296" lon="6.64476">
        <ele>355.3</ele>
        <time>2024-12-29T10:08:26Z</time>
      </trkpt>
      <trkpt lat="43.52301" lon="6.64477">
        <ele>356.5</ele>
        <time>2024-12-29T10:08:32.000Z</time>
      </trkpt>
      <trkpt lat="43.52306" lon="6.64477">
        <ele>357.5</ele>
        <time>2024-12-29T10:08:38Z</time>
      </trkpt>
      <trkpt lat="43.52312" lon="6.64479">
        <ele>359</ele>
        <time>2024-12-29T10:08:48.000Z</time>
      </trkpt>
      <trkpt lat="43.52318" lon="6.6448">
        <ele>360.2</ele>
        <time>2024-12-29T10:08:58Z</time>
      </trkpt>
      <trkpt lat="43.52324" lon="6.64482">
        <ele>361.7</ele>
        <time>2024-12-29T10:09:06.500Z</time>
      </trkpt>
      <trkpt lat="43.5233" lon="6.64483">
        <ele>362.8</ele>
        <time>2024-12-29T10:09:15Z</time>
      </trkpt>
      <trkpt lat="43.52333" lon="6.64479">
        <ele>362.4</ele>
        <time>2024-12-29T10:10:36Z</time>
      </trkpt>
      <trkpt lat="43.52336" lon="6.64478">
        <ele>362.7</ele>
        <time>2024-12-29T10:12:40Z</time>
      </trkpt>
      <trkpt lat="43.52342" lon="6.64474">
        <ele>362.9</ele>
        <time>2024-12-29T10:12:56Z</time>
      </trkpt>
      <trkpt lat="43.52349" lon="6.6447">
        <ele>364</ele>
        <time>2024-12-29T10:13:02.082Z</time>
      </trkpt>
      <trkpt lat="43.52352" lon="6.64461">
        <ele>365.2</ele>
        <time>2024-12-29T10:13:08Z</time>
      </trkpt>
      <trkpt lat="43.52352" lon="6.64455">
        <ele>365.6</ele>
        <time>2024-12-29T10:13:15.500Z</time>
      </trkpt>
      <trkpt lat="43.52352" lon="6.64448">
        <ele>366.1</ele>
        <time>2024-12-29T10:13:23Z</time>
      </trkpt>
      <trkpt lat="43.5235" lon="6.64441">
        <ele>366.9</ele>
        <time>2024-12-29T10:13:30.999Z</time>
      </trkpt>
      <trkpt lat="43.52349" lon="6.64434">
        <ele>368.7</ele>
        <time>2024-12-29T10:13:39Z</time>
      </trkpt>
      <trkpt lat="43.52347" lon="6.64427">
        <ele>370.2</ele>
        <time>2024-12-29T10:13:47.499Z</time>
      </trkpt>
      <trkpt lat="43.52346" lon="6.6442">
        <ele>371.8</ele>
        <time>2024-12-29T10:13:56Z</time>
      </trkpt>
      <trkpt lat="43.52347" lon="6.64413">
        <ele>373.5</ele>
        <time>2024-12-29T10:14:07.000Z</time>
      </trkpt>
      <trkpt lat="43.52347" lon="6.64405">
        <ele>374.9</ele>
        <time>2024-12-29T10:14:18Z</time>
      </trkpt>
      <trkpt lat="43.52347" lon="6.64398">
        <ele>376</ele>
        <time>2024-12-29T10:14:26.999Z</time>
      </trkpt>
      <trkpt lat="43.52347" lon="6.64391">
        <ele>377.1</ele>
        <time>2024-12-29T10:14:36Z</time>
      </trkpt>
      <trkpt lat="43.52343" lon="6.64386">
        <ele>377.4</ele>
        <time>2024-12-29T10:14:44.499Z</time>
      </trkpt>
      <trkpt lat="43.52339" lon="6.64381">
        <ele>377.5</ele>
        <time>2024-12-29T10:14:53Z</time>
      </trkpt>
      <trkpt lat="43.52335" lon="6.64376">
        <ele>377.6</ele>
        <time>2024-12-29T10:15:02.499Z</time>
      </trkpt>
      <trkpt lat="43.5233" lon="6.6437">
        <ele>377.6</ele>
        <time>2024-12-29T10:15:12Z</time>
      </trkpt>
      <trkpt lat="43.52327" lon="6.64366">
        <ele>377.6</ele>
        <time>2024-12-29T10:15:18.999Z</time>
      </trkpt>
      <trkpt lat="43.52323" lon="6.64361">
        <ele>377.5</ele>
        <time>2024-12-29T10:15:26Z</time>
      </trkpt>
      <trkpt lat="43.52322" lon="6.64355">
        <ele>377.8</ele>
        <time>2024-12-29T10:15:31.999Z</time>
      </trkpt>
      <trkpt lat="43.5232" lon="6.64349">
        <ele>378</ele>
        <time>2024-12-29T10:15:38Z</time>
      </trkpt>
      <trkpt lat="43.52318" lon="6.64341">
        <ele>378.2</ele>
        <time>2024-12-29T10:15:44.499Z</time>
      </trkpt>
      <trkpt lat="43.52317" lon="6.64333">
        <ele>378.6</ele>
        <time>2024-12-29T10:15:51Z</time>
      </trkpt>
      <trkpt lat="43.52317" lon="6.64324">
        <ele>378.6</ele>
        <time>2024-12-29T10:15:57.500Z</time>
      </trkpt>
      <trkpt lat="43.52318" lon="6.64314">
        <ele>378.8</ele>
        <time>2024-12-29T10:16:04Z</time>
      </trkpt>
      <trkpt lat="43.5232" lon="6.64305">
        <ele>379.1</ele>
        <time>2024-12-29T10:16:11.500Z</time>
      </trkpt>
      <trkpt lat="43.52321" lon="6.64295">
        <ele>378.8</ele>
        <time>2024-12-29T10:16:19Z</time>
      </trkpt>
      <trkpt lat="43.52322" lon="6.64285">
        <ele>378.6</ele>
        <time>2024-12-29T10:16:23.761Z</time>
      </trkpt>
      <trkpt lat="43.52322" lon="6.64276">
        <ele>378.3</ele>
        <time>2024-12-29T10:16:28.522Z</time>
      </trkpt>
      <trkpt lat="43.52324" lon="6.64271">
        <ele>378.3</ele>
        <time>2024-12-29T10:16:31Z</time>
      </trkpt>
      <trkpt lat="43.52326" lon="6.64265">
        <ele>378.4</ele>
        <time>2024-12-29T10:16:36.500Z</time>
      </trkpt>
      <trkpt lat="43.52328" lon="6.64259">
        <ele>378.4</ele>
        <time>2024-12-29T10:16:42Z</time>
      </trkpt>
      <trkpt lat="43.52332" lon="6.64253">
        <ele>378.9</ele>
        <time>2024-12-29T10:16:48.000Z</time>
      </trkpt>
      <trkpt lat="43.52335" lon="6.64246">
        <ele>379</ele>
        <time>2024-12-29T10:16:54Z</time>
      </trkpt>
      <trkpt lat="43.52339" lon="6.64238">
        <ele>379.1</ele>
        <time>2024-12-29T10:16:59.500Z</time>
      </trkpt>
      <trkpt lat="43.52343" lon="6.64229">
        <ele>379</ele>
        <time>2024-12-29T10:17:05Z</time>
      </trkpt>
      <trkpt lat="43.52348" lon="6.64221">
        <ele>379</ele>
        <time>2024-12-29T10:17:10.500Z</time>
      </trkpt>
      <trkpt lat="43.52353" lon="6.64214">
        <ele>378.9</ele>
        <time>2024-12-29T10:17:16Z</time>
      </trkpt>
      <trkpt lat="43.52356" lon="6.64208">
        <ele>378.7</ele>
        <time>2024-12-29T10:17:20.500Z</time>
      </trkpt>
      <trkpt lat="43.5236" lon="6.64202">
        <ele>378.7</ele>
        <time>2024-12-29T10:17:25Z</time>
      </trkpt>
      <trkpt lat="43.52366" lon="6.64196">
        <ele>378.7</ele>
        <time>2024-12-29T10:17:35Z</time>
      </trkpt>
      <trkpt lat="43.52373" lon="6.64191">
        <ele>379.1</ele>
        <time>2024-12-29T10:17:40.352Z</time>
      </trkpt>
      <trkpt lat="43.52381" lon="6.6419">
        <ele>379.9</ele>
        <time>2024-12-29T10:17:46Z</time>
      </trkpt>
      <trkpt lat="43.52386" lon="6.64189">
        <ele>380.5</ele>
        <time>2024-12-29T10:17:52.500Z</time>
      </trkpt>
      <trkpt lat="43.52392" lon="6.64188">
        <ele>381.4</ele>
        <time>2024-12-29T10:17:59Z</time>
      </trkpt>
      <trkpt lat="43.52397" lon="6.64187">
        <ele>382.3</ele>
        <time>2024-12-29T10:18:04.500Z</time>
      </trkpt>
      <trkpt lat="43.52403" lon="6.64186">
        <ele>383.4</ele>
        <time>2024-12-29T10:18:10Z</time>
      </trkpt>
      <trkpt lat="43.52411" lon="6.64182">
        <ele>384.9</ele>
        <time>2024-12-29T10:18:21Z</time>
      </trkpt>
      <trkpt lat="43.52416" lon="6.6418">
        <ele>385.8</ele>
        <time>2024-12-29T10:18:27.500Z</time>
      </trkpt>
      <trkpt lat="43.5242" lon="6.64177">
        <ele>386.6</ele>
        <time>2024-12-29T10:18:34Z</time>
      </trkpt>
      <trkpt lat="43.52424" lon="6.64175">
        <ele>387.4</ele>
        <time>2024-12-29T10:18:41.500Z</time>
      </trkpt>
      <trkpt lat="43.52428" lon="6.64172">
        <ele>388.1</ele>
        <time>2024-12-29T10:18:49Z</time>
      </trkpt>
      <trkpt lat="43.52432" lon="6.64169">
        <ele>388.8</ele>
        <time>2024-12-29T10:18:55.500Z</time>
      </trkpt>
      <trkpt lat="43.52436" lon="6.64166">
        <ele>389.4</ele>
        <time>2024-12-29T10:19:02Z</time>
      </trkpt>
      <trkpt lat="43.5244" lon="6.64163">
        <ele>390</ele>
        <time>2024-12-29T10:19:08.000Z</time>
      </trkpt>
      <trkpt lat="43.52445" lon="6.64161">
        <ele>390.7</ele>
        <time>2024-12-29T10:19:14Z</time>
      </trkpt>
      <trkpt lat="43.5245" lon="6.64157">
        <ele>391.4</ele>
        <time>2024-12-29T10:19:20.500Z</time>
      </trkpt>
      <trkpt lat="43.52454" lon="6.64154">
        <ele>391.8</ele>
        <time>2024-12-29T10:19:27Z</time>
      </trkpt>
      <trkpt lat="43.52459" lon="6.6415">
        <ele>392.3</ele>
        <time>2024-12-29T10:19:33.500Z</time>
      </trkpt>
      <trkpt lat="43.52463" lon="6.64147">
        <ele>392.6</ele>
        <time>2024-12-29T10:19:40Z</time>
      </trkpt>
      <trkpt lat="43.52468" lon="6.64144">
        <ele>393.1</ele>
        <time>2024-12-29T10:19:49.500Z</time>
      </trkpt>
      <trkpt lat="43.52472" lon="6.64141">
        <ele>393.3</ele>
        <time>2024-12-29T10:19:59Z</time>
      </trkpt>
      <trkpt lat="43.52479" lon="6.64138">
        <ele>393.9</ele>
        <time>2024-12-29T10:20:06.500Z</time>
      </trkpt>
      <trkpt lat="43.52485" lon="6.64136">
        <ele>394.5</ele>
        <time>2024-12-29T10:20:14Z</time>
      </trkpt>
      <trkpt lat="43.5249" lon="6.64134">
        <ele>394.9</ele>
        <time>2024-12-29T10:20:21.000Z</time>
      </trkpt>
      <trkpt lat="43.52495" lon="6.64133">
        <ele>395.5</ele>
        <time>2024-12-29T10:20:28Z</time>
      </trkpt>
      <trkpt lat="43.52501" lon="6.64131">
        <ele>395.9</ele>
        <time>2024-12-29T10:20:34.500Z</time>
      </trkpt>
      <trkpt lat="43.52506" lon="6.64129">
        <ele>395.9</ele>
        <time>2024-12-29T10:20:41Z</time>
      </trkpt>
      <trkpt lat="43.52513" lon="6.64129">
        <ele>396.4</ele>
        <time>2024-12-29T10:20:47.500Z</time>
      </trkpt>
      <trkpt lat="43.5252" lon="6.64128">
        <ele>396.7</ele>
        <time>2024-12-29T10:20:54Z</time>
      </trkpt>
      <trkpt lat="43.52526" lon="6.64128">
        <ele>397.1</ele>
        <time>2024-12-29T10:20:59.000Z</time>
      </trkpt>
      <trkpt lat="43.52532" lon="6.64127">
        <ele>397.9</ele>
        <time>2024-12-29T10:21:04Z</time>
      </trkpt>
      <trkpt lat="43.52537" lon="6.64125">
        <ele>398.8</ele>
        <time>2024-12-29T10:21:10.200Z</time>
      </trkpt>
      <trkpt lat="43.52541" lon="6.64119">
        <ele>399.5</ele>
        <time>2024-12-29T10:21:17Z</time>
      </trkpt>
      <trkpt lat="43.52544" lon="6.64112">
        <ele>400.1</ele>
        <time>2024-12-29T10:21:25.000Z</time>
      </trkpt>
      <trkpt lat="43.52547" lon="6.64105">
        <ele>401.1</ele>
        <time>2024-12-29T10:21:33Z</time>
      </trkpt>
      <trkpt lat="43.5255" lon="6.641">
        <ele>402</ele>
        <time>2024-12-29T10:21:40.500Z</time>
      </trkpt>
      <trkpt lat="43.52553" lon="6.64094">
        <ele>403</ele>
        <time>2024-12-29T10:21:48Z</time>
      </trkpt>
      <trkpt lat="43.52557" lon="6.64088">
        <ele>404.3</ele>
        <time>2024-12-29T10:21:56.500Z</time>
      </trkpt>
      <trkpt lat="43.52561" lon="6.64083">
        <ele>405.6</ele>
        <time>2024-12-29T10:22:05Z</time>
      </trkpt>
      <trkpt lat="43.52565" lon="6.64078">
        <ele>406.7</ele>
        <time>2024-12-29T10:22:12.500Z</time>
      </trkpt>
      <trkpt lat="43.52569" lon="6.64073">
        <ele>407.7</ele>
        <time>2024-12-29T10:22:20Z</time>
      </trkpt>
      <trkpt lat="43.52573" lon="6.64068">
        <ele>408.7</ele>
        <time>2024-12-29T10:22:27.500Z</time>
      </trkpt>
      <trkpt lat="43.52577" lon="6.64063">
        <ele>409.6</ele>
        <time>2024-12-29T10:22:35Z</time>
      </trkpt>
      <trkpt lat="43.5258" lon="6.64058">
        <ele>410.2</ele>
        <time>2024-12-29T10:22:41.500Z</time>
      </trkpt>
      <trkpt lat="43.52584" lon="6.64053">
        <ele>411</ele>
        <time>2024-12-29T10:22:48Z</time>
      </trkpt>
      <trkpt lat="43.52588" lon="6.64047">
        <ele>411.5</ele>
        <time>2024-12-29T10:22:54.500Z</time>
      </trkpt>
      <trkpt lat="43.52592" lon="6.64042">
        <ele>412.1</ele>
        <time>2024-12-29T10:23:01Z</time>
      </trkpt>
      <trkpt lat="43.52596" lon="6.64038">
        <ele>412.6</ele>
        <time>2024-12-29T10:23:07.500Z</time>
      </trkpt>
      <trkpt lat="43.526" lon="6.64034">
        <ele>413.2</ele>
        <time>2024-12-29T10:23:14Z</time>
      </trkpt>
      <trkpt lat="43.52604" lon="6.64032">
        <ele>413.9</ele>
        <time>2024-12-29T10:23:20.185Z</time>
      </trkpt>
      <trkpt lat="43.52608" lon="6.6403">
        <ele>414.6</ele>
        <time>2024-12-29T10:23:26.370Z</time>
      </trkpt>
      <trkpt lat="43.52612" lon="6.64026">
        <ele>414.9</ele>
        <time>2024-12-29T10:23:32.185Z</time>
      </trkpt>
      <trkpt lat="43.52615" lon="6.64022">
        <ele>415</ele>
        <time>2024-12-29T10:23:38Z</time>
      </trkpt>
      <trkpt lat="43.52619" lon="6.64018">
        <ele>415.3</ele>
        <time>2024-12-29T10:23:43.500Z</time>
      </trkpt>
      <trkpt lat="43.52623" lon="6.64014">
        <ele>415.4</ele>
        <time>2024-12-29T10:23:49Z</time>
      </trkpt>
      <trkpt lat="43.52627" lon="6.64008">
        <ele>415.3</ele>
        <time>2024-12-29T10:23:55.000Z</time>
      </trkpt>
      <trkpt lat="43.52631" lon="6.64003">
        <ele>415.3</ele>
        <time>2024-12-29T10:24:01Z</time>
      </trkpt>
      <trkpt lat="43.52636" lon="6.63999">
        <ele>415.4</ele>
        <time>2024-12-29T10:24:06.500Z</time>
      </trkpt>
      <trkpt lat="43.52641" lon="6.63995">
        <ele>415.5</ele>
        <time>2024-12-29T10:24:12Z</time>
      </trkpt>
      <trkpt lat="43.52646" lon="6.63992">
        <ele>415.8</ele>
        <time>2024-12-29T10:24:17.500Z</time>
      </trkpt>
      <trkpt lat="43.5265" lon="6.63988">
        <ele>415.8</ele>
        <time>2024-12-29T10:24:23Z</time>
      </trkpt>
      <trkpt lat="43.52654" lon="6.63986">
        <ele>416.2</ele>
        <time>2024-12-29T10:24:29.000Z</time>
      </trkpt>
      <trkpt lat="43.52659" lon="6.63984">
        <ele>416.7</ele>
        <time>2024-12-29T10:24:35Z</time>
      </trkpt>
      <trkpt lat="43.52667" lon="6.63981">
        <ele>417.7</ele>
        <time>2024-12-29T10:24:46Z</time>
      </trkpt>
      <trkpt lat="43.52671" lon="6.63975">
        <ele>418.1</ele>
        <time>2024-12-29T10:24:54.500Z</time>
      </trkpt>
      <trkpt lat="43.52674" lon="6.6397">
        <ele>418.9</ele>
        <time>2024-12-29T10:25:03Z</time>
      </trkpt>
      <trkpt lat="43.52677" lon="6.63964">
        <ele>420.3</ele>
        <time>2024-12-29T10:25:12.000Z</time>
      </trkpt>
      <trkpt lat="43.5268" lon="6.63959">
        <ele>421.6</ele>
        <time>2024-12-29T10:25:21Z</time>
      </trkpt>
      <trkpt lat="43.52682" lon="6.63956">
        <ele>422.3</ele>
        <time>2024-12-29T10:25:54Z</time>
      </trkpt>
      <trkpt lat="43.52684" lon="6.63951">
        <ele>423.3</ele>
        <time>2024-12-29T10:26:01.561Z</time>
      </trkpt>
      <trkpt lat="43.52689" lon="6.63942">
        <ele>425.3</ele>
        <time>2024-12-29T10:26:14Z</time>
      </trkpt>
      <trkpt lat="43.52691" lon="6.63937">
        <ele>426.2</ele>
        <time>2024-12-29T10:26:24.500Z</time>
      </trkpt>
      <trkpt lat="43.52694" lon="6.63931">
        <ele>427.4</ele>
        <time>2024-12-29T10:26:35Z</time>
      </trkpt>
      <trkpt lat="43.52696" lon="6.63925">
        <ele>428.4</ele>
        <time>2024-12-29T10:26:44.000Z</time>
      </trkpt>
      <trkpt lat="43.52698" lon="6.63918">
        <ele>429.5</ele>
        <time>2024-12-29T10:26:53Z</time>
      </trkpt>
      <trkpt lat="43.52701" lon="6.63913">
        <ele>430.6</ele>
        <time>2024-12-29T10:27:02.500Z</time>
      </trkpt>
      <trkpt lat="43.52704" lon="6.63907">
        <ele>431.8</ele>
        <time>2024-12-29T10:27:12Z</time>
      </trkpt>
      <trkpt lat="43.52707" lon="6.63902">
        <ele>432.8</ele>
        <time>2024-12-29T10:27:21.000Z</time>
      </trkpt>
      <trkpt lat="43.5271" lon="6.63896">
        <ele>434</ele>
        <time>2024-12-29T10:27:30Z</time>
      </trkpt>
      <trkpt lat="43.52714" lon="6.63891">
        <ele>435.3</ele>
        <time>2024-12-29T10:27:38.500Z</time>
      </trkpt>
      <trkpt lat="43.52718" lon="6.63885">
        <ele>436.5</ele>
        <time>2024-12-29T10:27:47Z</time>
      </trkpt>
      <trkpt lat="43.52722" lon="6.63881">
        <ele>437.5</ele>
        <time>2024-12-29T10:27:54.500Z</time>
      </trkpt>
      <trkpt lat="43.52726" lon="6.63876">
        <ele>438.3</ele>
        <time>2024-12-29T10:28:02Z</time>
      </trkpt>
      <trkpt lat="43.5273" lon="6.63872">
        <ele>438.9</ele>
        <time>2024-12-29T10:28:10.000Z</time>
      </trkpt>
      <trkpt lat="43.52734" lon="6.63868">
        <ele>439.5</ele>
        <time>2024-12-29T10:28:18Z</time>
      </trkpt>
      <trkpt lat="43.52738" lon="6.63863">
        <ele>440</ele>
        <time>2024-12-29T10:28:24.500Z</time>
      </trkpt>
      <trkpt lat="43.52743" lon="6.63859">
        <ele>440.5</ele>
        <time>2024-12-29T10:28:31Z</time>
      </trkpt>
      <trkpt lat="43.52747" lon="6.63854">
        <ele>440.8</ele>
        <time>2024-12-29T10:28:37.500Z</time>
      </trkpt>
      <trkpt lat="43.52751" lon="6.6385">
        <ele>441.2</ele>
        <time>2024-12-29T10:28:44Z</time>
      </trkpt>
      <trkpt lat="43.52756" lon="6.63847">
        <ele>442.1</ele>
        <time>2024-12-29T10:28:50.500Z</time>
      </trkpt>
      <trkpt lat="43.52761" lon="6.63844">
        <ele>443</ele>
        <time>2024-12-29T10:28:57Z</time>
      </trkpt>
      <trkpt lat="43.52765" lon="6.63839">
        <ele>443.7</ele>
        <time>2024-12-29T10:29:03.500Z</time>
      </trkpt>
      <trkpt lat="43.52768" lon="6.63834">
        <ele>444.2</ele>
        <time>2024-12-29T10:29:10Z</time>
      </trkpt>
      <trkpt lat="43.52773" lon="6.63831">
        <ele>445.1</ele>
        <time>2024-12-29T10:29:17.000Z</time>
      </trkpt>
      <trkpt lat="43.52777" lon="6.63827">
        <ele>445.6</ele>
        <time>2024-12-29T10:29:24Z</time>
      </trkpt>
      <trkpt lat="43.52781" lon="6.63822">
        <ele>446.2</ele>
        <time>2024-12-29T10:29:31.000Z</time>
      </trkpt>
      <trkpt lat="43.52785" lon="6.63817">
        <ele>446.7</ele>
        <time>2024-12-29T10:29:38Z</time>
      </trkpt>
      <trkpt lat="43.52789" lon="6.6381">
        <ele>447.2</ele>
        <time>2024-12-29T10:29:44.000Z</time>
      </trkpt>
      <trkpt lat="43.52793" lon="6.63803">
        <ele>447.7</ele>
        <time>2024-12-29T10:29:50Z</time>
      </trkpt>
      <trkpt lat="43.52797" lon="6.63798">
        <ele>448.3</ele>
        <time>2024-12-29T10:29:56.500Z</time>
      </trkpt>
      <trkpt lat="43.528" lon="6.63794">
        <ele>448.7</ele>
        <time>2024-12-29T10:30:03Z</time>
      </trkpt>
      <trkpt lat="43.52805" lon="6.6379">
        <ele>449.4</ele>
        <time>2024-12-29T10:30:08.500Z</time>
      </trkpt>
      <trkpt lat="43.52809" lon="6.63787">
        <ele>450</ele>
        <time>2024-12-29T10:30:14Z</time>
      </trkpt>
      <trkpt lat="43.52812" lon="6.63782">
        <ele>450.3</ele>
        <time>2024-12-29T10:30:20.000Z</time>
      </trkpt>
      <trkpt lat="43.52814" lon="6.63776">
        <ele>450.7</ele>
        <time>2024-12-29T10:30:26Z</time>
      </trkpt>
      <trkpt lat="43.52819" lon="6.63767">
        <ele>452</ele>
        <time>2024-12-29T10:30:40Z</time>
      </trkpt>
      <trkpt lat="43.52822" lon="6.63761">
        <ele>452.7</ele>
        <time>2024-12-29T10:31:55.500Z</time>
      </trkpt>
      <trkpt lat="43.52825" lon="6.63756">
        <ele>453.2</ele>
        <time>2024-12-29T10:33:11Z</time>
      </trkpt>
      <trkpt lat="43.5283" lon="6.63753">
        <ele>453.7</ele>
        <time>2024-12-29T10:33:16.000Z</time>
      </trkpt>
      <trkpt lat="43.52835" lon="6.63751">
        <ele>454.3</ele>
        <time>2024-12-29T10:33:21Z</time>
      </trkpt>
      <trkpt lat="43.5284" lon="6.6375">
        <ele>455.2</ele>
        <time>2024-12-29T10:33:26.000Z</time>
      </trkpt>
      <trkpt lat="43.52846" lon="6.63749">
        <ele>456.3</ele>
        <time>2024-12-29T10:33:31Z</time>
      </trkpt>
      <trkpt lat="43.5285" lon="6.63746">
        <ele>457.2</ele>
        <time>2024-12-29T10:33:37.000Z</time>
      </trkpt>
      <trkpt lat="43.52854" lon="6.63743">
        <ele>458.2</ele>
        <time>2024-12-29T10:33:43Z</time>
      </trkpt>
      <trkpt lat="43.52858" lon="6.6374">
        <ele>459.1</ele>
        <time>2024-12-29T10:33:50.000Z</time>
      </trkpt>
      <trkpt lat="43.52862" lon="6.63737">
        <ele>460.2</ele>
        <time>2024-12-29T10:33:57Z</time>
      </trkpt>
      <trkpt lat="43.52869" lon="6.63731">
        <ele>462.6</ele>
        <time>2024-12-29T10:34:12Z</time>
      </trkpt>
      <trkpt lat="43.52873" lon="6.63727">
        <ele>464</ele>
        <time>2024-12-29T10:34:19.500Z</time>
      </trkpt>
      <trkpt lat="43.52877" lon="6.63724">
        <ele>465.4</ele>
        <time>2024-12-29T10:34:27Z</time>
      </trkpt>
      <trkpt lat="43.52882" lon="6.63722">
        <ele>467</ele>
        <time>2024-12-29T10:34:35.000Z</time>
      </trkpt>
      <trkpt lat="43.52887" lon="6.6372">
        <ele>468.6</ele>
        <time>2024-12-29T10:34:43Z</time>
      </trkpt>
      <trkpt lat="43.52892" lon="6.63717">
        <ele>470.1</ele>
        <time>2024-12-29T10:34:51.500Z</time>
      </trkpt>
      <trkpt lat="43.52897" lon="6.63714">
        <ele>471.5</ele>
        <time>2024-12-29T10:35:00Z</time>
      </trkpt>
      <trkpt lat="43.52902" lon="6.6371">
        <ele>472.8</ele>
        <time>2024-12-29T10:35:07.500Z</time>
      </trkpt>
      <trkpt lat="43.52907" lon="6.63706">
        <ele>474</ele>
        <time>2024-12-29T10:35:15Z</time>
      </trkpt>
      <trkpt lat="43.52911" lon="6.63702">
        <ele>474.9</ele>
        <time>2024-12-29T10:35:21.500Z</time>
      </trkpt>
      <trkpt lat="43.52915" lon="6.63698">
        <ele>475.7</ele>
        <time>2024-12-29T10:35:28Z</time>
      </trkpt>
      <trkpt lat="43.5292" lon="6.63695">
        <ele>476.7</ele>
        <time>2024-12-29T10:35:34.500Z</time>
      </trkpt>
      <trkpt lat="43.52924" lon="6.63693">
        <ele>477.5</ele>
        <time>2024-12-29T10:35:41Z</time>
      </trkpt>
      <trkpt lat="43.52929" lon="6.63689">
        <ele>478.5</ele>
        <time>2024-12-29T10:35:47.000Z</time>
      </trkpt>
      <trkpt lat="43.52933" lon="6.63686">
        <ele>479.2</ele>
        <time>2024-12-29T10:35:53Z</time>
      </trkpt>
      <trkpt lat="43.52938" lon="6.63683">
        <ele>480.2</ele>
        <time>2024-12-29T10:35:59.500Z</time>
      </trkpt>
      <trkpt lat="43.52943" lon="6.63681">
        <ele>481.2</ele>
        <time>2024-12-29T10:36:06Z</time>
      </trkpt>
      <trkpt lat="43.52949" lon="6.63679">
        <ele>482.3</ele>
        <time>2024-12-29T10:36:13.000Z</time>
      </trkpt>
      <trkpt lat="43.52954" lon="6.63677">
        <ele>483.2</ele>
        <time>2024-12-29T10:36:20Z</time>
      </trkpt>
      <trkpt lat="43.52961" lon="6.63672">
        <ele>484.3</ele>
        <time>2024-12-29T10:36:34.276Z</time>
      </trkpt>
      <trkpt lat="43.52968" lon="6.63667">
        <ele>485.3</ele>
        <time>2024-12-29T10:36:50.584Z</time>
      </trkpt>
      <trkpt lat="43.52974" lon="6.63663">
        <ele>485.9</ele>
        <time>2024-12-29T10:37:02.647Z</time>
      </trkpt>
      <trkpt lat="43.52981" lon="6.63661">
        <ele>486.5</ele>
        <time>2024-12-29T10:37:17.580Z</time>
      </trkpt>
      <trkpt lat="43.52986" lon="6.63661">
        <ele>487</ele>
        <time>2024-12-29T10:37:26.702Z</time>
      </trkpt>
      <trkpt lat="43.5299" lon="6.63661">
        <ele>487.4</ele>
        <time>2024-12-29T10:37:35.824Z</time>
      </trkpt>
      <trkpt lat="43.52995" lon="6.6366">
        <ele>487.8</ele>
        <time>2024-12-29T10:37:44.799Z</time>
      </trkpt>
      <trkpt lat="43.53" lon="6.63659">
        <ele>488.2</ele>
        <time>2024-12-29T10:37:53.774Z</time>
      </trkpt>
      <trkpt lat="43.53004" lon="6.63658">
        <ele>488</ele>
        <time>2024-12-29T10:38:03.202Z</time>
      </trkpt>
      <trkpt lat="43.53009" lon="6.63657">
        <ele>487.7</ele>
        <time>2024-12-29T10:38:12.630Z</time>
      </trkpt>
      <trkpt lat="43.53016" lon="6.63659">
        <ele>487.9</ele>
        <time>2024-12-29T10:38:25.813Z</time>
      </trkpt>
      <trkpt lat="43.53023" lon="6.63661">
        <ele>488.1</ele>
        <time>2024-12-29T10:38:39.741Z</time>
      </trkpt>
      <trkpt lat="43.5303" lon="6.63668">
        <ele>488.9</ele>
        <time>2024-12-29T10:38:56.700Z</time>
      </trkpt>
      <trkpt lat="43.53033" lon="6.63673">
        <ele>489.2</ele>
        <time>2024-12-29T10:39:06.160Z</time>
      </trkpt>
      <trkpt lat="43.53036" lon="6.63678">
        <ele>489.4</ele>
        <time>2024-12-29T10:39:15.620Z</time>
      </trkpt>
      <trkpt lat="43.53037" lon="6.63684">
        <ele>490.2</ele>
        <time>2024-12-29T10:39:24.744Z</time>
      </trkpt>
      <trkpt lat="43.53038" lon="6.63691">
        <ele>491</ele>
        <time>2024-12-29T10:39:33.868Z</time>
      </trkpt>
      <trkpt lat="43.5304" lon="6.63699">
        <ele>491.8</ele>
        <time>2024-12-29T10:39:46.603Z</time>
      </trkpt>
      <trkpt lat="43.53042" lon="6.63708">
        <ele>492.7</ele>
        <time>2024-12-29T10:39:59.338Z</time>
      </trkpt>
      <trkpt lat="43.53046" lon="6.63719">
        <ele>493.6</ele>
        <time>2024-12-29T10:40:16.594Z</time>
      </trkpt>
      <trkpt lat="43.5305" lon="6.6373">
        <ele>494.6</ele>
        <time>2024-12-29T10:40:33.850Z</time>
      </trkpt>
      <trkpt lat="43.53051" lon="6.63738">
        <ele>495.5</ele>
        <time>2024-12-29T10:40:45.775Z</time>
      </trkpt>
      <trkpt lat="43.53051" lon="6.63746">
        <ele>496.5</ele>
        <time>2024-12-29T10:40:57.700Z</time>
      </trkpt>
      <trkpt lat="43.53054" lon="6.63755">
        <ele>497.5</ele>
        <time>2024-12-29T10:41:10.394Z</time>
      </trkpt>
      <trkpt lat="43.53056" lon="6.63763">
        <ele>498.4</ele>
        <time>2024-12-29T10:41:23.088Z</time>
      </trkpt>
      <trkpt lat="43.53058" lon="6.63769">
        <ele>499</ele>
        <time>2024-12-29T10:41:32.714Z</time>
      </trkpt>
      <trkpt lat="43.5306" lon="6.63776">
        <ele>499.7</ele>
        <time>2024-12-29T10:41:42.340Z</time>
      </trkpt>
      <trkpt lat="43.53064" lon="6.63784">
        <ele>500.3</ele>
        <time>2024-12-29T10:41:55.436Z</time>
      </trkpt>
      <trkpt lat="43.53067" lon="6.63792">
        <ele>501.2</ele>
        <time>2024-12-29T10:42:08.532Z</time>
      </trkpt>
      <trkpt lat="43.53069" lon="6.63797">
        <ele>501.9</ele>
        <time>2024-12-29T10:42:17.909Z</time>
      </trkpt>
      <trkpt lat="43.53072" lon="6.63803">
        <ele>502.8</ele>
        <time>2024-12-29T10:42:27.287Z</time>
      </trkpt>
      <trkpt lat="43.53075" lon="6.63809">
        <ele>503.6</ele>
        <time>2024-12-29T10:42:37.868Z</time>
      </trkpt>
      <trkpt lat="43.53078" lon="6.63816">
        <ele>504.3</ele>
        <time>2024-12-29T10:42:48.449Z</time>
      </trkpt>
      <trkpt lat="43.53081" lon="6.63823">
        <ele>505</ele>
        <time>2024-12-29T10:43:00.567Z</time>
      </trkpt>
      <trkpt lat="43.53084" lon="6.6383">
        <ele>505.8</ele>
        <time>2024-12-29T10:43:12.685Z</time>
      </trkpt>
      <trkpt lat="43.53089" lon="6.63838">
        <ele>507.1</ele>
        <time>2024-12-29T10:43:27.379Z</time>
      </trkpt>
      <trkpt lat="43.53095" lon="6.63845">
        <ele>508.5</ele>
        <time>2024-12-29T10:43:42.073Z</time>
      </trkpt>
      <trkpt lat="43.53099" lon="6.6385">
        <ele>509.5</ele>
        <time>2024-12-29T10:43:53.113Z</time>
      </trkpt>
      <trkpt lat="43.53103" lon="6.63855">
        <ele>510.5</ele>
        <time>2024-12-29T10:44:04.153Z</time>
      </trkpt>
      <trkpt lat="43.53107" lon="6.63859">
        <ele>511.3</ele>
        <time>2024-12-29T10:44:14.374Z</time>
      </trkpt>
      <trkpt lat="43.53112" lon="6.63863">
        <ele>512.3</ele>
        <time>2024-12-29T10:44:24.595Z</time>
      </trkpt>
      <trkpt lat="43.53119" lon="6.6387">
        <ele>513.8</ele>
        <time>2024-12-29T10:44:41.464Z</time>
      </trkpt>
      <trkpt lat="43.53123" lon="6.63873">
        <ele>514.6</ele>
        <time>2024-12-29T10:44:49.899Z</time>
      </trkpt>
      <trkpt lat="43.53127" lon="6.63876">
        <ele>515.4</ele>
        <time>2024-12-29T10:44:58.334Z</time>
      </trkpt>
      <trkpt lat="43.53133" lon="6.63878">
        <ele>516.4</ele>
        <time>2024-12-29T10:45:11.794Z</time>
      </trkpt>
      <trkpt lat="43.5314" lon="6.63881">
        <ele>517.6</ele>
        <time>2024-12-29T10:45:25.254Z</time>
      </trkpt>
      <trkpt lat="43.53144" lon="6.63883">
        <ele>518.4</ele>
        <time>2024-12-29T10:45:34.384Z</time>
      </trkpt>
      <trkpt lat="43.53149" lon="6.63885">
        <ele>519.2</ele>
        <time>2024-12-29T10:45:43.514Z</time>
      </trkpt>
      <trkpt lat="43.53155" lon="6.63889">
        <ele>520.3</ele>
        <time>2024-12-29T10:45:57.628Z</time>
      </trkpt>
      <trkpt lat="43.53159" lon="6.63893">
        <ele>521</ele>
        <time>2024-12-29T10:46:06.940Z</time>
      </trkpt>
      <trkpt lat="43.53163" lon="6.63897">
        <ele>521.8</ele>
        <time>2024-12-29T10:46:16.252Z</time>
      </trkpt>
      <trkpt lat="43.53163" lon="6.63908">
        <ele>522.2</ele>
        <time>2024-12-29T10:46:31.828Z</time>
      </trkpt>
      <trkpt lat="43.53162" lon="6.63914">
        <ele>522.2</ele>
        <time>2024-12-29T10:46:40.637Z</time>
      </trkpt>
      <trkpt lat="43.53162" lon="6.63921">
        <ele>522.5</ele>
        <time>2024-12-29T10:46:49.446Z</time>
      </trkpt>
      <trkpt lat="43.53162" lon="6.63932">
        <ele>523</ele>
        <time>2024-12-29T10:47:05.782Z</time>
      </trkpt>
      <trkpt lat="43.53161" lon="6.63939">
        <ele>523.2</ele>
        <time>2024-12-29T10:47:15.093Z</time>
      </trkpt>
      <trkpt lat="43.5316" lon="6.63949">
        <ele>523.6</ele>
        <time>2024-12-29T10:47:29.925Z</time>
      </trkpt>
      <trkpt lat="43.53159" lon="6.63958">
        <ele>524</ele>
        <time>2024-12-29T10:47:42.737Z</time>
      </trkpt>
      <trkpt lat="43.53157" lon="6.63964">
        <ele>524.1</ele>
        <time>2024-12-29T10:47:52.468Z</time>
      </trkpt>
      <trkpt lat="43.53156" lon="6.63971">
        <ele>524.4</ele>
        <time>2024-12-29T10:48:02.200Z</time>
      </trkpt>
      <trkpt lat="43.53154" lon="6.63978">
        <ele>524.4</ele>
        <time>2024-12-29T10:48:12.599Z</time>
      </trkpt>
      <trkpt lat="43.53151" lon="6.63984">
        <ele>524.2</ele>
        <time>2024-12-29T10:48:23Z</time>
      </trkpt>
      <trkpt lat="43.5315" lon="6.63991">
        <ele>524.3</ele>
        <time>2024-12-29T10:48:28.749Z</time>
      </trkpt>
      <trkpt lat="43.53148" lon="6.63998">
        <ele>524.2</ele>
        <time>2024-12-29T10:48:34.499Z</time>
      </trkpt>
      <trkpt lat="43.53146" lon="6.64004">
        <ele>524.1</ele>
        <time>2024-12-29T10:48:40.249Z</time>
      </trkpt>
      <trkpt lat="43.53145" lon="6.64011">
        <ele>524.2</ele>
        <time>2024-12-29T10:48:46Z</time>
      </trkpt>
      <trkpt lat="43.53143" lon="6.64018">
        <ele>524.1</ele>
        <time>2024-12-29T10:48:51.499Z</time>
      </trkpt>
      <trkpt lat="43.53142" lon="6.64026">
        <ele>524.3</ele>
        <time>2024-12-29T10:48:57Z</time>
      </trkpt>
      <trkpt lat="43.53141" lon="6.64032">
        <ele>524.4</ele>
        <time>2024-12-29T10:49:01.999Z</time>
      </trkpt>
      <trkpt lat="43.5314" lon="6.64039">
        <ele>524.5</ele>
        <time>2024-12-29T10:49:07Z</time>
      </trkpt>
      <trkpt lat="43.53137" lon="6.64046">
        <ele>524.5</ele>
        <time>2024-12-29T10:49:12.999Z</time>
      </trkpt>
      <trkpt lat="43.53135" lon="6.64052">
        <ele>524.5</ele>
        <time>2024-12-29T10:49:19Z</time>
      </trkpt>
      <trkpt lat="43.5313" lon="6.64056">
        <ele>524</ele>
        <time>2024-12-29T10:49:24.999Z</time>
      </trkpt>
      <trkpt lat="43.53126" lon="6.6406">
        <ele>523.6</ele>
        <time>2024-12-29T10:49:31Z</time>
      </trkpt>
      <trkpt lat="43.53121" lon="6.64068">
        <ele>523.1</ele>
        <time>2024-12-29T10:49:36.499Z</time>
      </trkpt>
      <trkpt lat="43.53116" lon="6.64076">
        <ele>522.5</ele>
        <time>2024-12-29T10:49:42Z</time>
      </trkpt>
      <trkpt lat="43.53115" lon="6.64084">
        <ele>522.4</ele>
        <time>2024-12-29T10:49:46.999Z</time>
      </trkpt>
      <trkpt lat="43.53115" lon="6.64091">
        <ele>522.1</ele>
        <time>2024-12-29T10:49:52Z</time>
      </trkpt>
      <trkpt lat="43.53116" lon="6.64098">
        <ele>521.9</ele>
        <time>2024-12-29T10:49:57.000Z</time>
      </trkpt>
      <trkpt lat="43.53118" lon="6.64106">
        <ele>521.7</ele>
        <time>2024-12-29T10:50:02Z</time>
      </trkpt>
      <trkpt lat="43.53123" lon="6.64109">
        <ele>522</ele>
        <time>2024-12-29T10:50:08.500Z</time>
      </trkpt>
      <trkpt lat="43.53128" lon="6.64113">
        <ele>522</ele>
        <time>2024-12-29T10:50:15Z</time>
      </trkpt>
      <trkpt lat="43.53133" lon="6.64114">
        <ele>522.3</ele>
        <time>2024-12-29T10:50:22.000Z</time>
      </trkpt>
      <trkpt lat="43.53139" lon="6.64115">
        <ele>522.6</ele>
        <time>2024-12-29T10:50:29Z</time>
      </trkpt>
      <trkpt lat="43.53145" lon="6.64117">
        <ele>522.8</ele>
        <time>2024-12-29T10:50:35.000Z</time>
      </trkpt>
      <trkpt lat="43.53152" lon="6.64119">
        <ele>523.1</ele>
        <time>2024-12-29T10:50:41Z</time>
      </trkpt>
      <trkpt lat="43.53159" lon="6.64121">
        <ele>523.4</ele>
        <time>2024-12-29T10:50:47.000Z</time>
      </trkpt>
      <trkpt lat="43.53166" lon="6.64123">
        <ele>523.7</ele>
        <time>2024-12-29T10:50:53Z</time>
      </trkpt>
      <trkpt lat="43.53173" lon="6.64128">
        <ele>523.4</ele>
        <time>2024-12-29T10:51:01.000Z</time>
      </trkpt>
      <trkpt lat="43.53179" lon="6.64133">
        <ele>523.1</ele>
        <time>2024-12-29T10:51:09Z</time>
      </trkpt>
      <trkpt lat="43.53182" lon="6.64141">
        <ele>522.4</ele>
        <time>2024-12-29T10:51:17.500Z</time>
      </trkpt>
      <trkpt lat="43.53185" lon="6.64149">
        <ele>522.1</ele>
        <time>2024-12-29T10:51:26Z</time>
      </trkpt>
      <trkpt lat="43.53185" lon="6.64156">
        <ele>521.6</ele>
        <time>2024-12-29T10:51:31.500Z</time>
      </trkpt>
      <trkpt lat="43.53186" lon="6.64163">
        <ele>521.2</ele>
        <time>2024-12-29T10:51:37Z</time>
      </trkpt>
      <trkpt lat="43.53187" lon="6.6417">
        <ele>520.7</ele>
        <time>2024-12-29T10:51:42.000Z</time>
      </trkpt>
      <trkpt lat="43.53188" lon="6.64176">
        <ele>520.1</ele>
        <time>2024-12-29T10:51:47Z</time>
      </trkpt>
      <trkpt lat="43.53193" lon="6.64177">
        <ele>519.9</ele>
        <time>2024-12-29T10:51:53.250Z</time>
      </trkpt>
      <trkpt lat="43.53197" lon="6.64178">
        <ele>519.7</ele>
        <time>2024-12-29T10:51:59.500Z</time>
      </trkpt>
      <trkpt lat="43.53202" lon="6.64179">
        <ele>519.6</ele>
        <time>2024-12-29T10:52:05.750Z</time>
      </trkpt>
      <trkpt lat="43.53206" lon="6.64179">
        <ele>519.5</ele>
        <time>2024-12-29T10:52:12Z</time>
      </trkpt>
      <trkpt lat="43.53211" lon="6.64176">
        <ele>519.8</ele>
        <time>2024-12-29T10:52:18.500Z</time>
      </trkpt>
      <trkpt lat="43.53217" lon="6.64173">
        <ele>520.1</ele>
        <time>2024-12-29T10:52:25Z</time>
      </trkpt>
      <trkpt lat="43.53223" lon="6.64168">
        <ele>520.8</ele>
        <time>2024-12-29T10:52:33.500Z</time>
      </trkpt>
      <trkpt lat="43.53229" lon="6.64163">
        <ele>521.4</ele>
        <time>2024-12-29T10:52:42Z</time>
      </trkpt>
      <trkpt lat="43.53233" lon="6.64158">
        <ele>522.2</ele>
        <time>2024-12-29T10:52:46.500Z</time>
      </trkpt>
      <trkpt lat="43.53236" lon="6.64153">
        <ele>523.2</ele>
        <time>2024-12-29T10:52:51.000Z</time>
      </trkpt>
      <trkpt lat="43.53239" lon="6.64148">
        <ele>524.3</ele>
        <time>2024-12-29T10:52:55.500Z</time>
      </trkpt>
      <trkpt lat="43.53242" lon="6.64143">
        <ele>525.5</ele>
        <time>2024-12-29T10:53:00Z</time>
      </trkpt>
      <trkpt lat="43.53246" lon="6.64135">
        <ele>527.5</ele>
        <time>2024-12-29T10:53:09.000Z</time>
      </trkpt>
      <trkpt lat="43.53251" lon="6.64128">
        <ele>529.3</ele>
        <time>2024-12-29T10:53:18Z</time>
      </trkpt>
      <trkpt lat="43.53253" lon="6.6412">
        <ele>531</ele>
        <time>2024-12-29T10:53:26.500Z</time>
      </trkpt>
      <trkpt lat="43.53256" lon="6.64113">
        <ele>532.7</ele>
        <time>2024-12-29T10:53:35Z</time>
      </trkpt>
      <trkpt lat="43.53263" lon="6.64107">
        <ele>534.3</ele>
        <time>2024-12-29T10:53:55Z</time>
      </trkpt>
      <trkpt lat="43.53265" lon="6.64101">
        <ele>535.6</ele>
        <time>2024-12-29T10:54:06.000Z</time>
      </trkpt>
      <trkpt lat="43.53268" lon="6.64096">
        <ele>536.9</ele>
        <time>2024-12-29T10:54:17Z</time>
      </trkpt>
      <trkpt lat="43.53269" lon="6.64089">
        <ele>538.5</ele>
        <time>2024-12-29T10:54:27.500Z</time>
      </trkpt>
      <trkpt lat="43.53271" lon="6.64082">
        <ele>540.1</ele>
        <time>2024-12-29T10:54:38Z</time>
      </trkpt>
      <trkpt lat="43.53274" lon="6.64077">
        <ele>541.1</ele>
        <time>2024-12-29T10:54:46.500Z</time>
      </trkpt>
      <trkpt lat="43.53277" lon="6.64071">
        <ele>542.2</ele>
        <time>2024-12-29T10:54:55Z</time>
      </trkpt>
      <trkpt lat="43.53281" lon="6.64067">
        <ele>542.8</ele>
        <time>2024-12-29T10:55:02.500Z</time>
      </trkpt>
      <trkpt lat="43.53286" lon="6.64063">
        <ele>543.4</ele>
        <time>2024-12-29T10:55:10Z</time>
      </trkpt>
      <trkpt lat="43.5329" lon="6.6406">
        <ele>544</ele>
        <time>2024-12-29T10:55:16.500Z</time>
      </trkpt>
      <trkpt lat="43.53294" lon="6.64057">
        <ele>544.9</ele>
        <time>2024-12-29T10:55:23Z</time>
      </trkpt>
      <trkpt lat="43.53301" lon="6.64052">
        <ele>545.7</ele>
        <time>2024-12-29T10:55:37Z</time>
      </trkpt>
      <trkpt lat="43.53306" lon="6.64049">
        <ele>546</ele>
        <time>2024-12-29T10:55:44.500Z</time>
      </trkpt>
      <trkpt lat="43.53311" lon="6.64046">
        <ele>546.1</ele>
        <time>2024-12-29T10:55:52Z</time>
      </trkpt>
      <trkpt lat="43.53315" lon="6.64043">
        <ele>546.3</ele>
        <time>2024-12-29T10:56:01.000Z</time>
      </trkpt>
      <trkpt lat="43.5332" lon="6.6404">
        <ele>546.6</ele>
        <time>2024-12-29T10:56:10Z</time>
      </trkpt>
      <trkpt lat="43.53328" lon="6.64038">
        <ele>547.2</ele>
        <time>2024-12-29T10:56:24Z</time>
      </trkpt>
      <trkpt lat="43.53333" lon="6.64035">
        <ele>547.9</ele>
        <time>2024-12-29T10:56:31.000Z</time>
      </trkpt>
      <trkpt lat="43.53338" lon="6.64032">
        <ele>548.8</ele>
        <time>2024-12-29T10:56:38Z</time>
      </trkpt>
      <trkpt lat="43.53343" lon="6.64033">
        <ele>549</ele>
        <time>2024-12-29T10:56:45.500Z</time>
      </trkpt>
      <trkpt lat="43.53349" lon="6.64034">
        <ele>549.4</ele>
        <time>2024-12-29T10:56:53Z</time>
      </trkpt>
      <trkpt lat="43.53354" lon="6.64033">
        <ele>549.9</ele>
        <time>2024-12-29T10:57:00.000Z</time>
      </trkpt>
      <trkpt lat="43.53359" lon="6.64032">
        <ele>550.4</ele>
        <time>2024-12-29T10:57:07Z</time>
      </trkpt>
      <trkpt lat="43.53363" lon="6.64032">
        <ele>550.9</ele>
        <time>2024-12-29T10:57:14.000Z</time>
      </trkpt>
      <trkpt lat="43.53368" lon="6.64033">
        <ele>551.6</ele>
        <time>2024-12-29T10:57:21Z</time>
      </trkpt>
      <trkpt lat="43.53373" lon="6.64031">
        <ele>552.7</ele>
        <time>2024-12-29T10:57:30.500Z</time>
      </trkpt>
      <trkpt lat="43.53378" lon="6.6403">
        <ele>553.8</ele>
        <time>2024-12-29T10:57:40Z</time>
      </trkpt>
      <trkpt lat="43.53384" lon="6.6403">
        <ele>554.8</ele>
        <time>2024-12-29T10:57:48.000Z</time>
      </trkpt>
      <trkpt lat="43.5339" lon="6.6403">
        <ele>555.8</ele>
        <time>2024-12-29T10:57:56Z</time>
      </trkpt>
      <trkpt lat="43.53395" lon="6.64027">
        <ele>556.6</ele>
        <time>2024-12-29T10:58:04.000Z</time>
      </trkpt>
      <trkpt lat="43.53401" lon="6.64025">
        <ele>557.2</ele>
        <time>2024-12-29T10:58:12Z</time>
      </trkpt>
      <trkpt lat="43.53406" lon="6.64025">
        <ele>557.6</ele>
        <time>2024-12-29T10:58:19.000Z</time>
      </trkpt>
      <trkpt lat="43.5341" lon="6.64024">
        <ele>558.1</ele>
        <time>2024-12-29T10:58:26Z</time>
      </trkpt>
      <trkpt lat="43.53414" lon="6.64023">
        <ele>558.5</ele>
        <time>2024-12-29T10:58:32.500Z</time>
      </trkpt>
      <trkpt lat="43.53419" lon="6.64021">
        <ele>558.8</ele>
        <time>2024-12-29T10:58:39Z</time>
      </trkpt>
      <trkpt lat="43.53424" lon="6.6402">
        <ele>558.8</ele>
        <time>2024-12-29T10:58:46.500Z</time>
      </trkpt>
      <trkpt lat="43.53429" lon="6.64019">
        <ele>558.8</ele>
        <time>2024-12-29T10:58:54Z</time>
      </trkpt>
      <trkpt lat="43.53436" lon="6.64012">
        <ele>559.3</ele>
        <time>2024-12-29T10:59:35Z</time>
      </trkpt>
      <trkpt lat="43.5344" lon="6.64008">
        <ele>559.8</ele>
        <time>2024-12-29T11:01:58.000Z</time>
      </trkpt>
      <trkpt lat="43.53444" lon="6.64003">
        <ele>560.6</ele>
        <time>2024-12-29T11:04:21Z</time>
      </trkpt>
      <trkpt lat="43.53446" lon="6.63996">
        <ele>560.4</ele>
        <time>2024-12-29T11:04:27.500Z</time>
      </trkpt>
      <trkpt lat="43.53449" lon="6.6399">
        <ele>559.4</ele>
        <time>2024-12-29T11:04:34Z</time>
      </trkpt>
      <trkpt lat="43.53452" lon="6.63984">
        <ele>558.6</ele>
        <time>2024-12-29T11:04:40.000Z</time>
      </trkpt>
      <trkpt lat="43.53456" lon="6.63977">
        <ele>557.8</ele>
        <time>2024-12-29T11:04:46Z</time>
      </trkpt>
      <trkpt lat="43.53459" lon="6.63971">
        <ele>557.4</ele>
        <time>2024-12-29T11:04:52.000Z</time>
      </trkpt>
      <trkpt lat="43.53462" lon="6.63965">
        <ele>556.9</ele>
        <time>2024-12-29T11:04:58Z</time>
      </trkpt>
      <trkpt lat="43.53465" lon="6.63957">
        <ele>556.6</ele>
        <time>2024-12-29T11:05:04.000Z</time>
      </trkpt>
      <trkpt lat="43.53467" lon="6.63949">
        <ele>556.6</ele>
        <time>2024-12-29T11:05:10Z</time>
      </trkpt>
      <trkpt lat="43.5347" lon="6.63943">
        <ele>556.7</ele>
        <time>2024-12-29T11:05:16.000Z</time>
      </trkpt>
      <trkpt lat="43.53473" lon="6.63936">
        <ele>555.9</ele>
        <time>2024-12-29T11:05:22Z</time>
      </trkpt>
      <trkpt lat="43.53477" lon="6.63931">
        <ele>554.5</ele>
        <time>2024-12-29T11:05:27.500Z</time>
      </trkpt>
      <trkpt lat="43.5348" lon="6.63925">
        <ele>553.6</ele>
        <time>2024-12-29T11:05:33Z</time>
      </trkpt>
      <trkpt lat="43.53485" lon="6.63919">
        <ele>552.6</ele>
        <time>2024-12-29T11:05:38.500Z</time>
      </trkpt>
      <trkpt lat="43.5349" lon="6.63913">
        <ele>552</ele>
        <time>2024-12-29T11:05:44Z</time>
      </trkpt>
      <trkpt lat="43.53493" lon="6.63906">
        <ele>551.8</ele>
        <time>2024-12-29T11:05:49.500Z</time>
      </trkpt>
      <trkpt lat="43.53496" lon="6.639">
        <ele>551.7</ele>
        <time>2024-12-29T11:05:55Z</time>
      </trkpt>
      <trkpt lat="43.53499" lon="6.63894">
        <ele>551.8</ele>
        <time>2024-12-29T11:06:01.000Z</time>
      </trkpt>
      <trkpt lat="43.53503" lon="6.63887">
        <ele>550.9</ele>
        <time>2024-12-29T11:06:07Z</time>
      </trkpt>
      <trkpt lat="43.53505" lon="6.6388">
        <ele>549.7</ele>
        <time>2024-12-29T11:06:12.500Z</time>
      </trkpt>
      <trkpt lat="43.53507" lon="6.63872">
        <ele>548.7</ele>
        <time>2024-12-29T11:06:18Z</time>
      </trkpt>
      <trkpt lat="43.53511" lon="6.63867">
        <ele>547.6</ele>
        <time>2024-12-29T11:06:24.000Z</time>
      </trkpt>
      <trkpt lat="43.53515" lon="6.63863">
        <ele>546.9</ele>
        <time>2024-12-29T11:06:30Z</time>
      </trkpt>
      <trkpt lat="43.53522" lon="6.63859">
        <ele>545.9</ele>
        <time>2024-12-29T11:06:51Z</time>
      </trkpt>
      <trkpt lat="43.53524" lon="6.63852">
        <ele>545.9</ele>
        <time>2024-12-29T11:06:57.500Z</time>
      </trkpt>
      <trkpt lat="43.53526" lon="6.63846">
        <ele>546.1</ele>
        <time>2024-12-29T11:07:04Z</time>
      </trkpt>
      <trkpt lat="43.53528" lon="6.63838">
        <ele>546.6</ele>
        <time>2024-12-29T11:07:10.000Z</time>
      </trkpt>
      <trkpt lat="43.5353" lon="6.63831">
        <ele>546.5</ele>
        <time>2024-12-29T11:07:16Z</time>
      </trkpt>
      <trkpt lat="43.53531" lon="6.63823">
        <ele>546.3</ele>
        <time>2024-12-29T11:07:23.500Z</time>
      </trkpt>
      <trkpt lat="43.53533" lon="6.63815">
        <ele>546.1</ele>
        <time>2024-12-29T11:07:31Z</time>
      </trkpt>
      <trkpt lat="43.53535" lon="6.63805">
        <ele>546</ele>
        <time>2024-12-29T11:07:37.500Z</time>
      </trkpt>
      <trkpt lat="43.53537" lon="6.63795">
        <ele>546.6</ele>
        <time>2024-12-29T11:07:44Z</time>
      </trkpt>
      <trkpt lat="43.53537" lon="6.63787">
        <ele>547.2</ele>
        <time>2024-12-29T11:07:50.500Z</time>
      </trkpt>
      <trkpt lat="43.53537" lon="6.63778">
        <ele>548</ele>
        <time>2024-12-29T11:07:57Z</time>
      </trkpt>
      <trkpt lat="43.53538" lon="6.6377">
        <ele>548.8</ele>
        <time>2024-12-29T11:08:04.000Z</time>
      </trkpt>
      <trkpt lat="43.53539" lon="6.63761">
        <ele>549.7</ele>
        <time>2024-12-29T11:08:11Z</time>
      </trkpt>
      <trkpt lat="43.53541" lon="6.63752">
        <ele>550.8</ele>
        <time>2024-12-29T11:08:18.500Z</time>
      </trkpt>
      <trkpt lat="43.53543" lon="6.63743">
        <ele>551.8</ele>
        <time>2024-12-29T11:08:26Z</time>
      </trkpt>
      <trkpt lat="43.53544" lon="6.63735">
        <ele>552.7</ele>
        <time>2024-12-29T11:08:32.500Z</time>
      </trkpt>
      <trkpt lat="43.53545" lon="6.63728">
        <ele>553.6</ele>
        <time>2024-12-29T11:08:39Z</time>
      </trkpt>
      <trkpt lat="43.53546" lon="6.63722">
        <ele>554.3</ele>
        <time>2024-12-29T11:08:45.500Z</time>
      </trkpt>
      <trkpt lat="43.53548" lon="6.63715">
        <ele>554.8</ele>
        <time>2024-12-29T11:08:52Z</time>
      </trkpt>
      <trkpt lat="43.53549" lon="6.63707">
        <ele>555.4</ele>
        <time>2024-12-29T11:08:57.500Z</time>
      </trkpt>
      <trkpt lat="43.5355" lon="6.637">
        <ele>555.9</ele>
        <time>2024-12-29T11:09:03Z</time>
      </trkpt>
      <trkpt lat="43.53552" lon="6.6369">
        <ele>556.5</ele>
        <time>2024-12-29T11:09:09.000Z</time>
      </trkpt>
      <trkpt lat="43.53554" lon="6.63681">
        <ele>556.8</ele>
        <time>2024-12-29T11:09:15Z</time>
      </trkpt>
      <trkpt lat="43.53557" lon="6.63673">
        <ele>556.6</ele>
        <time>2024-12-29T11:09:21.000Z</time>
      </trkpt>
      <trkpt lat="43.53559" lon="6.63666">
        <ele>556.2</ele>
        <time>2024-12-29T11:09:27Z</time>
      </trkpt>
      <trkpt lat="43.53561" lon="6.6366">
        <ele>555.8</ele>
        <time>2024-12-29T11:09:33.000Z</time>
      </trkpt>
      <trkpt lat="43.53563" lon="6.63654">
        <ele>555.5</ele>
        <time>2024-12-29T11:09:39Z</time>
      </trkpt>
      <trkpt lat="43.53566" lon="6.63647">
        <ele>555.4</ele>
        <time>2024-12-29T11:09:48.000Z</time>
      </trkpt>
      <trkpt lat="43.53568" lon="6.63639">
        <ele>555.5</ele>
        <time>2024-12-29T11:09:57Z</time>
      </trkpt>
      <trkpt lat="43.53571" lon="6.63633">
        <ele>555</ele>
        <time>2024-12-29T11:10:03.000Z</time>
      </trkpt>
      <trkpt lat="43.53574" lon="6.63627">
        <ele>554.6</ele>
        <time>2024-12-29T11:10:09Z</time>
      </trkpt>
      <trkpt lat="43.53578" lon="6.63622">
        <ele>554.4</ele>
        <time>2024-12-29T11:10:15.000Z</time>
      </trkpt>
      <trkpt lat="43.53582" lon="6.63616">
        <ele>554.1</ele>
        <time>2024-12-29T11:10:21Z</time>
      </trkpt>
      <trkpt lat="43.53585" lon="6.63611">
        <ele>553.4</ele>
        <time>2024-12-29T11:10:29.000Z</time>
      </trkpt>
      <trkpt lat="43.53589" lon="6.63605">
        <ele>551.7</ele>
        <time>2024-12-29T11:10:37Z</time>
      </trkpt>
      <trkpt lat="43.53592" lon="6.63599">
        <ele>550.7</ele>
        <time>2024-12-29T11:10:42.500Z</time>
      </trkpt>
      <trkpt lat="43.53596" lon="6.63592">
        <ele>549.6</ele>
        <time>2024-12-29T11:10:48Z</time>
      </trkpt>
      <trkpt lat="43.53598" lon="6.63586">
        <ele>549.3</ele>
        <time>2024-12-29T11:10:53.500Z</time>
      </trkpt>
      <trkpt lat="43.53601" lon="6.63581">
        <ele>548.9</ele>
        <time>2024-12-29T11:10:59Z</time>
      </trkpt>
      <trkpt lat="43.53604" lon="6.63575">
        <ele>548.7</ele>
        <time>2024-12-29T11:11:04.500Z</time>
      </trkpt>
      <trkpt lat="43.53606" lon="6.63569">
        <ele>548.9</ele>
        <time>2024-12-29T11:11:10Z</time>
      </trkpt>
      <trkpt lat="43.53609" lon="6.63563">
        <ele>549.2</ele>
        <time>2024-12-29T11:11:16.000Z</time>
      </trkpt>
      <trkpt lat="43.53611" lon="6.63556">
        <ele>549.9</ele>
        <time>2024-12-29T11:11:22Z</time>
      </trkpt>
      <trkpt lat="43.53618" lon="6.63549">
        <ele>547.9</ele>
        <time>2024-12-29T11:11:35Z</time>
      </trkpt>
      <trkpt lat="43.5362" lon="6.63542">
        <ele>548.1</ele>
        <time>2024-12-29T11:11:42.500Z</time>
      </trkpt>
      <trkpt lat="43.53621" lon="6.63536">
        <ele>548.5</ele>
        <time>2024-12-29T11:11:50Z</time>
      </trkpt>
      <trkpt lat="43.53623" lon="6.63529">
        <ele>549.1</ele>
        <time>2024-12-29T11:11:59.000Z</time>
      </trkpt>
      <trkpt lat="43.53625" lon="6.63522">
        <ele>549.5</ele>
        <time>2024-12-29T11:12:08Z</time>
      </trkpt>
      <trkpt lat="43.53627" lon="6.63515">
        <ele>550.1</ele>
        <time>2024-12-29T11:12:14.500Z</time>
      </trkpt>
      <trkpt lat="43.53629" lon="6.63508">
        <ele>550.9</ele>
        <time>2024-12-29T11:12:21Z</time>
      </trkpt>
      <trkpt lat="43.53632" lon="6.63503">
        <ele>551.8</ele>
        <time>2024-12-29T11:12:27.000Z</time>
      </trkpt>
      <trkpt lat="43.53635" lon="6.63498">
        <ele>552.4</ele>
        <time>2024-12-29T11:12:33Z</time>
      </trkpt>
      <trkpt lat="43.53637" lon="6.63508">
        <ele>551.2</ele>
        <time>2024-12-29T11:14:57Z</time>
      </trkpt>
      <trkpt lat="43.53639" lon="6.63513">
        <ele>550.1</ele>
        <time>2024-12-29T11:16:12Z</time>
      </trkpt>
      <trkpt lat="43.53639" lon="6.6351">
        <ele>550.8</ele>
        <time>2024-12-29T11:18:15Z</time>
      </trkpt>
      <trkpt lat="43.5364" lon="6.63512">
        <ele>549.8</ele>
        <time>2024-12-29T11:19:40Z</time>
      </trkpt>
      <trkpt lat="43.53641" lon="6.6351">
        <ele>549.7</ele>
        <time>2024-12-29T12:05:49Z</time>
      </trkpt>
      <trkpt lat="43.5364" lon="6.63505">
        <ele>551.4</ele>
        <time>2024-12-29T12:05:50.315Z</time>
      </trkpt>
      <trkpt lat="43.53638" lon="6.63502">
        <ele>552.5</ele>
        <time>2024-12-29T12:05:51.668Z</time>
      </trkpt>
      <trkpt lat="43.53639" lon="6.63496">
        <ele>552.7</ele>
        <time>2024-12-29T12:05:53.361Z</time>
      </trkpt>
      <trkpt lat="43.53641" lon="6.63485">
        <ele>551.2</ele>
        <time>2024-12-29T12:05:56.501Z</time>
      </trkpt>
      <trkpt lat="43.53645" lon="6.63477">
        <ele>549.8</ele>
        <time>2024-12-29T12:05:59.401Z</time>
      </trkpt>
      <trkpt lat="43.53648" lon="6.6347">
        <ele>548.9</ele>
        <time>2024-12-29T12:06:01.836Z</time>
      </trkpt>
      <trkpt lat="43.5365" lon="6.63463">
        <ele>548.1</ele>
        <time>2024-12-29T12:06:03.948Z</time>
      </trkpt>
      <trkpt lat="43.53658" lon="6.63459">
        <ele>546.8</ele>
        <time>2024-12-29T12:06:07.066Z</time>
      </trkpt>
      <trkpt lat="43.53662" lon="6.63454">
        <ele>546.2</ele>
        <time>2024-12-29T12:06:09.257Z</time>
      </trkpt>
      <trkpt lat="43.53668" lon="6.63445">
        <ele>545.4</ele>
        <time>2024-12-29T12:06:12.752Z</time>
      </trkpt>
      <trkpt lat="43.53672" lon="6.63441">
        <ele>543.8</ele>
        <time>2024-12-29T12:06:14.499Z</time>
      </trkpt>
      <trkpt lat="43.53675" lon="6.63437">
        <ele>542.3</ele>
        <time>2024-12-29T12:06:16.247Z</time>
      </trkpt>
      <trkpt lat="43.53679" lon="6.63432">
        <ele>540.8</ele>
        <time>2024-12-29T12:06:18.563Z</time>
      </trkpt>
      <trkpt lat="43.53684" lon="6.63427">
        <ele>539.2</ele>
        <time>2024-12-29T12:06:20.880Z</time>
      </trkpt>
      <trkpt lat="43.53689" lon="6.63418">
        <ele>538.1</ele>
        <time>2024-12-29T12:06:24.135Z</time>
      </trkpt>
      <trkpt lat="43.53694" lon="6.63408">
        <ele>536.5</ele>
        <time>2024-12-29T12:06:27.656Z</time>
      </trkpt>
      <trkpt lat="43.53698" lon="6.63402">
        <ele>534.6</ele>
        <time>2024-12-29T12:06:29.925Z</time>
      </trkpt>
      <trkpt lat="43.53703" lon="6.63394">
        <ele>532.6</ele>
        <time>2024-12-29T12:06:32.901Z</time>
      </trkpt>
      <trkpt lat="43.53707" lon="6.63388">
        <ele>531.3</ele>
        <time>2024-12-29T12:06:35.114Z</time>
      </trkpt>
      <trkpt lat="43.53711" lon="6.63383">
        <ele>530.1</ele>
        <time>2024-12-29T12:06:37.328Z</time>
      </trkpt>
      <trkpt lat="43.53717" lon="6.63378">
        <ele>528.6</ele>
        <time>2024-12-29T12:06:40Z</time>
      </trkpt>
      <trkpt lat="43.53721" lon="6.63373">
        <ele>527.8</ele>
        <time>2024-12-29T12:06:47.500Z</time>
      </trkpt>
      <trkpt lat="43.53725" lon="6.63367">
        <ele>526.8</ele>
        <time>2024-12-29T12:06:55Z</time>
      </trkpt>
      <trkpt lat="43.53729" lon="6.6336">
        <ele>525.7</ele>
        <time>2024-12-29T12:07:02.500Z</time>
      </trkpt>
      <trkpt lat="43.53733" lon="6.63353">
        <ele>524.2</ele>
        <time>2024-12-29T12:07:10Z</time>
      </trkpt>
      <trkpt lat="43.53732" lon="6.63344">
        <ele>524.1</ele>
        <time>2024-12-29T12:07:17.999Z</time>
      </trkpt>
      <trkpt lat="43.53731" lon="6.63336">
        <ele>523.9</ele>
        <time>2024-12-29T12:07:26Z</time>
      </trkpt>
      <trkpt lat="43.53729" lon="6.63329">
        <ele>523.6</ele>
        <time>2024-12-29T12:07:32.999Z</time>
      </trkpt>
      <trkpt lat="43.53728" lon="6.63323">
        <ele>523</ele>
        <time>2024-12-29T12:07:40Z</time>
      </trkpt>
      <trkpt lat="43.5373" lon="6.63314">
        <ele>521.9</ele>
        <time>2024-12-29T12:08:15.462Z</time>
      </trkpt>
      <trkpt lat="43.53734" lon="6.6331">
        <ele>521.4</ele>
        <time>2024-12-29T12:08:40.231Z</time>
      </trkpt>
      <trkpt lat="43.53737" lon="6.63305">
        <ele>520.9</ele>
        <time>2024-12-29T12:09:05Z</time>
      </trkpt>
      <trkpt lat="43.53742" lon="6.63303">
        <ele>520.7</ele>
        <time>2024-12-29T12:09:11.500Z</time>
      </trkpt>
      <trkpt lat="43.53746" lon="6.63301">
        <ele>520.5</ele>
        <time>2024-12-29T12:09:18Z</time>
      </trkpt>
      <trkpt lat="43.53751" lon="6.63298">
        <ele>520</ele>
        <time>2024-12-29T12:09:24.000Z</time>
      </trkpt>
      <trkpt lat="43.53756" lon="6.63294">
        <ele>519</ele>
        <time>2024-12-29T12:09:30Z</time>
      </trkpt>
      <trkpt lat="43.53763" lon="6.63287">
        <ele>517.9</ele>
        <time>2024-12-29T12:09:41Z</time>
      </trkpt>
      <trkpt lat="43.53766" lon="6.6328">
        <ele>517.5</ele>
        <time>2024-12-29T12:09:48.750Z</time>
      </trkpt>
      <trkpt lat="43.53769" lon="6.63273">
        <ele>516.7</ele>
        <time>2024-12-29T12:09:56.500Z</time>
      </trkpt>
      <trkpt lat="43.53772" lon="6.63266">
        <ele>515.8</ele>
        <time>2024-12-29T12:10:04.250Z</time>
      </trkpt>
      <trkpt lat="43.53775" lon="6.63259">
        <ele>515</ele>
        <time>2024-12-29T12:10:12Z</time>
      </trkpt>
      <trkpt lat="43.53777" lon="6.63253">
        <ele>514.3</ele>
        <time>2024-12-29T12:10:17.000Z</time>
      </trkpt>
      <trkpt lat="43.5378" lon="6.63248">
        <ele>513.7</ele>
        <time>2024-12-29T12:10:22Z</time>
      </trkpt>
      <trkpt lat="43.53784" lon="6.63237">
        <ele>512.5</ele>
        <time>2024-12-29T12:10:31Z</time>
      </trkpt>
      <trkpt lat="43.53788" lon="6.63226">
        <ele>511.4</ele>
        <time>2024-12-29T12:10:40Z</time>
      </trkpt>
      <trkpt lat="43.53789" lon="6.6322">
        <ele>510.8</ele>
        <time>2024-12-29T12:10:45.000Z</time>
      </trkpt>
      <trkpt lat="43.53791" lon="6.63214">
        <ele>510.4</ele>
        <time>2024-12-29T12:10:50Z</time>
      </trkpt>
      <trkpt lat="43.53793" lon="6.63207">
        <ele>510</ele>
        <time>2024-12-29T12:10:55.000Z</time>
      </trkpt>
      <trkpt lat="43.53795" lon="6.63201">
        <ele>509.7</ele>
        <time>2024-12-29T12:11:00Z</time>
      </trkpt>
      <trkpt lat="43.53797" lon="6.63195">
        <ele>509.4</ele>
        <time>2024-12-29T12:11:05.000Z</time>
      </trkpt>
      <trkpt lat="43.538" lon="6.63188">
        <ele>509.5</ele>
        <time>2024-12-29T12:11:10Z</time>
      </trkpt>
      <trkpt lat="43.53801" lon="6.63182">
        <ele>509.5</ele>
        <time>2024-12-29T12:11:15.500Z</time>
      </trkpt>
      <trkpt lat="43.53802" lon="6.63176">
        <ele>509.5</ele>
        <time>2024-12-29T12:11:21Z</time>
      </trkpt>
      <trkpt lat="43.53802" lon="6.6317">
        <ele>509.4</ele>
        <time>2024-12-29T12:11:25.500Z</time>
      </trkpt>
      <trkpt lat="43.53802" lon="6.63164">
        <ele>509.2</ele>
        <time>2024-12-29T12:11:30Z</time>
      </trkpt>
      <trkpt lat="43.538" lon="6.63157">
        <ele>508.4</ele>
        <time>2024-12-29T12:11:34.999Z</time>
      </trkpt>
      <trkpt lat="43.53799" lon="6.63151">
        <ele>507.8</ele>
        <time>2024-12-29T12:11:40Z</time>
      </trkpt>
      <trkpt lat="43.53799" lon="6.63143">
        <ele>507.3</ele>
        <time>2024-12-29T12:11:45.000Z</time>
      </trkpt>
      <trkpt lat="43.53799" lon="6.63136">
        <ele>507</ele>
        <time>2024-12-29T12:11:50Z</time>
      </trkpt>
      <trkpt lat="43.53798" lon="6.63128">
        <ele>506.5</ele>
        <time>2024-12-29T12:11:54.999Z</time>
      </trkpt>
      <trkpt lat="43.53798" lon="6.6312">
        <ele>506.2</ele>
        <time>2024-12-29T12:12:00Z</time>
      </trkpt>
      <trkpt lat="43.53798" lon="6.63113">
        <ele>506</ele>
        <time>2024-12-29T12:12:04.500Z</time>
      </trkpt>
      <trkpt lat="43.53799" lon="6.63106">
        <ele>505.9</ele>
        <time>2024-12-29T12:12:09Z</time>
      </trkpt>
      <trkpt lat="43.538" lon="6.63099">
        <ele>505.8</ele>
        <time>2024-12-29T12:12:13.500Z</time>
      </trkpt>
      <trkpt lat="43.53801" lon="6.63092">
        <ele>505.7</ele>
        <time>2024-12-29T12:12:18Z</time>
      </trkpt>
      <trkpt lat="43.53802" lon="6.63086">
        <ele>505.6</ele>
        <time>2024-12-29T12:12:22.500Z</time>
      </trkpt>
      <trkpt lat="43.53803" lon="6.63079">
        <ele>505.5</ele>
        <time>2024-12-29T12:12:27Z</time>
      </trkpt>
      <trkpt lat="43.53804" lon="6.63072">
        <ele>505.4</ele>
        <time>2024-12-29T12:12:32.000Z</time>
      </trkpt>
      <trkpt lat="43.53805" lon="6.63066">
        <ele>505.3</ele>
        <time>2024-12-29T12:12:37Z</time>
      </trkpt>
      <trkpt lat="43.53806" lon="6.63059">
        <ele>505.2</ele>
        <time>2024-12-29T12:12:42.000Z</time>
      </trkpt>
      <trkpt lat="43.53808" lon="6.63053">
        <ele>505.3</ele>
        <time>2024-12-29T12:12:47Z</time>
      </trkpt>
      <trkpt lat="43.53809" lon="6.63047">
        <ele>505.1</ele>
        <time>2024-12-29T12:12:51.500Z</time>
      </trkpt>
      <trkpt lat="43.53809" lon="6.6304">
        <ele>505</ele>
        <time>2024-12-29T12:12:56Z</time>
      </trkpt>
      <trkpt lat="43.53809" lon="6.63034">
        <ele>504.8</ele>
        <time>2024-12-29T12:13:01.000Z</time>
      </trkpt>
      <trkpt lat="43.53808" lon="6.63027">
        <ele>504.4</ele>
        <time>2024-12-29T12:13:06Z</time>
      </trkpt>
      <trkpt lat="43.53808" lon="6.63015">
        <ele>504</ele>
        <time>2024-12-29T12:13:15Z</time>
      </trkpt>
      <trkpt lat="43.53807" lon="6.63008">
        <ele>503.6</ele>
        <time>2024-12-29T12:13:58.999Z</time>
      </trkpt>
      <trkpt lat="43.53807" lon="6.63001">
        <ele>503.3</ele>
        <time>2024-12-29T12:14:43Z</time>
      </trkpt>
      <trkpt lat="43.53803" lon="6.6299">
        <ele>501.7</ele>
        <time>2024-12-29T12:15:55Z</time>
      </trkpt>
      <trkpt lat="43.53802" lon="6.62983">
        <ele>500.9</ele>
        <time>2024-12-29T12:16:01.499Z</time>
      </trkpt>
      <trkpt lat="43.538" lon="6.62977">
        <ele>500</ele>
        <time>2024-12-29T12:16:08Z</time>
      </trkpt>
      <trkpt lat="43.53798" lon="6.6297">
        <ele>499.1</ele>
        <time>2024-12-29T12:16:13.999Z</time>
      </trkpt>
      <trkpt lat="43.53797" lon="6.62964">
        <ele>498.8</ele>
        <time>2024-12-29T12:16:20Z</time>
      </trkpt>
      <trkpt lat="43.53795" lon="6.62958">
        <ele>498.1</ele>
        <time>2024-12-29T12:16:25.499Z</time>
      </trkpt>
      <trkpt lat="43.53793" lon="6.62952">
        <ele>497.5</ele>
        <time>2024-12-29T12:16:31Z</time>
      </trkpt>
      <trkpt lat="43.53791" lon="6.62945">
        <ele>496.8</ele>
        <time>2024-12-29T12:16:35.999Z</time>
      </trkpt>
      <trkpt lat="43.53789" lon="6.62939">
        <ele>496.2</ele>
        <time>2024-12-29T12:16:41Z</time>
      </trkpt>
      <trkpt lat="43.53788" lon="6.62932">
        <ele>495.9</ele>
        <time>2024-12-29T12:16:45.499Z</time>
      </trkpt>
      <trkpt lat="43.53786" lon="6.62926">
        <ele>495.4</ele>
        <time>2024-12-29T12:16:50Z</time>
      </trkpt>
      <trkpt lat="43.53784" lon="6.6292">
        <ele>494.8</ele>
        <time>2024-12-29T12:16:55.499Z</time>
      </trkpt>
      <trkpt lat="43.53783" lon="6.62914">
        <ele>494.4</ele>
        <time>2024-12-29T12:17:01Z</time>
      </trkpt>
      <trkpt lat="43.53781" lon="6.62905">
        <ele>493.5</ele>
        <time>2024-12-29T12:17:18Z</time>
      </trkpt>
      <trkpt lat="43.53782" lon="6.62899">
        <ele>493.6</ele>
        <time>2024-12-29T12:17:25.500Z</time>
      </trkpt>
      <trkpt lat="43.53783" lon="6.62892">
        <ele>493.6</ele>
        <time>2024-12-29T12:17:33Z</time>
      </trkpt>
      <trkpt lat="43.53783" lon="6.62886">
        <ele>493.4</ele>
        <time>2024-12-29T12:17:37.000Z</time>
      </trkpt>
      <trkpt lat="43.53783" lon="6.62879">
        <ele>493.2</ele>
        <time>2024-12-29T12:17:41Z</time>
      </trkpt>
      <trkpt lat="43.53783" lon="6.62873">
        <ele>493</ele>
        <time>2024-12-29T12:17:45.000Z</time>
      </trkpt>
      <trkpt lat="43.53784" lon="6.62866">
        <ele>493.2</ele>
        <time>2024-12-29T12:17:49Z</time>
      </trkpt>
      <trkpt lat="43.53784" lon="6.62859">
        <ele>493</ele>
        <time>2024-12-29T12:17:53.000Z</time>
      </trkpt>
      <trkpt lat="43.53784" lon="6.62853">
        <ele>493</ele>
        <time>2024-12-29T12:17:57Z</time>
      </trkpt>
      <trkpt lat="43.53785" lon="6.62847">
        <ele>493.2</ele>
        <time>2024-12-29T12:18:01.000Z</time>
      </trkpt>
      <trkpt lat="43.53785" lon="6.6284">
        <ele>493.1</ele>
        <time>2024-12-29T12:18:05Z</time>
      </trkpt>
      <trkpt lat="43.53787" lon="6.62829">
        <ele>493.5</ele>
        <time>2024-12-29T12:18:13Z</time>
      </trkpt>
      <trkpt lat="43.53788" lon="6.62822">
        <ele>493.5</ele>
        <time>2024-12-29T12:18:17.000Z</time>
      </trkpt>
      <trkpt lat="43.53789" lon="6.62815">
        <ele>493.6</ele>
        <time>2024-12-29T12:18:21Z</time>
      </trkpt>
      <trkpt lat="43.53789" lon="6.62808">
        <ele>493.3</ele>
        <time>2024-12-29T12:18:25.500Z</time>
      </trkpt>
      <trkpt lat="43.5379" lon="6.62802">
        <ele>493.5</ele>
        <time>2024-12-29T12:18:30Z</time>
      </trkpt>
      <trkpt lat="43.5379" lon="6.62794">
        <ele>493.6</ele>
        <time>2024-12-29T12:18:34.500Z</time>
      </trkpt>
      <trkpt lat="43.53791" lon="6.62787">
        <ele>493.8</ele>
        <time>2024-12-29T12:18:39Z</time>
      </trkpt>
      <trkpt lat="43.53792" lon="6.62779">
        <ele>494.1</ele>
        <time>2024-12-29T12:18:43.500Z</time>
      </trkpt>
      <trkpt lat="43.53793" lon="6.62772">
        <ele>494.2</ele>
        <time>2024-12-29T12:18:48Z</time>
      </trkpt>
      <trkpt lat="43.53794" lon="6.62766">
        <ele>494.3</ele>
        <time>2024-12-29T12:18:52.000Z</time>
      </trkpt>
      <trkpt lat="43.53795" lon="6.62759">
        <ele>494.3</ele>
        <time>2024-12-29T12:18:56Z</time>
      </trkpt>
      <trkpt lat="43.53797" lon="6.62753">
        <ele>494.5</ele>
        <time>2024-12-29T12:19:00.500Z</time>
      </trkpt>
      <trkpt lat="43.53798" lon="6.62747">
        <ele>494.6</ele>
        <time>2024-12-29T12:19:05Z</time>
      </trkpt>
      <trkpt lat="43.538" lon="6.6274">
        <ele>495</ele>
        <time>2024-12-29T12:19:09.500Z</time>
      </trkpt>
      <trkpt lat="43.53801" lon="6.62734">
        <ele>495.2</ele>
        <time>2024-12-29T12:19:14Z</time>
      </trkpt>
      <trkpt lat="43.53803" lon="6.62727">
        <ele>495.5</ele>
        <time>2024-12-29T12:19:19.500Z</time>
      </trkpt>
      <trkpt lat="43.53805" lon="6.62721">
        <ele>495.9</ele>
        <time>2024-12-29T12:19:25Z</time>
      </trkpt>
      <trkpt lat="43.53808" lon="6.62713">
        <ele>496.7</ele>
        <time>2024-12-29T12:19:31.000Z</time>
      </trkpt>
      <trkpt lat="43.53811" lon="6.62705">
        <ele>497.4</ele>
        <time>2024-12-29T12:19:37Z</time>
      </trkpt>
      <trkpt lat="43.53813" lon="6.62698">
        <ele>497.9</ele>
        <time>2024-12-29T12:19:43.500Z</time>
      </trkpt>
      <trkpt lat="43.53815" lon="6.62691">
        <ele>498.6</ele>
        <time>2024-12-29T12:19:50Z</time>
      </trkpt>
      <trkpt lat="43.53818" lon="6.62684">
        <ele>499.8</ele>
        <time>2024-12-29T12:19:57.500Z</time>
      </trkpt>
      <trkpt lat="43.53821" lon="6.62677">
        <ele>500.7</ele>
        <time>2024-12-29T12:20:05Z</time>
      </trkpt>
      <trkpt lat="43.53822" lon="6.6267">
        <ele>501.2</ele>
        <time>2024-12-29T12:20:11.000Z</time>
      </trkpt>
      <trkpt lat="43.53824" lon="6.62662">
        <ele>501.7</ele>
        <time>2024-12-29T12:20:17Z</time>
      </trkpt>
      <trkpt lat="43.53826" lon="6.62655">
        <ele>502.1</ele>
        <time>2024-12-29T12:20:23.000Z</time>
      </trkpt>
      <trkpt lat="43.53827" lon="6.62647">
        <ele>502.2</ele>
        <time>2024-12-29T12:20:29Z</time>
      </trkpt>
      <trkpt lat="43.5383" lon="6.6264">
        <ele>502.6</ele>
        <time>2024-12-29T12:20:34.500Z</time>
      </trkpt>
      <trkpt lat="43.53832" lon="6.62633">
        <ele>502.7</ele>
        <time>2024-12-29T12:20:40Z</time>
      </trkpt>
      <trkpt lat="43.53833" lon="6.62625">
        <ele>502.5</ele>
        <time>2024-12-29T12:20:45.000Z</time>
      </trkpt>
      <trkpt lat="43.53835" lon="6.62618">
        <ele>502.5</ele>
        <time>2024-12-29T12:20:50Z</time>
      </trkpt>
      <trkpt lat="43.53835" lon="6.62611">
        <ele>502.2</ele>
        <time>2024-12-29T12:20:54.500Z</time>
      </trkpt>
      <trkpt lat="43.53836" lon="6.62604">
        <ele>502.1</ele>
        <time>2024-12-29T12:20:59Z</time>
      </trkpt>
      <trkpt lat="43.53836" lon="6.62597">
        <ele>501.8</ele>
        <time>2024-12-29T12:21:03.000Z</time>
      </trkpt>
      <trkpt lat="43.53837" lon="6.62591">
        <ele>501.6</ele>
        <time>2024-12-29T12:21:07Z</time>
      </trkpt>
      <trkpt lat="43.53837" lon="6.62584">
        <ele>501.3</ele>
        <time>2024-12-29T12:21:11.500Z</time>
      </trkpt>
      <trkpt lat="43.53838" lon="6.62578">
        <ele>501</ele>
        <time>2024-12-29T12:21:16Z</time>
      </trkpt>
      <trkpt lat="43.53839" lon="6.62566">
        <ele>500.2</ele>
        <time>2024-12-29T12:21:24Z</time>
      </trkpt>
      <trkpt lat="43.53839" lon="6.62559">
        <ele>499.7</ele>
        <time>2024-12-29T12:21:28.500Z</time>
      </trkpt>
      <trkpt lat="43.53839" lon="6.62553">
        <ele>499.3</ele>
        <time>2024-12-29T12:21:33Z</time>
      </trkpt>
      <trkpt lat="43.53839" lon="6.62546">
        <ele>499</ele>
        <time>2024-12-29T12:21:37.500Z</time>
      </trkpt>
      <trkpt lat="43.53838" lon="6.62538">
        <ele>498.6</ele>
        <time>2024-12-29T12:21:42Z</time>
      </trkpt>
      <trkpt lat="43.53838" lon="6.62532">
        <ele>498.3</ele>
        <time>2024-12-29T12:21:46.499Z</time>
      </trkpt>
      <trkpt lat="43.53838" lon="6.62525">
        <ele>498</ele>
        <time>2024-12-29T12:21:51Z</time>
      </trkpt>
      <trkpt lat="43.53837" lon="6.62519">
        <ele>497.5</ele>
        <time>2024-12-29T12:21:54.999Z</time>
      </trkpt>
      <trkpt lat="43.53836" lon="6.62512">
        <ele>497</ele>
        <time>2024-12-29T12:21:59Z</time>
      </trkpt>
      <trkpt lat="43.53836" lon="6.62506">
        <ele>496.5</ele>
        <time>2024-12-29T12:22:03.500Z</time>
      </trkpt>
      <trkpt lat="43.53836" lon="6.62499">
        <ele>496.1</ele>
        <time>2024-12-29T12:22:08Z</time>
      </trkpt>
      <trkpt lat="43.53835" lon="6.62492">
        <ele>495.7</ele>
        <time>2024-12-29T12:22:12.499Z</time>
      </trkpt>
      <trkpt lat="43.53835" lon="6.62485">
        <ele>495.5</ele>
        <time>2024-12-29T12:22:17Z</time>
      </trkpt>
      <trkpt lat="43.53835" lon="6.62478">
        <ele>495.2</ele>
        <time>2024-12-29T12:22:21.500Z</time>
      </trkpt>
      <trkpt lat="43.53836" lon="6.62472">
        <ele>494.9</ele>
        <time>2024-12-29T12:22:26Z</time>
      </trkpt>
      <trkpt lat="43.53837" lon="6.62465">
        <ele>494.1</ele>
        <time>2024-12-29T12:22:30.500Z</time>
      </trkpt>
      <trkpt lat="43.53838" lon="6.62459">
        <ele>493.5</ele>
        <time>2024-12-29T12:22:35Z</time>
      </trkpt>
      <trkpt lat="43.53839" lon="6.62453">
        <ele>492.9</ele>
        <time>2024-12-29T12:22:39.500Z</time>
      </trkpt>
      <trkpt lat="43.53841" lon="6.62447">
        <ele>492.3</ele>
        <time>2024-12-29T12:22:44Z</time>
      </trkpt>
      <trkpt lat="43.53842" lon="6.62441">
        <ele>491.9</ele>
        <time>2024-12-29T12:22:48.500Z</time>
      </trkpt>
      <trkpt lat="43.53844" lon="6.62435">
        <ele>491.7</ele>
        <time>2024-12-29T12:22:53Z</time>
      </trkpt>
      <trkpt lat="43.53846" lon="6.62429">
        <ele>491.4</ele>
        <time>2024-12-29T12:22:58.000Z</time>
      </trkpt>
      <trkpt lat="43.53848" lon="6.62423">
        <ele>491.2</ele>
        <time>2024-12-29T12:23:03Z</time>
      </trkpt>
      <trkpt lat="43.53851" lon="6.62417">
        <ele>491</ele>
        <time>2024-12-29T12:23:08.000Z</time>
      </trkpt>
      <trkpt lat="43.53853" lon="6.62411">
        <ele>490.6</ele>
        <time>2024-12-29T12:23:13Z</time>
      </trkpt>
      <trkpt lat="43.53855" lon="6.62404">
        <ele>490.1</ele>
        <time>2024-12-29T12:23:18.000Z</time>
      </trkpt>
      <trkpt lat="43.53857" lon="6.62398">
        <ele>489.7</ele>
        <time>2024-12-29T12:23:23Z</time>
      </trkpt>
      <trkpt lat="43.53859" lon="6.62392">
        <ele>489.2</ele>
        <time>2024-12-29T12:23:27.500Z</time>
      </trkpt>
      <trkpt lat="43.5386" lon="6.62386">
        <ele>488.8</ele>
        <time>2024-12-29T12:23:32Z</time>
      </trkpt>
      <trkpt lat="43.5386" lon="6.62379">
        <ele>488.3</ele>
        <time>2024-12-29T12:23:36.500Z</time>
      </trkpt>
      <trkpt lat="43.53861" lon="6.62372">
        <ele>487.8</ele>
        <time>2024-12-29T12:23:41Z</time>
      </trkpt>
      <trkpt lat="43.53862" lon="6.6236">
        <ele>487</ele>
        <time>2024-12-29T12:23:50Z</time>
      </trkpt>
      <trkpt lat="43.53862" lon="6.62353">
        <ele>486.3</ele>
        <time>2024-12-29T12:23:55.000Z</time>
      </trkpt>
      <trkpt lat="43.53863" lon="6.62346">
        <ele>485.7</ele>
        <time>2024-12-29T12:24:00Z</time>
      </trkpt>
      <trkpt lat="43.53863" lon="6.6234">
        <ele>485</ele>
        <time>2024-12-29T12:24:04.500Z</time>
      </trkpt>
      <trkpt lat="43.53863" lon="6.62333">
        <ele>484.3</ele>
        <time>2024-12-29T12:24:09Z</time>
      </trkpt>
      <trkpt lat="43.53863" lon="6.62326">
        <ele>484.1</ele>
        <time>2024-12-29T12:24:13.500Z</time>
      </trkpt>
      <trkpt lat="43.53864" lon="6.62318">
        <ele>484</ele>
        <time>2024-12-29T12:24:18Z</time>
      </trkpt>
      <trkpt lat="43.53864" lon="6.62311">
        <ele>483.7</ele>
        <time>2024-12-29T12:24:22.500Z</time>
      </trkpt>
      <trkpt lat="43.53864" lon="6.62304">
        <ele>483.4</ele>
        <time>2024-12-29T12:24:27Z</time>
      </trkpt>
      <trkpt lat="43.53864" lon="6.62297">
        <ele>482.7</ele>
        <time>2024-12-29T12:24:31.500Z</time>
      </trkpt>
      <trkpt lat="43.53864" lon="6.62289">
        <ele>481.9</ele>
        <time>2024-12-29T12:24:36Z</time>
      </trkpt>
      <trkpt lat="43.53866" lon="6.62277">
        <ele>481.2</ele>
        <time>2024-12-29T12:24:44Z</time>
      </trkpt>
      <trkpt lat="43.53868" lon="6.62271">
        <ele>481.2</ele>
        <time>2024-12-29T12:25:50Z</time>
      </trkpt>
      <trkpt lat="43.53868" lon="6.62265">
        <ele>480.8</ele>
        <time>2024-12-29T12:25:58.000Z</time>
      </trkpt>
      <trkpt lat="43.53868" lon="6.62258">
        <ele>480.3</ele>
        <time>2024-12-29T12:26:06Z</time>
      </trkpt>
      <trkpt lat="43.53868" lon="6.62251">
        <ele>479.8</ele>
        <time>2024-12-29T12:26:11.499Z</time>
      </trkpt>
      <trkpt lat="43.53868" lon="6.62243">
        <ele>479</ele>
        <time>2024-12-29T12:26:17Z</time>
      </trkpt>
      <trkpt lat="43.53868" lon="6.62236">
        <ele>478.3</ele>
        <time>2024-12-29T12:26:21.500Z</time>
      </trkpt>
      <trkpt lat="43.53868" lon="6.62229">
        <ele>477.7</ele>
        <time>2024-12-29T12:26:26Z</time>
      </trkpt>
      <trkpt lat="43.53869" lon="6.62223">
        <ele>477.3</ele>
        <time>2024-12-29T12:26:30.500Z</time>
      </trkpt>
      <trkpt lat="43.53869" lon="6.62216">
        <ele>476.8</ele>
        <time>2024-12-29T12:26:35Z</time>
      </trkpt>
      <trkpt lat="43.5387" lon="6.62209">
        <ele>476.5</ele>
        <time>2024-12-29T12:26:39.000Z</time>
      </trkpt>
      <trkpt lat="43.5387" lon="6.62203">
        <ele>476</ele>
        <time>2024-12-29T12:26:43Z</time>
      </trkpt>
      <trkpt lat="43.53872" lon="6.62197">
        <ele>476</ele>
        <time>2024-12-29T12:26:47.000Z</time>
      </trkpt>
      <trkpt lat="43.53873" lon="6.6219">
        <ele>475.6</ele>
        <time>2024-12-29T12:26:51Z</time>
      </trkpt>
      <trkpt lat="43.53876" lon="6.62185">
        <ele>475.9</ele>
        <time>2024-12-29T12:26:55.500Z</time>
      </trkpt>
      <trkpt lat="43.53878" lon="6.62179">
        <ele>475.9</ele>
        <time>2024-12-29T12:27:00Z</time>
      </trkpt>
      <trkpt lat="43.5388" lon="6.62173">
        <ele>476</ele>
        <time>2024-12-29T12:27:04.500Z</time>
      </trkpt>
      <trkpt lat="43.53882" lon="6.62167">
        <ele>476</ele>
        <time>2024-12-29T12:27:09Z</time>
      </trkpt>
      <trkpt lat="43.53884" lon="6.6216">
        <ele>475.8</ele>
        <time>2024-12-29T12:27:13.000Z</time>
      </trkpt>
      <trkpt lat="43.53885" lon="6.62154">
        <ele>475.4</ele>
        <time>2024-12-29T12:27:17Z</time>
      </trkpt>
      <trkpt lat="43.53887" lon="6.62148">
        <ele>475.4</ele>
        <time>2024-12-29T12:27:21.500Z</time>
      </trkpt>
      <trkpt lat="43.53889" lon="6.62142">
        <ele>475.4</ele>
        <time>2024-12-29T12:27:26Z</time>
      </trkpt>
      <trkpt lat="43.53892" lon="6.62136">
        <ele>475.2</ele>
        <time>2024-12-29T12:27:30.500Z</time>
      </trkpt>
      <trkpt lat="43.53894" lon="6.62129">
        <ele>474.3</ele>
        <time>2024-12-29T12:27:35Z</time>
      </trkpt>
      <trkpt lat="43.53897" lon="6.62124">
        <ele>474.1</ele>
        <time>2024-12-29T12:27:39.000Z</time>
      </trkpt>
      <trkpt lat="43.53899" lon="6.62119">
        <ele>473.6</ele>
        <time>2024-12-29T12:27:43Z</time>
      </trkpt>
      <trkpt lat="43.53902" lon="6.62112">
        <ele>473</ele>
        <time>2024-12-29T12:27:47.500Z</time>
      </trkpt>
      <trkpt lat="43.53905" lon="6.62106">
        <ele>472.3</ele>
        <time>2024-12-29T12:27:52Z</time>
      </trkpt>
      <trkpt lat="43.5391" lon="6.62098">
        <ele>471.6</ele>
        <time>2024-12-29T12:28:00Z</time>
      </trkpt>
      <trkpt lat="43.53914" lon="6.62092">
        <ele>471.2</ele>
        <time>2024-12-29T12:28:04.500Z</time>
      </trkpt>
      <trkpt lat="43.53917" lon="6.62087">
        <ele>470.8</ele>
        <time>2024-12-29T12:28:09Z</time>
      </trkpt>
      <trkpt lat="43.5392" lon="6.62082">
        <ele>470</ele>
        <time>2024-12-29T12:28:13.500Z</time>
      </trkpt>
      <trkpt lat="43.53922" lon="6.62077">
        <ele>469.2</ele>
        <time>2024-12-29T12:28:18Z</time>
      </trkpt>
      <trkpt lat="43.53925" lon="6.62071">
        <ele>468.3</ele>
        <time>2024-12-29T12:28:22.500Z</time>
      </trkpt>
      <trkpt lat="43.53928" lon="6.62066">
        <ele>467.9</ele>
        <time>2024-12-29T12:28:27Z</time>
      </trkpt>
      <trkpt lat="43.5393" lon="6.6206">
        <ele>467.2</ele>
        <time>2024-12-29T12:28:31.500Z</time>
      </trkpt>
      <trkpt lat="43.53932" lon="6.62054">
        <ele>466.5</ele>
        <time>2024-12-29T12:28:36Z</time>
      </trkpt>
      <trkpt lat="43.53934" lon="6.62048">
        <ele>465.7</ele>
        <time>2024-12-29T12:28:40.500Z</time>
      </trkpt>
      <trkpt lat="43.53936" lon="6.62041">
        <ele>464.7</ele>
        <time>2024-12-29T12:28:45Z</time>
      </trkpt>
      <trkpt lat="43.53938" lon="6.62035">
        <ele>463.9</ele>
        <time>2024-12-29T12:28:49.000Z</time>
      </trkpt>
      <trkpt lat="43.53941" lon="6.62029">
        <ele>463.4</ele>
        <time>2024-12-29T12:28:53Z</time>
      </trkpt>
      <trkpt lat="43.53942" lon="6.62023">
        <ele>462.9</ele>
        <time>2024-12-29T12:28:57.000Z</time>
      </trkpt>
      <trkpt lat="43.53944" lon="6.62017">
        <ele>462.7</ele>
        <time>2024-12-29T12:29:01Z</time>
      </trkpt>
      <trkpt lat="43.53946" lon="6.62006">
        <ele>461.3</ele>
        <time>2024-12-29T12:29:11Z</time>
      </trkpt>
      <trkpt lat="43.53945" lon="6.62005">
        <ele>461.4</ele>
        <time>2024-12-29T12:30:09Z</time>
      </trkpt>
      <trkpt lat="43.53948" lon="6.61999">
        <ele>460.3</ele>
        <time>2024-12-29T12:30:18.500Z</time>
      </trkpt>
      <trkpt lat="43.53951" lon="6.61993">
        <ele>459.2</ele>
        <time>2024-12-29T12:30:28Z</time>
      </trkpt>
      <trkpt lat="43.53952" lon="6.61986">
        <ele>458.4</ele>
        <time>2024-12-29T12:30:34.000Z</time>
      </trkpt>
      <trkpt lat="43.53954" lon="6.61979">
        <ele>457.5</ele>
        <time>2024-12-29T12:30:40Z</time>
      </trkpt>
      <trkpt lat="43.53955" lon="6.61973">
        <ele>456.9</ele>
        <time>2024-12-29T12:30:45.500Z</time>
      </trkpt>
      <trkpt lat="43.53956" lon="6.61966">
        <ele>456.5</ele>
        <time>2024-12-29T12:30:51Z</time>
      </trkpt>
      <trkpt lat="43.53957" lon="6.61959">
        <ele>456.1</ele>
        <time>2024-12-29T12:30:56.500Z</time>
      </trkpt>
      <trkpt lat="43.53958" lon="6.61953">
        <ele>455.8</ele>
        <time>2024-12-29T12:31:02Z</time>
      </trkpt>
      <trkpt lat="43.5396" lon="6.61941">
        <ele>455.8</ele>
        <time>2024-12-29T12:31:13Z</time>
      </trkpt>
      <trkpt lat="43.5396" lon="6.61935">
        <ele>456.5</ele>
        <time>2024-12-29T12:31:18.500Z</time>
      </trkpt>
      <trkpt lat="43.5396" lon="6.61928">
        <ele>457.2</ele>
        <time>2024-12-29T12:31:24Z</time>
      </trkpt>
      <trkpt lat="43.5396" lon="6.61922">
        <ele>457.9</ele>
        <time>2024-12-29T12:31:29.500Z</time>
      </trkpt>
      <trkpt lat="43.53961" lon="6.61916">
        <ele>458.5</ele>
        <time>2024-12-29T12:31:35Z</time>
      </trkpt>
      <trkpt lat="43.53963" lon="6.6191">
        <ele>459.5</ele>
        <time>2024-12-29T12:31:41.500Z</time>
      </trkpt>
      <trkpt lat="43.53965" lon="6.61904">
        <ele>460.6</ele>
        <time>2024-12-29T12:31:48Z</time>
      </trkpt>
      <trkpt lat="43.53967" lon="6.61899">
        <ele>461.6</ele>
        <time>2024-12-29T12:31:54.500Z</time>
      </trkpt>
      <trkpt lat="43.5397" lon="6.61893">
        <ele>463</ele>
        <time>2024-12-29T12:32:01Z</time>
      </trkpt>
      <trkpt lat="43.53975" lon="6.61884">
        <ele>464.1</ele>
        <time>2024-12-29T12:32:16Z</time>
      </trkpt>
      <trkpt lat="43.53974" lon="6.61877">
        <ele>465.4</ele>
        <time>2024-12-29T12:32:25.999Z</time>
      </trkpt>
      <trkpt lat="43.53973" lon="6.61869">
        <ele>466.7</ele>
        <time>2024-12-29T12:32:36Z</time>
      </trkpt>
      <trkpt lat="43.53968" lon="6.61866">
        <ele>467.1</ele>
        <time>2024-12-29T12:32:42.499Z</time>
      </trkpt>
      <trkpt lat="43.53964" lon="6.61863">
        <ele>467.4</ele>
        <time>2024-12-29T12:32:49Z</time>
      </trkpt>
      <trkpt lat="43.53961" lon="6.61859">
        <ele>468</ele>
        <time>2024-12-29T12:33:05.499Z</time>
      </trkpt>
      <trkpt lat="43.53957" lon="6.61855">
        <ele>468.6</ele>
        <time>2024-12-29T12:33:22Z</time>
      </trkpt>
      <trkpt lat="43.53955" lon="6.61848">
        <ele>469.7</ele>
        <time>2024-12-29T12:33:28.999Z</time>
      </trkpt>
      <trkpt lat="43.53954" lon="6.61842">
        <ele>470.8</ele>
        <time>2024-12-29T12:33:36Z</time>
      </trkpt>
      <trkpt lat="43.53954" lon="6.61835">
        <ele>472</ele>
        <time>2024-12-29T12:33:42.000Z</time>
      </trkpt>
      <trkpt lat="43.53954" lon="6.61829">
        <ele>472.4</ele>
        <time>2024-12-29T12:33:48Z</time>
      </trkpt>
      <trkpt lat="43.5395" lon="6.61824">
        <ele>472.3</ele>
        <time>2024-12-29T12:33:54.499Z</time>
      </trkpt>
      <trkpt lat="43.53946" lon="6.61819">
        <ele>472.1</ele>
        <time>2024-12-29T12:34:01Z</time>
      </trkpt>
      <trkpt lat="43.53941" lon="6.61816">
        <ele>472</ele>
        <time>2024-12-29T12:34:09.999Z</time>
      </trkpt>
      <trkpt lat="43.53937" lon="6.61814">
        <ele>471.9</ele>
        <time>2024-12-29T12:34:19Z</time>
      </trkpt>
      <trkpt lat="43.53933" lon="6.61821">
        <ele>472</ele>
        <time>2024-12-29T12:34:47Z</time>
      </trkpt>
      <trkpt lat="43.53925" lon="6.61825">
        <ele>472.3</ele>
        <time>2024-12-29T12:35:13Z</time>
      </trkpt>
      <trkpt lat="43.53924" lon="6.61832">
        <ele>472.7</ele>
        <time>2024-12-29T12:35:55Z</time>
      </trkpt>
      <trkpt lat="43.53927" lon="6.61835">
        <ele>472.1</ele>
        <time>2024-12-29T12:36:55Z</time>
      </trkpt>
      <trkpt lat="43.53929" lon="6.61841">
        <ele>470.4</ele>
        <time>2024-12-29T12:38:13Z</time>
      </trkpt>
      <trkpt lat="43.53926" lon="6.6184">
        <ele>470.7</ele>
        <time>2024-12-29T12:42:56Z</time>
      </trkpt>
      <trkpt lat="43.53926" lon="6.6184">
        <ele>470.7</ele>
        <time>2024-12-29T12:47:09Z</time>
      </trkpt>
      <trkpt lat="43.53926" lon="6.61829">
        <ele>472.5</ele>
        <time>2024-12-29T12:47:35Z</time>
      </trkpt>
      <trkpt lat="43.53931" lon="6.61821">
        <ele>472.1</ele>
        <time>2024-12-29T12:48:07Z</time>
      </trkpt>
      <trkpt lat="43.53933" lon="6.6181">
        <ele>471.7</ele>
        <time>2024-12-29T12:48:37Z</time>
      </trkpt>
      <trkpt lat="43.53939" lon="6.61803">
        <ele>471.6</ele>
        <time>2024-12-29T12:48:47Z</time>
      </trkpt>
      <trkpt lat="43.53944" lon="6.618">
        <ele>471.6</ele>
        <time>2024-12-29T12:48:51.500Z</time>
      </trkpt>
      <trkpt lat="43.53948" lon="6.61797">
        <ele>471.7</ele>
        <time>2024-12-29T12:48:56Z</time>
      </trkpt>
      <trkpt lat="43.5395" lon="6.61787">
        <ele>471.2</ele>
        <time>2024-12-29T12:49:13Z</time>
      </trkpt>
      <trkpt lat="43.53947" lon="6.61782">
        <ele>470.6</ele>
        <time>2024-12-29T12:49:17.999Z</time>
      </trkpt>
      <trkpt lat="43.53945" lon="6.61776">
        <ele>469.9</ele>
        <time>2024-12-29T12:49:23Z</time>
      </trkpt>
      <trkpt lat="43.53941" lon="6.61766">
        <ele>468.9</ele>
        <time>2024-12-29T12:49:32Z</time>
      </trkpt>
      <trkpt lat="43.5394" lon="6.6176">
        <ele>468.3</ele>
        <time>2024-12-29T12:49:36.499Z</time>
      </trkpt>
      <trkpt lat="43.53938" lon="6.61754">
        <ele>467.6</ele>
        <time>2024-12-29T12:49:41Z</time>
      </trkpt>
      <trkpt lat="43.53936" lon="6.61748">
        <ele>466.9</ele>
        <time>2024-12-29T12:49:45.499Z</time>
      </trkpt>
      <trkpt lat="43.53934" lon="6.61741">
        <ele>466.2</ele>
        <time>2024-12-29T12:49:50Z</time>
      </trkpt>
      <trkpt lat="43.53933" lon="6.61735">
        <ele>465.7</ele>
        <time>2024-12-29T12:49:54.499Z</time>
      </trkpt>
      <trkpt lat="43.53931" lon="6.61729">
        <ele>465</ele>
        <time>2024-12-29T12:49:59Z</time>
      </trkpt>
      <trkpt lat="43.5393" lon="6.61722">
        <ele>464.4</ele>
        <time>2024-12-29T12:50:03.999Z</time>
      </trkpt>
      <trkpt lat="43.53929" lon="6.61716">
        <ele>464</ele>
        <time>2024-12-29T12:50:09Z</time>
      </trkpt>
      <trkpt lat="43.53928" lon="6.61708">
        <ele>463.4</ele>
        <time>2024-12-29T12:50:13.499Z</time>
      </trkpt>
      <trkpt lat="43.53926" lon="6.61701">
        <ele>462.7</ele>
        <time>2024-12-29T12:50:18Z</time>
      </trkpt>
      <trkpt lat="43.53925" lon="6.61694">
        <ele>462.2</ele>
        <time>2024-12-29T12:50:22.499Z</time>
      </trkpt>
      <trkpt lat="43.53924" lon="6.61688">
        <ele>462.1</ele>
        <time>2024-12-29T12:50:27Z</time>
      </trkpt>
      <trkpt lat="43.53923" lon="6.61681">
        <ele>461.9</ele>
        <time>2024-12-29T12:50:31.499Z</time>
      </trkpt>
      <trkpt lat="43.53922" lon="6.61675">
        <ele>461.8</ele>
        <time>2024-12-29T12:50:36Z</time>
      </trkpt>
      <trkpt lat="43.53922" lon="6.61669">
        <ele>461.8</ele>
        <time>2024-12-29T12:50:40.500Z</time>
      </trkpt>
      <trkpt lat="43.53923" lon="6.61662">
        <ele>461.7</ele>
        <time>2024-12-29T12:50:45Z</time>
      </trkpt>
      <trkpt lat="43.53925" lon="6.61655">
        <ele>461.8</ele>
        <time>2024-12-29T12:50:50.000Z</time>
      </trkpt>
      <trkpt lat="43.53927" lon="6.61648">
        <ele>461.8</ele>
        <time>2024-12-29T12:50:55Z</time>
      </trkpt>
      <trkpt lat="43.53929" lon="6.61642">
        <ele>461.9</ele>
        <time>2024-12-29T12:51:00.000Z</time>
      </trkpt>
      <trkpt lat="43.53931" lon="6.61636">
        <ele>462.1</ele>
        <time>2024-12-29T12:51:05Z</time>
      </trkpt>
      <trkpt lat="43.53934" lon="6.61629">
        <ele>462.6</ele>
        <time>2024-12-29T12:51:09.500Z</time>
      </trkpt>
      <trkpt lat="43.53937" lon="6.61623">
        <ele>463.1</ele>
        <time>2024-12-29T12:51:14Z</time>
      </trkpt>
      <trkpt lat="43.53938" lon="6.61616">
        <ele>463.3</ele>
        <time>2024-12-29T12:51:19.000Z</time>
      </trkpt>
      <trkpt lat="43.5394" lon="6.61609">
        <ele>463.4</ele>
        <time>2024-12-29T12:51:24Z</time>
      </trkpt>
      <trkpt lat="43.53943" lon="6.61603">
        <ele>463.6</ele>
        <time>2024-12-29T12:51:28.500Z</time>
      </trkpt>
      <trkpt lat="43.53945" lon="6.61597">
        <ele>463.6</ele>
        <time>2024-12-29T12:51:33Z</time>
      </trkpt>
      <trkpt lat="43.53947" lon="6.61592">
        <ele>463.6</ele>
        <time>2024-12-29T12:51:37.500Z</time>
      </trkpt>
      <trkpt lat="43.5395" lon="6.61586">
        <ele>463.7</ele>
        <time>2024-12-29T12:51:42Z</time>
      </trkpt>
      <trkpt lat="43.53952" lon="6.6158">
        <ele>463.7</ele>
        <time>2024-12-29T12:51:46.000Z</time>
      </trkpt>
      <trkpt lat="43.53955" lon="6.61575">
        <ele>463.8</ele>
        <time>2024-12-29T12:51:50Z</time>
      </trkpt>
      <trkpt lat="43.53958" lon="6.61569">
        <ele>463.9</ele>
        <time>2024-12-29T12:51:54.000Z</time>
      </trkpt>
      <trkpt lat="43.53961" lon="6.61564">
        <ele>464.1</ele>
        <time>2024-12-29T12:51:58Z</time>
      </trkpt>
      <trkpt lat="43.53962" lon="6.61557">
        <ele>463.9</ele>
        <time>2024-12-29T12:52:02.500Z</time>
      </trkpt>
      <trkpt lat="43.53962" lon="6.6155">
        <ele>463.6</ele>
        <time>2024-12-29T12:52:07Z</time>
      </trkpt>
      <trkpt lat="43.53963" lon="6.61544">
        <ele>463.3</ele>
        <time>2024-12-29T12:52:11.000Z</time>
      </trkpt>
      <trkpt lat="43.53963" lon="6.61537">
        <ele>462.9</ele>
        <time>2024-12-29T12:52:15Z</time>
      </trkpt>
      <trkpt lat="43.53963" lon="6.61531">
        <ele>462.5</ele>
        <time>2024-12-29T12:52:19.000Z</time>
      </trkpt>
      <trkpt lat="43.53963" lon="6.61525">
        <ele>462.3</ele>
        <time>2024-12-29T12:52:23Z</time>
      </trkpt>
      <trkpt lat="43.53963" lon="6.61517">
        <ele>462.1</ele>
        <time>2024-12-29T12:52:27.000Z</time>
      </trkpt>
      <trkpt lat="43.53963" lon="6.6151">
        <ele>461.9</ele>
        <time>2024-12-29T12:52:31Z</time>
      </trkpt>
      <trkpt lat="43.53964" lon="6.61503">
        <ele>461.9</ele>
        <time>2024-12-29T12:52:35.000Z</time>
      </trkpt>
      <trkpt lat="43.53964" lon="6.61496">
        <ele>461.6</ele>
        <time>2024-12-29T12:52:39Z</time>
      </trkpt>
      <trkpt lat="43.53965" lon="6.6149">
        <ele>461.5</ele>
        <time>2024-12-29T12:52:43.000Z</time>
      </trkpt>
      <trkpt lat="43.53965" lon="6.61484">
        <ele>461.2</ele>
        <time>2024-12-29T12:52:47Z</time>
      </trkpt>
      <trkpt lat="43.53966" lon="6.61477">
        <ele>461.1</ele>
        <time>2024-12-29T12:52:51.000Z</time>
      </trkpt>
      <trkpt lat="43.53967" lon="6.61469">
        <ele>460.9</ele>
        <time>2024-12-29T12:52:55Z</time>
      </trkpt>
      <trkpt lat="43.53966" lon="6.61463">
        <ele>460.5</ele>
        <time>2024-12-29T12:52:59.000Z</time>
      </trkpt>
      <trkpt lat="43.53966" lon="6.61456">
        <ele>460.3</ele>
        <time>2024-12-29T12:53:03Z</time>
      </trkpt>
      <trkpt lat="43.53966" lon="6.6145">
        <ele>460.1</ele>
        <time>2024-12-29T12:53:06.500Z</time>
      </trkpt>
      <trkpt lat="43.53965" lon="6.61443">
        <ele>459.8</ele>
        <time>2024-12-29T12:53:10Z</time>
      </trkpt>
      <trkpt lat="43.53964" lon="6.61437">
        <ele>459.9</ele>
        <time>2024-12-29T12:53:13.999Z</time>
      </trkpt>
      <trkpt lat="43.53963" lon="6.6143">
        <ele>460</ele>
        <time>2024-12-29T12:53:18Z</time>
      </trkpt>
      <trkpt lat="43.53963" lon="6.61424">
        <ele>460.3</ele>
        <time>2024-12-29T12:53:22.000Z</time>
      </trkpt>
      <trkpt lat="43.53963" lon="6.61418">
        <ele>460.6</ele>
        <time>2024-12-29T12:53:26Z</time>
      </trkpt>
      <trkpt lat="43.53965" lon="6.61412">
        <ele>460.8</ele>
        <time>2024-12-29T12:53:31.000Z</time>
      </trkpt>
      <trkpt lat="43.53967" lon="6.61405">
        <ele>460.9</ele>
        <time>2024-12-29T12:53:36Z</time>
      </trkpt>
      <trkpt lat="43.53971" lon="6.61401">
        <ele>461.3</ele>
        <time>2024-12-29T12:53:41.000Z</time>
      </trkpt>
      <trkpt lat="43.53975" lon="6.61396">
        <ele>461.5</ele>
        <time>2024-12-29T12:53:46Z</time>
      </trkpt>
      <trkpt lat="43.5398" lon="6.61393">
        <ele>461.7</ele>
        <time>2024-12-29T12:53:50.500Z</time>
      </trkpt>
      <trkpt lat="43.53985" lon="6.6139">
        <ele>462</ele>
        <time>2024-12-29T12:53:55Z</time>
      </trkpt>
      <trkpt lat="43.5399" lon="6.61387">
        <ele>462</ele>
        <time>2024-12-29T12:53:59.500Z</time>
      </trkpt>
      <trkpt lat="43.53995" lon="6.61385">
        <ele>462.1</ele>
        <time>2024-12-29T12:54:04Z</time>
      </trkpt>
      <trkpt lat="43.53999" lon="6.61382">
        <ele>461.9</ele>
        <time>2024-12-29T12:54:08.000Z</time>
      </trkpt>
      <trkpt lat="43.54003" lon="6.6138">
        <ele>461.7</ele>
        <time>2024-12-29T12:54:12Z</time>
      </trkpt>
      <trkpt lat="43.54007" lon="6.61376">
        <ele>461.1</ele>
        <time>2024-12-29T12:54:16.500Z</time>
      </trkpt>
      <trkpt lat="43.54011" lon="6.61372">
        <ele>460.6</ele>
        <time>2024-12-29T12:54:21Z</time>
      </trkpt>
      <trkpt lat="43.54015" lon="6.61369">
        <ele>460.1</ele>
        <time>2024-12-29T12:54:25.000Z</time>
      </trkpt>
      <trkpt lat="43.54019" lon="6.61365">
        <ele>459.6</ele>
        <time>2024-12-29T12:54:29Z</time>
      </trkpt>
      <trkpt lat="43.54023" lon="6.61361">
        <ele>459</ele>
        <time>2024-12-29T12:54:33.000Z</time>
      </trkpt>
      <trkpt lat="43.54027" lon="6.61356">
        <ele>458.3</ele>
        <time>2024-12-29T12:54:37Z</time>
      </trkpt>
      <trkpt lat="43.54032" lon="6.61353">
        <ele>458</ele>
        <time>2024-12-29T12:54:41.000Z</time>
      </trkpt>
      <trkpt lat="43.54036" lon="6.61351">
        <ele>457.9</ele>
        <time>2024-12-29T12:54:45Z</time>
      </trkpt>
      <trkpt lat="43.5404" lon="6.61347">
        <ele>457.6</ele>
        <time>2024-12-29T12:54:49.000Z</time>
      </trkpt>
      <trkpt lat="43.54044" lon="6.61344">
        <ele>457.5</ele>
        <time>2024-12-29T12:54:53Z</time>
      </trkpt>
      <trkpt lat="43.54048" lon="6.6134">
        <ele>457.2</ele>
        <time>2024-12-29T12:54:57.000Z</time>
      </trkpt>
      <trkpt lat="43.54051" lon="6.61336">
        <ele>457</ele>
        <time>2024-12-29T12:55:01Z</time>
      </trkpt>
      <trkpt lat="43.54057" lon="6.61327">
        <ele>456.5</ele>
        <time>2024-12-29T12:55:08Z</time>
      </trkpt>
      <trkpt lat="43.54058" lon="6.61321">
        <ele>456</ele>
        <time>2024-12-29T12:55:12.000Z</time>
      </trkpt>
      <trkpt lat="43.5406" lon="6.61315">
        <ele>455.7</ele>
        <time>2024-12-29T12:55:16Z</time>
      </trkpt>
      <trkpt lat="43.5406" lon="6.61303">
        <ele>454.8</ele>
        <time>2024-12-29T12:55:24Z</time>
      </trkpt>
      <trkpt lat="43.5406" lon="6.61291">
        <ele>454.6</ele>
        <time>2024-12-29T12:55:32Z</time>
      </trkpt>
      <trkpt lat="43.54059" lon="6.61284">
        <ele>454.4</ele>
        <time>2024-12-29T12:55:35.999Z</time>
      </trkpt>
      <trkpt lat="43.54059" lon="6.61277">
        <ele>454.3</ele>
        <time>2024-12-29T12:55:40Z</time>
      </trkpt>
      <trkpt lat="43.54057" lon="6.61271">
        <ele>453.9</ele>
        <time>2024-12-29T12:55:43.999Z</time>
      </trkpt>
      <trkpt lat="43.54056" lon="6.61265">
        <ele>453.6</ele>
        <time>2024-12-29T12:55:48Z</time>
      </trkpt>
      <trkpt lat="43.54057" lon="6.61258">
        <ele>453.4</ele>
        <time>2024-12-29T12:55:52.500Z</time>
      </trkpt>
      <trkpt lat="43.54057" lon="6.61251">
        <ele>453.1</ele>
        <time>2024-12-29T12:55:57Z</time>
      </trkpt>
      <trkpt lat="43.54058" lon="6.61239">
        <ele>451.9</ele>
        <time>2024-12-29T12:56:06Z</time>
      </trkpt>
      <trkpt lat="43.5406" lon="6.61233">
        <ele>451.3</ele>
        <time>2024-12-29T12:56:10.500Z</time>
      </trkpt>
      <trkpt lat="43.54061" lon="6.61226">
        <ele>450.6</ele>
        <time>2024-12-29T12:56:15Z</time>
      </trkpt>
      <trkpt lat="43.54063" lon="6.6122">
        <ele>450</ele>
        <time>2024-12-29T12:56:19.500Z</time>
      </trkpt>
      <trkpt lat="43.54065" lon="6.61213">
        <ele>449.5</ele>
        <time>2024-12-29T12:56:24Z</time>
      </trkpt>
      <trkpt lat="43.54068" lon="6.61207">
        <ele>449</ele>
        <time>2024-12-29T12:56:28.500Z</time>
      </trkpt>
      <trkpt lat="43.5407" lon="6.61201">
        <ele>448.6</ele>
        <time>2024-12-29T12:56:33Z</time>
      </trkpt>
      <trkpt lat="43.54072" lon="6.61195">
        <ele>448.2</ele>
        <time>2024-12-29T12:56:37.500Z</time>
      </trkpt>
      <trkpt lat="43.54074" lon="6.61188">
        <ele>447.6</ele>
        <time>2024-12-29T12:56:42Z</time>
      </trkpt>
      <trkpt lat="43.54076" lon="6.61182">
        <ele>447.1</ele>
        <time>2024-12-29T12:56:46.500Z</time>
      </trkpt>
      <trkpt lat="43.54078" lon="6.61175">
        <ele>446.5</ele>
        <time>2024-12-29T12:56:51Z</time>
      </trkpt>
      <trkpt lat="43.54078" lon="6.61168">
        <ele>445.8</ele>
        <time>2024-12-29T12:56:55.500Z</time>
      </trkpt>
      <trkpt lat="43.54078" lon="6.61161">
        <ele>445.1</ele>
        <time>2024-12-29T12:57:00Z</time>
      </trkpt>
      <trkpt lat="43.54077" lon="6.61154">
        <ele>444.3</ele>
        <time>2024-12-29T12:57:04.999Z</time>
      </trkpt>
      <trkpt lat="43.54076" lon="6.61148">
        <ele>443.6</ele>
        <time>2024-12-29T12:57:10Z</time>
      </trkpt>
      <trkpt lat="43.54075" lon="6.61141">
        <ele>442.7</ele>
        <time>2024-12-29T12:57:14.499Z</time>
      </trkpt>
      <trkpt lat="43.54074" lon="6.61135">
        <ele>442.2</ele>
        <time>2024-12-29T12:57:19Z</time>
      </trkpt>
      <trkpt lat="43.54071" lon="6.61129">
        <ele>441.4</ele>
        <time>2024-12-29T12:57:22.999Z</time>
      </trkpt>
      <trkpt lat="43.54068" lon="6.61124">
        <ele>440.7</ele>
        <time>2024-12-29T12:57:27Z</time>
      </trkpt>
      <trkpt lat="43.54065" lon="6.61119">
        <ele>440</ele>
        <time>2024-12-29T12:57:31.499Z</time>
      </trkpt>
      <trkpt lat="43.54062" lon="6.61113">
        <ele>439.2</ele>
        <time>2024-12-29T12:57:36Z</time>
      </trkpt>
      <trkpt lat="43.54059" lon="6.61109">
        <ele>438.8</ele>
        <time>2024-12-29T12:57:39.999Z</time>
      </trkpt>
      <trkpt lat="43.54056" lon="6.61104">
        <ele>438.6</ele>
        <time>2024-12-29T12:57:44Z</time>
      </trkpt>
      <trkpt lat="43.54052" lon="6.611">
        <ele>437.8</ele>
        <time>2024-12-29T12:57:47.999Z</time>
      </trkpt>
      <trkpt lat="43.54048" lon="6.61096">
        <ele>436.9</ele>
        <time>2024-12-29T12:57:52Z</time>
      </trkpt>
      <trkpt lat="43.54045" lon="6.61091">
        <ele>436.4</ele>
        <time>2024-12-29T12:57:56.499Z</time>
      </trkpt>
      <trkpt lat="43.54041" lon="6.61086">
        <ele>435.6</ele>
        <time>2024-12-29T12:58:01Z</time>
      </trkpt>
      <trkpt lat="43.54038" lon="6.6108">
        <ele>435.2</ele>
        <time>2024-12-29T12:58:05.999Z</time>
      </trkpt>
      <trkpt lat="43.54035" lon="6.61074">
        <ele>434.6</ele>
        <time>2024-12-29T12:58:11Z</time>
      </trkpt>
      <trkpt lat="43.54032" lon="6.61068">
        <ele>433.9</ele>
        <time>2024-12-29T12:58:15.999Z</time>
      </trkpt>
      <trkpt lat="43.54029" lon="6.61063">
        <ele>433.1</ele>
        <time>2024-12-29T12:58:21Z</time>
      </trkpt>
      <trkpt lat="43.54026" lon="6.61058">
        <ele>432.1</ele>
        <time>2024-12-29T12:58:26.999Z</time>
      </trkpt>
      <trkpt lat="43.54024" lon="6.61052">
        <ele>431.1</ele>
        <time>2024-12-29T12:58:33Z</time>
      </trkpt>
      <trkpt lat="43.54022" lon="6.61045">
        <ele>430</ele>
        <time>2024-12-29T12:58:37.999Z</time>
      </trkpt>
      <trkpt lat="43.54021" lon="6.61038">
        <ele>429.4</ele>
        <time>2024-12-29T12:58:43Z</time>
      </trkpt>
      <trkpt lat="43.5402" lon="6.6103">
        <ele>428.7</ele>
        <time>2024-12-29T12:58:47.999Z</time>
      </trkpt>
      <trkpt lat="43.54018" lon="6.61023">
        <ele>427.4</ele>
        <time>2024-12-29T12:58:53Z</time>
      </trkpt>
      <trkpt lat="43.54019" lon="6.61017">
        <ele>427.3</ele>
        <time>2024-12-29T12:58:57.500Z</time>
      </trkpt>
      <trkpt lat="43.54019" lon="6.6101">
        <ele>426.7</ele>
        <time>2024-12-29T12:59:02Z</time>
      </trkpt>
      <trkpt lat="43.54019" lon="6.61003">
        <ele>426.1</ele>
        <time>2024-12-29T12:59:07.000Z</time>
      </trkpt>
      <trkpt lat="43.54019" lon="6.60996">
        <ele>425.2</ele>
        <time>2024-12-29T12:59:12Z</time>
      </trkpt>
      <trkpt lat="43.54019" lon="6.60989">
        <ele>424</ele>
        <time>2024-12-29T12:59:17.000Z</time>
      </trkpt>
      <trkpt lat="43.5402" lon="6.60981">
        <ele>423</ele>
        <time>2024-12-29T12:59:22Z</time>
      </trkpt>
      <trkpt lat="43.54021" lon="6.60974">
        <ele>422.1</ele>
        <time>2024-12-29T12:59:26.500Z</time>
      </trkpt>
      <trkpt lat="43.54022" lon="6.60967">
        <ele>421.1</ele>
        <time>2024-12-29T12:59:31Z</time>
      </trkpt>
      <trkpt lat="43.54023" lon="6.60961">
        <ele>420.2</ele>
        <time>2024-12-29T12:59:35.500Z</time>
      </trkpt>
      <trkpt lat="43.54024" lon="6.60954">
        <ele>419</ele>
        <time>2024-12-29T12:59:40Z</time>
      </trkpt>
      <trkpt lat="43.54025" lon="6.60948">
        <ele>418</ele>
        <time>2024-12-29T12:59:44.500Z</time>
      </trkpt>
      <trkpt lat="43.54026" lon="6.60942">
        <ele>417.2</ele>
        <time>2024-12-29T12:59:49Z</time>
      </trkpt>
      <trkpt lat="43.54028" lon="6.60936">
        <ele>416.8</ele>
        <time>2024-12-29T12:59:54.000Z</time>
      </trkpt>
      <trkpt lat="43.5403" lon="6.6093">
        <ele>416.5</ele>
        <time>2024-12-29T12:59:59Z</time>
      </trkpt>
      <trkpt lat="43.54031" lon="6.60923">
        <ele>415.7</ele>
        <time>2024-12-29T13:00:03.500Z</time>
      </trkpt>
      <trkpt lat="43.54033" lon="6.60917">
        <ele>415.2</ele>
        <time>2024-12-29T13:00:08Z</time>
      </trkpt>
      <trkpt lat="43.54034" lon="6.60909">
        <ele>414.1</ele>
        <time>2024-12-29T13:00:12.500Z</time>
      </trkpt>
      <trkpt lat="43.54035" lon="6.60901">
        <ele>413</ele>
        <time>2024-12-29T13:00:17Z</time>
      </trkpt>
      <trkpt lat="43.54036" lon="6.60894">
        <ele>412</ele>
        <time>2024-12-29T13:00:21.500Z</time>
      </trkpt>
      <trkpt lat="43.54037" lon="6.60888">
        <ele>411.2</ele>
        <time>2024-12-29T13:00:26Z</time>
      </trkpt>
      <trkpt lat="43.54039" lon="6.60881">
        <ele>410.4</ele>
        <time>2024-12-29T13:01:15Z</time>
      </trkpt>
      <trkpt lat="43.54038" lon="6.60871">
        <ele>408.8</ele>
        <time>2024-12-29T13:01:37Z</time>
      </trkpt>
      <trkpt lat="43.54034" lon="6.60873">
        <ele>408.7</ele>
        <time>2024-12-29T13:01:42.500Z</time>
      </trkpt>
      <trkpt lat="43.54029" lon="6.60874">
        <ele>408.5</ele>
        <time>2024-12-29T13:01:48Z</time>
      </trkpt>
      <trkpt lat="43.54024" lon="6.60873">
        <ele>408</ele>
        <time>2024-12-29T13:01:52.500Z</time>
      </trkpt>
      <trkpt lat="43.54019" lon="6.60871">
        <ele>407.3</ele>
        <time>2024-12-29T13:01:57Z</time>
      </trkpt>
      <trkpt lat="43.54014" lon="6.6087">
        <ele>406.8</ele>
        <time>2024-12-29T13:02:01.500Z</time>
      </trkpt>
      <trkpt lat="43.5401" lon="6.60868">
        <ele>406.3</ele>
        <time>2024-12-29T13:02:06Z</time>
      </trkpt>
      <trkpt lat="43.54005" lon="6.60867">
        <ele>405.8</ele>
        <time>2024-12-29T13:02:12.500Z</time>
      </trkpt>
      <trkpt lat="43.54" lon="6.60866">
        <ele>405.4</ele>
        <time>2024-12-29T13:02:19Z</time>
      </trkpt>
      <trkpt lat="43.53993" lon="6.60873">
        <ele>404.8</ele>
        <time>2024-12-29T13:02:34Z</time>
      </trkpt>
      <trkpt lat="43.53991" lon="6.60879">
        <ele>405</ele>
        <time>2024-12-29T13:02:38.999Z</time>
      </trkpt>
      <trkpt lat="43.53988" lon="6.60885">
        <ele>405</ele>
        <time>2024-12-29T13:02:44Z</time>
      </trkpt>
      <trkpt lat="43.53984" lon="6.60891">
        <ele>404.8</ele>
        <time>2024-12-29T13:02:48.999Z</time>
      </trkpt>
      <trkpt lat="43.53981" lon="6.60897">
        <ele>404.8</ele>
        <time>2024-12-29T13:02:54Z</time>
      </trkpt>
      <trkpt lat="43.53978" lon="6.60903">
        <ele>404.8</ele>
        <time>2024-12-29T13:02:58.499Z</time>
      </trkpt>
      <trkpt lat="43.53976" lon="6.60909">
        <ele>405</ele>
        <time>2024-12-29T13:03:03Z</time>
      </trkpt>
      <trkpt lat="43.53973" lon="6.60914">
        <ele>404.9</ele>
        <time>2024-12-29T13:03:07.499Z</time>
      </trkpt>
      <trkpt lat="43.53971" lon="6.60919">
        <ele>404.9</ele>
        <time>2024-12-29T13:03:12Z</time>
      </trkpt>
      <trkpt lat="43.53969" lon="6.60927">
        <ele>404.8</ele>
        <time>2024-12-29T13:03:15.999Z</time>
      </trkpt>
      <trkpt lat="43.53968" lon="6.60934">
        <ele>404.9</ele>
        <time>2024-12-29T13:03:20Z</time>
      </trkpt>
      <trkpt lat="43.53966" lon="6.60941">
        <ele>404.8</ele>
        <time>2024-12-29T13:03:23.999Z</time>
      </trkpt>
      <trkpt lat="43.53964" lon="6.60947">
        <ele>404.5</ele>
        <time>2024-12-29T13:03:28Z</time>
      </trkpt>
      <trkpt lat="43.53963" lon="6.60958">
        <ele>404.3</ele>
        <time>2024-12-29T13:03:35Z</time>
      </trkpt>
      <trkpt lat="43.53961" lon="6.60964">
        <ele>404</ele>
        <time>2024-12-29T13:03:38.999Z</time>
      </trkpt>
      <trkpt lat="43.53959" lon="6.6097">
        <ele>403.6</ele>
        <time>2024-12-29T13:03:43Z</time>
      </trkpt>
      <trkpt lat="43.53955" lon="6.60981">
        <ele>403.3</ele>
        <time>2024-12-29T13:03:51Z</time>
      </trkpt>
      <trkpt lat="43.53953" lon="6.60987">
        <ele>403.2</ele>
        <time>2024-12-29T13:03:54.999Z</time>
      </trkpt>
      <trkpt lat="43.53951" lon="6.60992">
        <ele>403.1</ele>
        <time>2024-12-29T13:03:59Z</time>
      </trkpt>
      <trkpt lat="43.53947" lon="6.60999">
        <ele>402.5</ele>
        <time>2024-12-29T13:04:02.999Z</time>
      </trkpt>
      <trkpt lat="43.53944" lon="6.61005">
        <ele>402.1</ele>
        <time>2024-12-29T13:04:07Z</time>
      </trkpt>
      <trkpt lat="43.53942" lon="6.61011">
        <ele>402.1</ele>
        <time>2024-12-29T13:04:10.999Z</time>
      </trkpt>
      <trkpt lat="43.5394" lon="6.61017">
        <ele>402.1</ele>
        <time>2024-12-29T13:04:15Z</time>
      </trkpt>
      <trkpt lat="43.53937" lon="6.61023">
        <ele>402</ele>
        <time>2024-12-29T13:04:18.999Z</time>
      </trkpt>
      <trkpt lat="43.53934" lon="6.61028">
        <ele>401.9</ele>
        <time>2024-12-29T13:04:23Z</time>
      </trkpt>
      <trkpt lat="43.53932" lon="6.61035">
        <ele>401.7</ele>
        <time>2024-12-29T13:04:26.999Z</time>
      </trkpt>
      <trkpt lat="43.5393" lon="6.61041">
        <ele>401.4</ele>
        <time>2024-12-29T13:04:31Z</time>
      </trkpt>
      <trkpt lat="43.53928" lon="6.61046">
        <ele>401.2</ele>
        <time>2024-12-29T13:04:35.499Z</time>
      </trkpt>
      <trkpt lat="43.53926" lon="6.61052">
        <ele>401</ele>
        <time>2024-12-29T13:04:40Z</time>
      </trkpt>
      <trkpt lat="43.53923" lon="6.61057">
        <ele>400.8</ele>
        <time>2024-12-29T13:04:43.999Z</time>
      </trkpt>
      <trkpt lat="43.5392" lon="6.61062">
        <ele>400.9</ele>
        <time>2024-12-29T13:04:48Z</time>
      </trkpt>
      <trkpt lat="43.53915" lon="6.61066">
        <ele>400.5</ele>
        <time>2024-12-29T13:05:30.999Z</time>
      </trkpt>
      <trkpt lat="43.53911" lon="6.61071">
        <ele>400.3</ele>
        <time>2024-12-29T13:06:14Z</time>
      </trkpt>
      <trkpt lat="43.53906" lon="6.61074">
        <ele>399.8</ele>
        <time>2024-12-29T13:10:20Z</time>
      </trkpt>
      <trkpt lat="43.53901" lon="6.61075">
        <ele>399.1</ele>
        <time>2024-12-29T13:11:15Z</time>
      </trkpt>
      <trkpt lat="43.53895" lon="6.61075">
        <ele>398.3</ele>
        <time>2024-12-29T13:11:20.000Z</time>
      </trkpt>
      <trkpt lat="43.53888" lon="6.61076">
        <ele>397.4</ele>
        <time>2024-12-29T13:11:25Z</time>
      </trkpt>
      <trkpt lat="43.53883" lon="6.61077">
        <ele>397.4</ele>
        <time>2024-12-29T13:11:29.500Z</time>
      </trkpt>
      <trkpt lat="43.53878" lon="6.61079">
        <ele>397.4</ele>
        <time>2024-12-29T13:11:34Z</time>
      </trkpt>
      <trkpt lat="43.53873" lon="6.6108">
        <ele>397.3</ele>
        <time>2024-12-29T13:11:38.000Z</time>
      </trkpt>
      <trkpt lat="43.53868" lon="6.61081">
        <ele>397.1</ele>
        <time>2024-12-29T13:11:42Z</time>
      </trkpt>
      <trkpt lat="43.53863" lon="6.61084">
        <ele>397.1</ele>
        <time>2024-12-29T13:11:46.499Z</time>
      </trkpt>
      <trkpt lat="43.53859" lon="6.61087">
        <ele>397</ele>
        <time>2024-12-29T13:11:51Z</time>
      </trkpt>
      <trkpt lat="43.53855" lon="6.61092">
        <ele>396.9</ele>
        <time>2024-12-29T13:11:54.999Z</time>
      </trkpt>
      <trkpt lat="43.53851" lon="6.61096">
        <ele>396.7</ele>
        <time>2024-12-29T13:11:59Z</time>
      </trkpt>
      <trkpt lat="43.53848" lon="6.61101">
        <ele>396.6</ele>
        <time>2024-12-29T13:12:02.999Z</time>
      </trkpt>
      <trkpt lat="43.53844" lon="6.61105">
        <ele>396.2</ele>
        <time>2024-12-29T13:12:07Z</time>
      </trkpt>
      <trkpt lat="43.53841" lon="6.6111">
        <ele>396.1</ele>
        <time>2024-12-29T13:12:10.999Z</time>
      </trkpt>
      <trkpt lat="43.53838" lon="6.61116">
        <ele>395.8</ele>
        <time>2024-12-29T13:12:15Z</time>
      </trkpt>
      <trkpt lat="43.53835" lon="6.61121">
        <ele>395.6</ele>
        <time>2024-12-29T13:12:18.999Z</time>
      </trkpt>
      <trkpt lat="43.53832" lon="6.61126">
        <ele>395.4</ele>
        <time>2024-12-29T13:12:23Z</time>
      </trkpt>
      <trkpt lat="43.53828" lon="6.61131">
        <ele>395.3</ele>
        <time>2024-12-29T13:12:26.999Z</time>
      </trkpt>
      <trkpt lat="43.53824" lon="6.61137">
        <ele>395.2</ele>
        <time>2024-12-29T13:12:31Z</time>
      </trkpt>
      <trkpt lat="43.53821" lon="6.61142">
        <ele>395.1</ele>
        <time>2024-12-29T13:12:34.999Z</time>
      </trkpt>
      <trkpt lat="43.53818" lon="6.61147">
        <ele>394.9</ele>
        <time>2024-12-29T13:12:39Z</time>
      </trkpt>
      <trkpt lat="43.53815" lon="6.61154">
        <ele>394.7</ele>
        <time>2024-12-29T13:12:43.499Z</time>
      </trkpt>
      <trkpt lat="43.53812" lon="6.6116">
        <ele>394.5</ele>
        <time>2024-12-29T13:12:48Z</time>
      </trkpt>
      <trkpt lat="43.53809" lon="6.61166">
        <ele>394.2</ele>
        <time>2024-12-29T13:12:56.499Z</time>
      </trkpt>
      <trkpt lat="43.53806" lon="6.61172">
        <ele>394.2</ele>
        <time>2024-12-29T13:13:05Z</time>
      </trkpt>
      <trkpt lat="43.53804" lon="6.61179">
        <ele>394.3</ele>
        <time>2024-12-29T13:13:08.499Z</time>
      </trkpt>
      <trkpt lat="43.53801" lon="6.61185">
        <ele>394.2</ele>
        <time>2024-12-29T13:13:12Z</time>
      </trkpt>
      <trkpt lat="43.53798" lon="6.61195">
        <ele>394.2</ele>
        <time>2024-12-29T13:13:19Z</time>
      </trkpt>
      <trkpt lat="43.53795" lon="6.61202">
        <ele>394.1</ele>
        <time>2024-12-29T13:13:22.999Z</time>
      </trkpt>
      <trkpt lat="43.53793" lon="6.61208">
        <ele>394.1</ele>
        <time>2024-12-29T13:13:27Z</time>
      </trkpt>
      <trkpt lat="43.5379" lon="6.61214">
        <ele>394</ele>
        <time>2024-12-29T13:13:30.499Z</time>
      </trkpt>
      <trkpt lat="43.53788" lon="6.6122">
        <ele>394</ele>
        <time>2024-12-29T13:13:34Z</time>
      </trkpt>
      <trkpt lat="43.53784" lon="6.61223">
        <ele>393.8</ele>
        <time>2024-12-29T13:13:37.999Z</time>
      </trkpt>
      <trkpt lat="43.53779" lon="6.61226">
        <ele>393.7</ele>
        <time>2024-12-29T13:13:42Z</time>
      </trkpt>
      <trkpt lat="43.53773" lon="6.61227">
        <ele>393.4</ele>
        <time>2024-12-29T13:13:46.000Z</time>
      </trkpt>
      <trkpt lat="43.53767" lon="6.61227">
        <ele>393</ele>
        <time>2024-12-29T13:13:50Z</time>
      </trkpt>
      <trkpt lat="43.5376" lon="6.61227">
        <ele>392.6</ele>
        <time>2024-12-29T13:13:58Z</time>
      </trkpt>
      <trkpt lat="43.53752" lon="6.6123">
        <ele>392.8</ele>
        <time>2024-12-29T13:14:01.952Z</time>
      </trkpt>
      <trkpt lat="43.53745" lon="6.61233">
        <ele>392.5</ele>
        <time>2024-12-29T13:14:06Z</time>
      </trkpt>
      <trkpt lat="43.53741" lon="6.61237">
        <ele>392.5</ele>
        <time>2024-12-29T13:14:10.499Z</time>
      </trkpt>
      <trkpt lat="43.53737" lon="6.6124">
        <ele>392.2</ele>
        <time>2024-12-29T13:14:15Z</time>
      </trkpt>
      <trkpt lat="43.53734" lon="6.61246">
        <ele>392.4</ele>
        <time>2024-12-29T13:14:19.499Z</time>
      </trkpt>
      <trkpt lat="43.53731" lon="6.61252">
        <ele>392.2</ele>
        <time>2024-12-29T13:14:24Z</time>
      </trkpt>
      <trkpt lat="43.53728" lon="6.61259">
        <ele>391.3</ele>
        <time>2024-12-29T13:14:28.499Z</time>
      </trkpt>
      <trkpt lat="43.53726" lon="6.61265">
        <ele>390.6</ele>
        <time>2024-12-29T13:14:33Z</time>
      </trkpt>
      <trkpt lat="43.53723" lon="6.61272">
        <ele>389.4</ele>
        <time>2024-12-29T13:14:37.499Z</time>
      </trkpt>
      <trkpt lat="43.5372" lon="6.61279">
        <ele>389.3</ele>
        <time>2024-12-29T13:14:42Z</time>
      </trkpt>
      <trkpt lat="43.53712" lon="6.61278">
        <ele>389.4</ele>
        <time>2024-12-29T13:14:51Z</time>
      </trkpt>
      <trkpt lat="43.53705" lon="6.61278">
        <ele>389.7</ele>
        <time>2024-12-29T13:14:55.260Z</time>
      </trkpt>
      <trkpt lat="43.53697" lon="6.61275">
        <ele>389.5</ele>
        <time>2024-12-29T13:15:00Z</time>
      </trkpt>
      <trkpt lat="43.53689" lon="6.61273">
        <ele>388.8</ele>
        <time>2024-12-29T13:15:09Z</time>
      </trkpt>
      <trkpt lat="43.53681" lon="6.61272">
        <ele>388.1</ele>
        <time>2024-12-29T13:15:18Z</time>
      </trkpt>
      <trkpt lat="43.53675" lon="6.61275">
        <ele>388.2</ele>
        <time>2024-12-29T13:15:22.999Z</time>
      </trkpt>
      <trkpt lat="43.53668" lon="6.61278">
        <ele>388.1</ele>
        <time>2024-12-29T13:15:28Z</time>
      </trkpt>
      <trkpt lat="43.53661" lon="6.61282">
        <ele>388.2</ele>
        <time>2024-12-29T13:15:32.499Z</time>
      </trkpt>
      <trkpt lat="43.53654" lon="6.61286">
        <ele>388.4</ele>
        <time>2024-12-29T13:15:37Z</time>
      </trkpt>
      <trkpt lat="43.5365" lon="6.61287">
        <ele>388.3</ele>
        <time>2024-12-29T13:15:39.322Z</time>
      </trkpt>
      <trkpt lat="43.53645" lon="6.61288">
        <ele>388.2</ele>
        <time>2024-12-29T13:15:41.645Z</time>
      </trkpt>
      <trkpt lat="43.53637" lon="6.61288">
        <ele>387.7</ele>
        <time>2024-12-29T13:15:46Z</time>
      </trkpt>
      <trkpt lat="43.53631" lon="6.61288">
        <ele>387.5</ele>
        <time>2024-12-29T13:15:50.500Z</time>
      </trkpt>
      <trkpt lat="43.53626" lon="6.61288">
        <ele>387.2</ele>
        <time>2024-12-29T13:15:55Z</time>
      </trkpt>
      <trkpt lat="43.53622" lon="6.61287">
        <ele>386.9</ele>
        <time>2024-12-29T13:15:59.500Z</time>
      </trkpt>
      <trkpt lat="43.53617" lon="6.61286">
        <ele>386.5</ele>
        <time>2024-12-29T13:16:04Z</time>
      </trkpt>
      <trkpt lat="43.53609" lon="6.61286">
        <ele>386.2</ele>
        <time>2024-12-29T13:16:11.327Z</time>
      </trkpt>
      <trkpt lat="43.53602" lon="6.61282">
        <ele>385.7</ele>
        <time>2024-12-29T13:16:17.163Z</time>
      </trkpt>
      <trkpt lat="43.53596" lon="6.61279">
        <ele>385.2</ele>
        <time>2024-12-29T13:16:23Z</time>
      </trkpt>
      <trkpt lat="43.53591" lon="6.61278">
        <ele>385</ele>
        <time>2024-12-29T13:16:27.000Z</time>
      </trkpt>
      <trkpt lat="43.53587" lon="6.61276">
        <ele>384.6</ele>
        <time>2024-12-29T13:16:31Z</time>
      </trkpt>
      <trkpt lat="43.53579" lon="6.61273">
        <ele>384.3</ele>
        <time>2024-12-29T13:16:39Z</time>
      </trkpt>
      <trkpt lat="43.53575" lon="6.61271">
        <ele>384.1</ele>
        <time>2024-12-29T13:16:42.999Z</time>
      </trkpt>
      <trkpt lat="43.5357" lon="6.61269">
        <ele>384.1</ele>
        <time>2024-12-29T13:16:47Z</time>
      </trkpt>
      <trkpt lat="43.53565" lon="6.61266">
        <ele>383.8</ele>
        <time>2024-12-29T13:16:51.499Z</time>
      </trkpt>
      <trkpt lat="43.5356" lon="6.61263">
        <ele>383.5</ele>
        <time>2024-12-29T13:16:56Z</time>
      </trkpt>
      <trkpt lat="43.53555" lon="6.61262">
        <ele>383.6</ele>
        <time>2024-12-29T13:17:00.500Z</time>
      </trkpt>
      <trkpt lat="43.5355" lon="6.61261">
        <ele>383.3</ele>
        <time>2024-12-29T13:17:05Z</time>
      </trkpt>
      <trkpt lat="43.53543" lon="6.6126">
        <ele>383</ele>
        <time>2024-12-29T13:17:10.500Z</time>
      </trkpt>
      <trkpt lat="43.53536" lon="6.61258">
        <ele>382.4</ele>
        <time>2024-12-29T13:17:16Z</time>
      </trkpt>
      <trkpt lat="43.5353" lon="6.61257">
        <ele>382.1</ele>
        <time>2024-12-29T13:17:21.500Z</time>
      </trkpt>
      <trkpt lat="43.53524" lon="6.61257">
        <ele>381.7</ele>
        <time>2024-12-29T13:17:27Z</time>
      </trkpt>
      <trkpt lat="43.53519" lon="6.61257">
        <ele>381.4</ele>
        <time>2024-12-29T13:17:32.000Z</time>
      </trkpt>
      <trkpt lat="43.53513" lon="6.61257">
        <ele>381</ele>
        <time>2024-12-29T13:17:37Z</time>
      </trkpt>
      <trkpt lat="43.53508" lon="6.61258">
        <ele>380.9</ele>
        <time>2024-12-29T13:18:03Z</time>
      </trkpt>
      <trkpt lat="43.53503" lon="6.61259">
        <ele>380.8</ele>
        <time>2024-12-29T13:18:09.000Z</time>
      </trkpt>
      <trkpt lat="43.53498" lon="6.6126">
        <ele>380.6</ele>
        <time>2024-12-29T13:18:15Z</time>
      </trkpt>
      <trkpt lat="43.53493" lon="6.61262">
        <ele>380.3</ele>
        <time>2024-12-29T13:18:19.499Z</time>
      </trkpt>
      <trkpt lat="43.53489" lon="6.61264">
        <ele>380.2</ele>
        <time>2024-12-29T13:18:24Z</time>
      </trkpt>
      <trkpt lat="43.53481" lon="6.61269">
        <ele>380.3</ele>
        <time>2024-12-29T13:18:34Z</time>
      </trkpt>
      <trkpt lat="43.53477" lon="6.61271">
        <ele>380</ele>
        <time>2024-12-29T13:18:37.499Z</time>
      </trkpt>
      <trkpt lat="43.53472" lon="6.61273">
        <ele>379.7</ele>
        <time>2024-12-29T13:18:40.999Z</time>
      </trkpt>
      <trkpt lat="43.53464" lon="6.61276">
        <ele>378.8</ele>
        <time>2024-12-29T13:18:48Z</time>
      </trkpt>
      <trkpt lat="43.53458" lon="6.6128">
        <ele>378.6</ele>
        <time>2024-12-29T13:18:53.499Z</time>
      </trkpt>
      <trkpt lat="43.53452" lon="6.61285">
        <ele>378.8</ele>
        <time>2024-12-29T13:18:59Z</time>
      </trkpt>
      <trkpt lat="43.53448" lon="6.61287">
        <ele>378.5</ele>
        <time>2024-12-29T13:19:04.499Z</time>
      </trkpt>
      <trkpt lat="43.53443" lon="6.6129">
        <ele>378.1</ele>
        <time>2024-12-29T13:19:10Z</time>
      </trkpt>
      <trkpt lat="43.53436" lon="6.61294">
        <ele>377.4</ele>
        <time>2024-12-29T13:19:15.999Z</time>
      </trkpt>
      <trkpt lat="43.53429" lon="6.61298">
        <ele>376.5</ele>
        <time>2024-12-29T13:19:22Z</time>
      </trkpt>
      <trkpt lat="43.53422" lon="6.61303">
        <ele>375.9</ele>
        <time>2024-12-29T13:19:27.499Z</time>
      </trkpt>
      <trkpt lat="43.53416" lon="6.61308">
        <ele>375.5</ele>
        <time>2024-12-29T13:19:33Z</time>
      </trkpt>
      <trkpt lat="43.5341" lon="6.61313">
        <ele>375.2</ele>
        <time>2024-12-29T13:19:37.499Z</time>
      </trkpt>
      <trkpt lat="43.53405" lon="6.61317">
        <ele>374.8</ele>
        <time>2024-12-29T13:19:42Z</time>
      </trkpt>
      <trkpt lat="43.53401" lon="6.61323">
        <ele>375.2</ele>
        <time>2024-12-29T13:19:46.999Z</time>
      </trkpt>
      <trkpt lat="43.53397" lon="6.61328">
        <ele>375.2</ele>
        <time>2024-12-29T13:19:52Z</time>
      </trkpt>
      <trkpt lat="43.53393" lon="6.61335">
        <ele>375.7</ele>
        <time>2024-12-29T13:19:56.999Z</time>
      </trkpt>
      <trkpt lat="43.53389" lon="6.61341">
        <ele>375.7</ele>
        <time>2024-12-29T13:20:02Z</time>
      </trkpt>
      <trkpt lat="43.53385" lon="6.61346">
        <ele>375.3</ele>
        <time>2024-12-29T13:20:06.499Z</time>
      </trkpt>
      <trkpt lat="43.53381" lon="6.6135">
        <ele>374.7</ele>
        <time>2024-12-29T13:20:11Z</time>
      </trkpt>
      <trkpt lat="43.53379" lon="6.61356">
        <ele>375.1</ele>
        <time>2024-12-29T13:20:15.499Z</time>
      </trkpt>
      <trkpt lat="43.53376" lon="6.61362">
        <ele>375.1</ele>
        <time>2024-12-29T13:20:20Z</time>
      </trkpt>
      <trkpt lat="43.5337" lon="6.61371">
        <ele>374.4</ele>
        <time>2024-12-29T13:20:35Z</time>
      </trkpt>
      <trkpt lat="43.53366" lon="6.61375">
        <ele>373.5</ele>
        <time>2024-12-29T13:20:38.999Z</time>
      </trkpt>
      <trkpt lat="43.53363" lon="6.61379">
        <ele>373</ele>
        <time>2024-12-29T13:20:43Z</time>
      </trkpt>
      <trkpt lat="43.5336" lon="6.61386">
        <ele>373.1</ele>
        <time>2024-12-29T13:20:46.999Z</time>
      </trkpt>
      <trkpt lat="43.53357" lon="6.61392">
        <ele>373.1</ele>
        <time>2024-12-29T13:20:51Z</time>
      </trkpt>
      <trkpt lat="43.53353" lon="6.61398">
        <ele>372.7</ele>
        <time>2024-12-29T13:20:54.999Z</time>
      </trkpt>
      <trkpt lat="43.53349" lon="6.61403">
        <ele>372.2</ele>
        <time>2024-12-29T13:20:59Z</time>
      </trkpt>
      <trkpt lat="43.53346" lon="6.61409">
        <ele>372.2</ele>
        <time>2024-12-29T13:21:03.499Z</time>
      </trkpt>
      <trkpt lat="43.53344" lon="6.61414">
        <ele>372.4</ele>
        <time>2024-12-29T13:21:08Z</time>
      </trkpt>
      <trkpt lat="43.5334" lon="6.61423">
        <ele>372.1</ele>
        <time>2024-12-29T13:21:32Z</time>
      </trkpt>
      <trkpt lat="43.53338" lon="6.6143">
        <ele>372.2</ele>
        <time>2024-12-29T13:21:36.499Z</time>
      </trkpt>
      <trkpt lat="43.53336" lon="6.61436">
        <ele>372.1</ele>
        <time>2024-12-29T13:21:41Z</time>
      </trkpt>
      <trkpt lat="43.53335" lon="6.61448">
        <ele>372.7</ele>
        <time>2024-12-29T13:21:49Z</time>
      </trkpt>
      <trkpt lat="43.53333" lon="6.61458">
        <ele>371.9</ele>
        <time>2024-12-29T13:21:59.086Z</time>
      </trkpt>
      <trkpt lat="43.53333" lon="6.61466">
        <ele>371.9</ele>
        <time>2024-12-29T13:22:07Z</time>
      </trkpt>
      <trkpt lat="43.53333" lon="6.61475">
        <ele>371.9</ele>
        <time>2024-12-29T13:22:17Z</time>
      </trkpt>
      <trkpt lat="43.53335" lon="6.61483">
        <ele>372.7</ele>
        <time>2024-12-29T13:23:00Z</time>
      </trkpt>
      <trkpt lat="43.53335" lon="6.6149">
        <ele>372.8</ele>
        <time>2024-12-29T13:23:03.999Z</time>
      </trkpt>
      <trkpt lat="43.53334" lon="6.61498">
        <ele>372.3</ele>
        <time>2024-12-29T13:23:08Z</time>
      </trkpt>
      <trkpt lat="43.53336" lon="6.61505">
        <ele>372.9</ele>
        <time>2024-12-29T13:23:12.000Z</time>
      </trkpt>
      <trkpt lat="43.53337" lon="6.61512">
        <ele>372.9</ele>
        <time>2024-12-29T13:23:16Z</time>
      </trkpt>
      <trkpt lat="43.53337" lon="6.61519">
        <ele>372.4</ele>
        <time>2024-12-29T13:23:20.000Z</time>
      </trkpt>
      <trkpt lat="43.53338" lon="6.61526">
        <ele>372.5</ele>
        <time>2024-12-29T13:23:24Z</time>
      </trkpt>
      <trkpt lat="43.53339" lon="6.61538">
        <ele>372.8</ele>
        <time>2024-12-29T13:23:31Z</time>
      </trkpt>
      <trkpt lat="43.5334" lon="6.61545">
        <ele>373.2</ele>
        <time>2024-12-29T13:23:35.000Z</time>
      </trkpt>
      <trkpt lat="43.53341" lon="6.61553">
        <ele>373.6</ele>
        <time>2024-12-29T13:23:39Z</time>
      </trkpt>
      <trkpt lat="43.53342" lon="6.6156">
        <ele>373.9</ele>
        <time>2024-12-29T13:23:43.000Z</time>
      </trkpt>
      <trkpt lat="43.53342" lon="6.61567">
        <ele>373.6</ele>
        <time>2024-12-29T13:23:47Z</time>
      </trkpt>
      <trkpt lat="43.53342" lon="6.61573">
        <ele>373.4</ele>
        <time>2024-12-29T13:23:50.500Z</time>
      </trkpt>
      <trkpt lat="43.53342" lon="6.6158">
        <ele>373.2</ele>
        <time>2024-12-29T13:23:54Z</time>
      </trkpt>
      <trkpt lat="43.53343" lon="6.61586">
        <ele>373.5</ele>
        <time>2024-12-29T13:23:57.500Z</time>
      </trkpt>
      <trkpt lat="43.53343" lon="6.61593">
        <ele>373.3</ele>
        <time>2024-12-29T13:24:01Z</time>
      </trkpt>
      <trkpt lat="43.53344" lon="6.61599">
        <ele>373.6</ele>
        <time>2024-12-29T13:24:04.500Z</time>
      </trkpt>
      <trkpt lat="43.53345" lon="6.61606">
        <ele>374</ele>
        <time>2024-12-29T13:24:08Z</time>
      </trkpt>
      <trkpt lat="43.53346" lon="6.61614">
        <ele>374.3</ele>
        <time>2024-12-29T13:24:12.000Z</time>
      </trkpt>
      <trkpt lat="43.53347" lon="6.61621">
        <ele>374.5</ele>
        <time>2024-12-29T13:24:16Z</time>
      </trkpt>
      <trkpt lat="43.53347" lon="6.61628">
        <ele>374.3</ele>
        <time>2024-12-29T13:24:19.500Z</time>
      </trkpt>
      <trkpt lat="43.53348" lon="6.61635">
        <ele>374.5</ele>
        <time>2024-12-29T13:24:23Z</time>
      </trkpt>
      <trkpt lat="43.53347" lon="6.61642">
        <ele>374.5</ele>
        <time>2024-12-29T13:24:26.499Z</time>
      </trkpt>
      <trkpt lat="43.53346" lon="6.61649">
        <ele>375.3</ele>
        <time>2024-12-29T13:24:30Z</time>
      </trkpt>
      <trkpt lat="43.53344" lon="6.61656">
        <ele>375.8</ele>
        <time>2024-12-29T13:24:33.499Z</time>
      </trkpt>
      <trkpt lat="43.53342" lon="6.61662">
        <ele>376.2</ele>
        <time>2024-12-29T13:24:37Z</time>
      </trkpt>
      <trkpt lat="43.5334" lon="6.61669">
        <ele>376.7</ele>
        <time>2024-12-29T13:24:40.499Z</time>
      </trkpt>
      <trkpt lat="43.53338" lon="6.61675">
        <ele>376.9</ele>
        <time>2024-12-29T13:24:44Z</time>
      </trkpt>
      <trkpt lat="43.53335" lon="6.6168">
        <ele>376.5</ele>
        <time>2024-12-29T13:24:47.999Z</time>
      </trkpt>
      <trkpt lat="43.53331" lon="6.61686">
        <ele>376.2</ele>
        <time>2024-12-29T13:24:52Z</time>
      </trkpt>
      <trkpt lat="43.53329" lon="6.61692">
        <ele>376.7</ele>
        <time>2024-12-29T13:24:55.999Z</time>
      </trkpt>
      <trkpt lat="43.53326" lon="6.61698">
        <ele>376.5</ele>
        <time>2024-12-29T13:25:00Z</time>
      </trkpt>
      <trkpt lat="43.53324" lon="6.61704">
        <ele>376.2</ele>
        <time>2024-12-29T13:25:04.499Z</time>
      </trkpt>
      <trkpt lat="43.53322" lon="6.6171">
        <ele>376</ele>
        <time>2024-12-29T13:25:09Z</time>
      </trkpt>
      <trkpt lat="43.53318" lon="6.6172">
        <ele>375.7</ele>
        <time>2024-12-29T13:25:19Z</time>
      </trkpt>
      <trkpt lat="43.53313" lon="6.61721">
        <ele>375</ele>
        <time>2024-12-29T13:25:26.000Z</time>
      </trkpt>
      <trkpt lat="43.53308" lon="6.61721">
        <ele>374.3</ele>
        <time>2024-12-29T13:25:33Z</time>
      </trkpt>
      <trkpt lat="43.53303" lon="6.61721">
        <ele>373.8</ele>
        <time>2024-12-29T13:25:36.500Z</time>
      </trkpt>
      <trkpt lat="43.53298" lon="6.61722">
        <ele>373.7</ele>
        <time>2024-12-29T13:25:40Z</time>
      </trkpt>
      <trkpt lat="43.53294" lon="6.61722">
        <ele>373.5</ele>
        <time>2024-12-29T13:25:43.500Z</time>
      </trkpt>
      <trkpt lat="43.53289" lon="6.61722">
        <ele>373.4</ele>
        <time>2024-12-29T13:25:47Z</time>
      </trkpt>
      <trkpt lat="43.53284" lon="6.61721">
        <ele>373</ele>
        <time>2024-12-29T13:25:52.500Z</time>
      </trkpt>
      <trkpt lat="43.5328" lon="6.6172">
        <ele>372.7</ele>
        <time>2024-12-29T13:25:58Z</time>
      </trkpt>
      <trkpt lat="43.53274" lon="6.61717">
        <ele>371.6</ele>
        <time>2024-12-29T13:26:06.499Z</time>
      </trkpt>
      <trkpt lat="43.53269" lon="6.61715">
        <ele>370.8</ele>
        <time>2024-12-29T13:26:15Z</time>
      </trkpt>
      <trkpt lat="43.53263" lon="6.61711">
        <ele>369.7</ele>
        <time>2024-12-29T13:26:19.999Z</time>
      </trkpt>
      <trkpt lat="43.53257" lon="6.61707">
        <ele>368.9</ele>
        <time>2024-12-29T13:26:25Z</time>
      </trkpt>
      <trkpt lat="43.53251" lon="6.61709">
        <ele>368.6</ele>
        <time>2024-12-29T13:26:28.587Z</time>
      </trkpt>
      <trkpt lat="43.53248" lon="6.61709">
        <ele>368.2</ele>
        <time>2024-12-29T13:26:30.338Z</time>
      </trkpt>
      <trkpt lat="43.53243" lon="6.6171">
        <ele>367.5</ele>
        <time>2024-12-29T13:26:33.311Z</time>
      </trkpt>
      <trkpt lat="43.53236" lon="6.61706">
        <ele>366.6</ele>
        <time>2024-12-29T13:26:37.655Z</time>
      </trkpt>
      <trkpt lat="43.5323" lon="6.61702">
        <ele>366</ele>
        <time>2024-12-29T13:26:38.340Z</time>
      </trkpt>
      <trkpt lat="43.53223" lon="6.61698">
        <ele>365.7</ele>
        <time>2024-12-29T13:26:39.025Z</time>
      </trkpt>
      <trkpt lat="43.53219" lon="6.61701">
        <ele>365.2</ele>
        <time>2024-12-29T13:26:39.463Z</time>
      </trkpt>
      <trkpt lat="43.53215" lon="6.61697">
        <ele>365.7</ele>
        <time>2024-12-29T13:26:39.959Z</time>
      </trkpt>
      <trkpt lat="43.53211" lon="6.61692">
        <ele>365.9</ele>
        <time>2024-12-29T13:26:40.456Z</time>
      </trkpt>
      <trkpt lat="43.53208" lon="6.61692">
        <ele>365.9</ele>
        <time>2024-12-29T13:26:40.744Z</time>
      </trkpt>
      <trkpt lat="43.53204" lon="6.61686">
        <ele>365.5</ele>
        <time>2024-12-29T13:26:41.371Z</time>
      </trkpt>
      <trkpt lat="43.53199" lon="6.61679">
        <ele>365</ele>
        <time>2024-12-29T13:26:42Z</time>
      </trkpt>
      <trkpt lat="43.53203" lon="6.61683">
        <ele>365.3</ele>
        <time>2024-12-29T13:26:42.211Z</time>
      </trkpt>
      <trkpt lat="43.53207" lon="6.61687">
        <ele>365.6</ele>
        <time>2024-12-29T13:26:42.422Z</time>
      </trkpt>
      <trkpt lat="43.5321" lon="6.6169">
        <ele>365.8</ele>
        <time>2024-12-29T13:26:42.633Z</time>
      </trkpt>
      <trkpt lat="43.53214" lon="6.61694">
        <ele>366</ele>
        <time>2024-12-29T13:26:42.844Z</time>
      </trkpt>
      <trkpt lat="43.5322" lon="6.61698">
        <ele>365.6</ele>
        <time>2024-12-29T13:26:43.147Z</time>
      </trkpt>
      <trkpt lat="43.53226" lon="6.61702">
        <ele>365.6</ele>
        <time>2024-12-29T13:26:43.451Z</time>
      </trkpt>
      <trkpt lat="43.53234" lon="6.61702">
        <ele>366.5</ele>
        <time>2024-12-29T13:26:43.816Z</time>
      </trkpt>
      <trkpt lat="43.53235" lon="6.61705">
        <ele>366.5</ele>
        <time>2024-12-29T13:26:43.926Z</time>
      </trkpt>
      <trkpt lat="43.53241" lon="6.61708">
        <ele>367.2</ele>
        <time>2024-12-29T13:26:45.852Z</time>
      </trkpt>
      <trkpt lat="43.53246" lon="6.61709">
        <ele>367.9</ele>
        <time>2024-12-29T13:26:47.185Z</time>
      </trkpt>
      <trkpt lat="43.5325" lon="6.6171">
        <ele>368.6</ele>
        <time>2024-12-29T13:26:48.518Z</time>
      </trkpt>
      <trkpt lat="43.53255" lon="6.6171">
        <ele>369</ele>
        <time>2024-12-29T13:26:49.852Z</time>
      </trkpt>
      <trkpt lat="43.53259" lon="6.61711">
        <ele>369.4</ele>
        <time>2024-12-29T13:26:51.186Z</time>
      </trkpt>
      <trkpt lat="43.53263" lon="6.61714">
        <ele>370</ele>
        <time>2024-12-29T13:26:52.593Z</time>
      </trkpt>
      <trkpt lat="43.53268" lon="6.61718">
        <ele>371</ele>
        <time>2024-12-29T13:26:54Z</time>
      </trkpt>
      <trkpt lat="43.53273" lon="6.61716">
        <ele>371.3</ele>
        <time>2024-12-29T13:27:00.500Z</time>
      </trkpt>
      <trkpt lat="43.53278" lon="6.61714">
        <ele>371.5</ele>
        <time>2024-12-29T13:27:07Z</time>
      </trkpt>
      <trkpt lat="43.53286" lon="6.61717">
        <ele>372.5</ele>
        <time>2024-12-29T13:27:26Z</time>
      </trkpt>
      <trkpt lat="43.53291" lon="6.61718">
        <ele>372.9</ele>
        <time>2024-12-29T13:27:31.000Z</time>
      </trkpt>
      <trkpt lat="43.53296" lon="6.61718">
        <ele>373.2</ele>
        <time>2024-12-29T13:27:36Z</time>
      </trkpt>
      <trkpt lat="43.53301" lon="6.61719">
        <ele>373.5</ele>
        <time>2024-12-29T13:27:40.000Z</time>
      </trkpt>
      <trkpt lat="43.53307" lon="6.61719">
        <ele>374</ele>
        <time>2024-12-29T13:27:44Z</time>
      </trkpt>
      <trkpt lat="43.53311" lon="6.61721">
        <ele>374.7</ele>
        <time>2024-12-29T13:27:48.500Z</time>
      </trkpt>
      <trkpt lat="43.53316" lon="6.61722">
        <ele>375.5</ele>
        <time>2024-12-29T13:27:53Z</time>
      </trkpt>
      <trkpt lat="43.5332" lon="6.61727">
        <ele>375.4</ele>
        <time>2024-12-29T13:27:57.000Z</time>
      </trkpt>
      <trkpt lat="43.53325" lon="6.61732">
        <ele>375.4</ele>
        <time>2024-12-29T13:28:01Z</time>
      </trkpt>
      <trkpt lat="43.53329" lon="6.61737">
        <ele>375.2</ele>
        <time>2024-12-29T13:28:04.500Z</time>
      </trkpt>
      <trkpt lat="43.53332" lon="6.61742">
        <ele>375</ele>
        <time>2024-12-29T13:28:08Z</time>
      </trkpt>
      <trkpt lat="43.53336" lon="6.61747">
        <ele>375</ele>
        <time>2024-12-29T13:28:11.500Z</time>
      </trkpt>
      <trkpt lat="43.53339" lon="6.61752">
        <ele>375.3</ele>
        <time>2024-12-29T13:28:15Z</time>
      </trkpt>
      <trkpt lat="43.53337" lon="6.61759">
        <ele>374.9</ele>
        <time>2024-12-29T13:28:18.499Z</time>
      </trkpt>
      <trkpt lat="43.53336" lon="6.61766">
        <ele>374.7</ele>
        <time>2024-12-29T13:28:22Z</time>
      </trkpt>
      <trkpt lat="43.53333" lon="6.61772">
        <ele>374</ele>
        <time>2024-12-29T13:28:25.499Z</time>
      </trkpt>
      <trkpt lat="43.5333" lon="6.61778">
        <ele>373.7</ele>
        <time>2024-12-29T13:28:29Z</time>
      </trkpt>
      <trkpt lat="43.53327" lon="6.61783">
        <ele>373.6</ele>
        <time>2024-12-29T13:28:32.499Z</time>
      </trkpt>
      <trkpt lat="43.53324" lon="6.61789">
        <ele>373.5</ele>
        <time>2024-12-29T13:28:36Z</time>
      </trkpt>
      <trkpt lat="43.53322" lon="6.61795">
        <ele>373.5</ele>
        <time>2024-12-29T13:28:39.499Z</time>
      </trkpt>
      <trkpt lat="43.5332" lon="6.61801">
        <ele>373.4</ele>
        <time>2024-12-29T13:28:43Z</time>
      </trkpt>
      <trkpt lat="43.53316" lon="6.61809">
        <ele>372.4</ele>
        <time>2024-12-29T13:31:30Z</time>
      </trkpt>
      <trkpt lat="43.53321" lon="6.61818">
        <ele>372.3</ele>
        <time>2024-12-29T13:32:39Z</time>
      </trkpt>
      <trkpt lat="43.5332" lon="6.61826">
        <ele>371.1</ele>
        <time>2024-12-29T13:32:55.499Z</time>
      </trkpt>
      <trkpt lat="43.53319" lon="6.61835">
        <ele>369.7</ele>
        <time>2024-12-29T13:33:12Z</time>
      </trkpt>
      <trkpt lat="43.53323" lon="6.61842">
        <ele>370.1</ele>
        <time>2024-12-29T13:33:16.500Z</time>
      </trkpt>
      <trkpt lat="43.53327" lon="6.61849">
        <ele>370.3</ele>
        <time>2024-12-29T13:33:21Z</time>
      </trkpt>
      <trkpt lat="43.53329" lon="6.61854">
        <ele>370.1</ele>
        <time>2024-12-29T13:33:25.000Z</time>
      </trkpt>
      <trkpt lat="43.53332" lon="6.6186">
        <ele>369.9</ele>
        <time>2024-12-29T13:33:29Z</time>
      </trkpt>
      <trkpt lat="43.53336" lon="6.61869">
        <ele>369.9</ele>
        <time>2024-12-29T13:33:37Z</time>
      </trkpt>
      <trkpt lat="43.53341" lon="6.61879">
        <ele>369.9</ele>
        <time>2024-12-29T13:33:44Z</time>
      </trkpt>
      <trkpt lat="43.53345" lon="6.61887">
        <ele>369.8</ele>
        <time>2024-12-29T13:33:51Z</time>
      </trkpt>
      <trkpt lat="43.53348" lon="6.61893">
        <ele>370</ele>
        <time>2024-12-29T13:33:55.000Z</time>
      </trkpt>
      <trkpt lat="43.53351" lon="6.61898">
        <ele>370.2</ele>
        <time>2024-12-29T13:33:59Z</time>
      </trkpt>
      <trkpt lat="43.53354" lon="6.61905">
        <ele>370.3</ele>
        <time>2024-12-29T13:34:03.500Z</time>
      </trkpt>
      <trkpt lat="43.53358" lon="6.61911">
        <ele>370.2</ele>
        <time>2024-12-29T13:34:08Z</time>
      </trkpt>
      <trkpt lat="43.53361" lon="6.61918">
        <ele>369.9</ele>
        <time>2024-12-29T13:34:12.000Z</time>
      </trkpt>
      <trkpt lat="43.53364" lon="6.61924">
        <ele>369.8</ele>
        <time>2024-12-29T13:34:16Z</time>
      </trkpt>
      <trkpt lat="43.53368" lon="6.6193">
        <ele>370</ele>
        <time>2024-12-29T13:34:20.000Z</time>
      </trkpt>
      <trkpt lat="43.53372" lon="6.61935">
        <ele>370.5</ele>
        <time>2024-12-29T13:34:24Z</time>
      </trkpt>
      <trkpt lat="43.53376" lon="6.61942">
        <ele>370.9</ele>
        <time>2024-12-29T13:34:28.000Z</time>
      </trkpt>
      <trkpt lat="43.5338" lon="6.61949">
        <ele>371.8</ele>
        <time>2024-12-29T13:34:32Z</time>
      </trkpt>
      <trkpt lat="43.5338" lon="6.6196">
        <ele>371.9</ele>
        <time>2024-12-29T13:34:40Z</time>
      </trkpt>
      <trkpt lat="43.53377" lon="6.61967">
        <ele>371.4</ele>
        <time>2024-12-29T13:34:43.999Z</time>
      </trkpt>
      <trkpt lat="43.53374" lon="6.61974">
        <ele>371.1</ele>
        <time>2024-12-29T13:34:48Z</time>
      </trkpt>
      <trkpt lat="43.5337" lon="6.61979">
        <ele>371.2</ele>
        <time>2024-12-29T13:34:51.999Z</time>
      </trkpt>
      <trkpt lat="43.53366" lon="6.61984">
        <ele>371.3</ele>
        <time>2024-12-29T13:34:56Z</time>
      </trkpt>
      <trkpt lat="43.53361" lon="6.61992">
        <ele>371.5</ele>
        <time>2024-12-29T13:35:05Z</time>
      </trkpt>
      <trkpt lat="43.53357" lon="6.61997">
        <ele>371.5</ele>
        <time>2024-12-29T13:35:09.999Z</time>
      </trkpt>
      <trkpt lat="43.53352" lon="6.62001">
        <ele>370.9</ele>
        <time>2024-12-29T13:35:15Z</time>
      </trkpt>
      <trkpt lat="43.53346" lon="6.62006">
        <ele>370.3</ele>
        <time>2024-12-29T13:35:20.999Z</time>
      </trkpt>
      <trkpt lat="43.53339" lon="6.62012">
        <ele>369.6</ele>
        <time>2024-12-29T13:35:27Z</time>
      </trkpt>
      <trkpt lat="43.53335" lon="6.62016">
        <ele>369.3</ele>
        <time>2024-12-29T13:35:30.999Z</time>
      </trkpt>
      <trkpt lat="43.53331" lon="6.6202">
        <ele>369</ele>
        <time>2024-12-29T13:35:35Z</time>
      </trkpt>
      <trkpt lat="43.53326" lon="6.62025">
        <ele>368.7</ele>
        <time>2024-12-29T13:35:39.999Z</time>
      </trkpt>
      <trkpt lat="43.53322" lon="6.62031">
        <ele>368.8</ele>
        <time>2024-12-29T13:35:45Z</time>
      </trkpt>
      <trkpt lat="43.53318" lon="6.62036">
        <ele>368.7</ele>
        <time>2024-12-29T13:35:49.499Z</time>
      </trkpt>
      <trkpt lat="43.53314" lon="6.62041">
        <ele>368.7</ele>
        <time>2024-12-29T13:35:54Z</time>
      </trkpt>
      <trkpt lat="43.5331" lon="6.62046">
        <ele>368.5</ele>
        <time>2024-12-29T13:35:58.499Z</time>
      </trkpt>
      <trkpt lat="43.53306" lon="6.62051">
        <ele>368.3</ele>
        <time>2024-12-29T13:36:03Z</time>
      </trkpt>
      <trkpt lat="43.53303" lon="6.62057">
        <ele>368.4</ele>
        <time>2024-12-29T13:36:07.999Z</time>
      </trkpt>
      <trkpt lat="43.533" lon="6.62063">
        <ele>368.3</ele>
        <time>2024-12-29T13:36:13Z</time>
      </trkpt>
      <trkpt lat="43.53297" lon="6.62071">
        <ele>368.5</ele>
        <time>2024-12-29T13:36:17.999Z</time>
      </trkpt>
      <trkpt lat="43.53293" lon="6.62078">
        <ele>368.2</ele>
        <time>2024-12-29T13:36:23Z</time>
      </trkpt>
      <trkpt lat="43.53289" lon="6.62087">
        <ele>367.8</ele>
        <time>2024-12-29T13:36:28.999Z</time>
      </trkpt>
      <trkpt lat="43.53285" lon="6.62096">
        <ele>367.1</ele>
        <time>2024-12-29T13:36:35Z</time>
      </trkpt>
      <trkpt lat="43.53279" lon="6.62105">
        <ele>365.9</ele>
        <time>2024-12-29T13:36:44Z</time>
      </trkpt>
      <trkpt lat="43.53277" lon="6.62111">
        <ele>365.8</ele>
        <time>2024-12-29T13:36:47.999Z</time>
      </trkpt>
      <trkpt lat="43.53274" lon="6.62116">
        <ele>365.4</ele>
        <time>2024-12-29T13:36:52Z</time>
      </trkpt>
      <trkpt lat="43.53272" lon="6.62124">
        <ele>365.7</ele>
        <time>2024-12-29T13:36:55.367Z</time>
      </trkpt>
      <trkpt lat="43.53271" lon="6.62131">
        <ele>366.1</ele>
        <time>2024-12-29T13:36:58.734Z</time>
      </trkpt>
      <trkpt lat="43.53269" lon="6.62133">
        <ele>365.9</ele>
        <time>2024-12-29T13:37:00Z</time>
      </trkpt>
      <trkpt lat="43.53263" lon="6.6214">
        <ele>365.4</ele>
        <time>2024-12-29T13:37:08Z</time>
      </trkpt>
      <trkpt lat="43.5326" lon="6.62145">
        <ele>365</ele>
        <time>2024-12-29T13:37:12.499Z</time>
      </trkpt>
      <trkpt lat="43.53256" lon="6.6215">
        <ele>364.5</ele>
        <time>2024-12-29T13:37:17Z</time>
      </trkpt>
      <trkpt lat="43.53253" lon="6.62157">
        <ele>364.2</ele>
        <time>2024-12-29T13:37:20.999Z</time>
      </trkpt>
      <trkpt lat="43.53251" lon="6.62164">
        <ele>364.1</ele>
        <time>2024-12-29T13:37:25Z</time>
      </trkpt>
      <trkpt lat="43.53248" lon="6.62172">
        <ele>363.8</ele>
        <time>2024-12-29T13:37:29.499Z</time>
      </trkpt>
      <trkpt lat="43.53245" lon="6.6218">
        <ele>363.2</ele>
        <time>2024-12-29T13:37:34Z</time>
      </trkpt>
      <trkpt lat="43.53245" lon="6.62188">
        <ele>363.3</ele>
        <time>2024-12-29T13:37:38.000Z</time>
      </trkpt>
      <trkpt lat="43.53245" lon="6.62195">
        <ele>363.4</ele>
        <time>2024-12-29T13:37:42Z</time>
      </trkpt>
      <trkpt lat="43.53247" lon="6.62202">
        <ele>363.5</ele>
        <time>2024-12-29T13:37:46.000Z</time>
      </trkpt>
      <trkpt lat="43.53248" lon="6.6221">
        <ele>363</ele>
        <time>2024-12-29T13:37:50Z</time>
      </trkpt>
      <trkpt lat="43.5325" lon="6.62221">
        <ele>362.1</ele>
        <time>2024-12-29T13:37:57Z</time>
      </trkpt>
      <trkpt lat="43.53246" lon="6.6223">
        <ele>363.1</ele>
        <time>2024-12-29T13:38:05.208Z</time>
      </trkpt>
      <trkpt lat="43.53242" lon="6.62228">
        <ele>363.2</ele>
        <time>2024-12-29T13:38:10Z</time>
      </trkpt>
      <trkpt lat="43.53237" lon="6.62226">
        <ele>363.1</ele>
        <time>2024-12-29T13:38:13.999Z</time>
      </trkpt>
      <trkpt lat="43.53232" lon="6.62223">
        <ele>362.3</ele>
        <time>2024-12-29T13:38:17.999Z</time>
      </trkpt>
      <trkpt lat="43.53228" lon="6.62221">
        <ele>361.8</ele>
        <time>2024-12-29T13:38:21.999Z</time>
      </trkpt>
      <trkpt lat="43.53223" lon="6.62218">
        <ele>361.1</ele>
        <time>2024-12-29T13:38:26Z</time>
      </trkpt>
      <trkpt lat="43.53218" lon="6.62215">
        <ele>361.1</ele>
        <time>2024-12-29T13:38:29.999Z</time>
      </trkpt>
      <trkpt lat="43.53214" lon="6.62212">
        <ele>360.9</ele>
        <time>2024-12-29T13:38:33.999Z</time>
      </trkpt>
      <trkpt lat="43.53209" lon="6.62209">
        <ele>360.6</ele>
        <time>2024-12-29T13:38:37.999Z</time>
      </trkpt>
      <trkpt lat="43.53204" lon="6.62206">
        <ele>360.1</ele>
        <time>2024-12-29T13:38:42Z</time>
      </trkpt>
      <trkpt lat="43.53198" lon="6.62201">
        <ele>358.7</ele>
        <time>2024-12-29T13:38:47.499Z</time>
      </trkpt>
      <trkpt lat="43.53193" lon="6.62196">
        <ele>356.8</ele>
        <time>2024-12-29T13:38:52.999Z</time>
      </trkpt>
      <trkpt lat="43.53187" lon="6.62192">
        <ele>356</ele>
        <time>2024-12-29T13:38:58.499Z</time>
      </trkpt>
      <trkpt lat="43.53181" lon="6.62187">
        <ele>355.6</ele>
        <time>2024-12-29T13:39:04Z</time>
      </trkpt>
      <trkpt lat="43.53176" lon="6.62187">
        <ele>356.2</ele>
        <time>2024-12-29T13:39:08.500Z</time>
      </trkpt>
      <trkpt lat="43.5317" lon="6.62187">
        <ele>356.8</ele>
        <time>2024-12-29T13:39:13Z</time>
      </trkpt>
      <trkpt lat="43.53165" lon="6.62187">
        <ele>357.2</ele>
        <time>2024-12-29T13:39:17.500Z</time>
      </trkpt>
      <trkpt lat="43.53159" lon="6.62187">
        <ele>357.2</ele>
        <time>2024-12-29T13:39:22Z</time>
      </trkpt>
      <trkpt lat="43.53155" lon="6.62187">
        <ele>357.2</ele>
        <time>2024-12-29T13:39:25.500Z</time>
      </trkpt>
      <trkpt lat="43.5315" lon="6.62187">
        <ele>357.2</ele>
        <time>2024-12-29T13:39:29.000Z</time>
      </trkpt>
      <trkpt lat="43.53145" lon="6.62187">
        <ele>357.1</ele>
        <time>2024-12-29T13:39:32.500Z</time>
      </trkpt>
      <trkpt lat="43.5314" lon="6.62188">
        <ele>357.4</ele>
        <time>2024-12-29T13:39:36Z</time>
      </trkpt>
      <trkpt lat="43.53133" lon="6.62185">
        <ele>357.3</ele>
        <time>2024-12-29T13:39:41.249Z</time>
      </trkpt>
      <trkpt lat="43.53127" lon="6.62183">
        <ele>357.3</ele>
        <time>2024-12-29T13:39:46.499Z</time>
      </trkpt>
      <trkpt lat="43.5312" lon="6.62181">
        <ele>357.3</ele>
        <time>2024-12-29T13:39:51.749Z</time>
      </trkpt>
      <trkpt lat="43.53113" lon="6.62179">
        <ele>357.3</ele>
        <time>2024-12-29T13:39:57Z</time>
      </trkpt>
      <trkpt lat="43.53107" lon="6.62175">
        <ele>356.6</ele>
        <time>2024-12-29T13:40:02.499Z</time>
      </trkpt>
      <trkpt lat="43.53101" lon="6.62171">
        <ele>356.2</ele>
        <time>2024-12-29T13:40:08Z</time>
      </trkpt>
      <trkpt lat="43.53097" lon="6.62166">
        <ele>355.4</ele>
        <time>2024-12-29T13:40:11.999Z</time>
      </trkpt>
      <trkpt lat="43.53093" lon="6.62161">
        <ele>354.9</ele>
        <time>2024-12-29T13:40:16Z</time>
      </trkpt>
      <trkpt lat="43.53089" lon="6.62157">
        <ele>354.6</ele>
        <time>2024-12-29T13:40:19.999Z</time>
      </trkpt>
      <trkpt lat="43.53085" lon="6.62153">
        <ele>354.3</ele>
        <time>2024-12-29T13:40:24Z</time>
      </trkpt>
      <trkpt lat="43.53079" lon="6.62152">
        <ele>353.5</ele>
        <time>2024-12-29T13:40:29.999Z</time>
      </trkpt>
      <trkpt lat="43.53074" lon="6.6215">
        <ele>352</ele>
        <time>2024-12-29T13:40:36Z</time>
      </trkpt>
      <trkpt lat="43.53071" lon="6.62154">
        <ele>352.2</ele>
        <time>2024-12-29T13:41:01.999Z</time>
      </trkpt>
      <trkpt lat="43.53067" lon="6.62158">
        <ele>352.5</ele>
        <time>2024-12-29T13:41:28Z</time>
      </trkpt>
      <trkpt lat="43.53065" lon="6.62163">
        <ele>353.2</ele>
        <time>2024-12-29T13:41:31.999Z</time>
      </trkpt>
      <trkpt lat="43.53062" lon="6.62169">
        <ele>353.8</ele>
        <time>2024-12-29T13:41:36Z</time>
      </trkpt>
      <trkpt lat="43.53058" lon="6.62178">
        <ele>354.2</ele>
        <time>2024-12-29T13:41:43Z</time>
      </trkpt>
      <trkpt lat="43.53056" lon="6.62184">
        <ele>354.6</ele>
        <time>2024-12-29T13:41:46.499Z</time>
      </trkpt>
      <trkpt lat="43.53053" lon="6.6219">
        <ele>354.3</ele>
        <time>2024-12-29T13:41:50Z</time>
      </trkpt>
      <trkpt lat="43.5305" lon="6.62195">
        <ele>353.9</ele>
        <time>2024-12-29T13:41:53.999Z</time>
      </trkpt>
      <trkpt lat="43.53047" lon="6.62201">
        <ele>353.5</ele>
        <time>2024-12-29T13:41:58Z</time>
      </trkpt>
      <trkpt lat="43.53044" lon="6.62211">
        <ele>353.6</ele>
        <time>2024-12-29T13:42:05Z</time>
      </trkpt>
      <trkpt lat="43.53041" lon="6.62217">
        <ele>353.1</ele>
        <time>2024-12-29T13:42:08.499Z</time>
      </trkpt>
      <trkpt lat="43.53038" lon="6.62224">
        <ele>352.6</ele>
        <time>2024-12-29T13:42:12Z</time>
      </trkpt>
      <trkpt lat="43.53036" lon="6.6223">
        <ele>352.2</ele>
        <time>2024-12-29T13:42:15.499Z</time>
      </trkpt>
      <trkpt lat="43.53034" lon="6.62236">
        <ele>352</ele>
        <time>2024-12-29T13:42:19Z</time>
      </trkpt>
      <trkpt lat="43.53031" lon="6.62242">
        <ele>351.4</ele>
        <time>2024-12-29T13:42:22.499Z</time>
      </trkpt>
      <trkpt lat="43.53028" lon="6.62248">
        <ele>350.9</ele>
        <time>2024-12-29T13:42:26Z</time>
      </trkpt>
      <trkpt lat="43.53025" lon="6.62258">
        <ele>352.6</ele>
        <time>2024-12-29T13:42:34Z</time>
      </trkpt>
      <trkpt lat="43.53019" lon="6.62261">
        <ele>352.4</ele>
        <time>2024-12-29T13:42:38.499Z</time>
      </trkpt>
      <trkpt lat="43.53013" lon="6.62264">
        <ele>352.1</ele>
        <time>2024-12-29T13:42:43Z</time>
      </trkpt>
      <trkpt lat="43.53007" lon="6.62267">
        <ele>351.8</ele>
        <time>2024-12-29T13:42:48.499Z</time>
      </trkpt>
      <trkpt lat="43.53" lon="6.62269">
        <ele>351.1</ele>
        <time>2024-12-29T13:42:54Z</time>
      </trkpt>
      <trkpt lat="43.52994" lon="6.62272">
        <ele>351.3</ele>
        <time>2024-12-29T13:42:58.999Z</time>
      </trkpt>
      <trkpt lat="43.52989" lon="6.62274">
        <ele>351.4</ele>
        <time>2024-12-29T13:43:04Z</time>
      </trkpt>
      <trkpt lat="43.52983" lon="6.62277">
        <ele>351.6</ele>
        <time>2024-12-29T13:43:07.999Z</time>
      </trkpt>
      <trkpt lat="43.52978" lon="6.6228">
        <ele>351.8</ele>
        <time>2024-12-29T13:43:12Z</time>
      </trkpt>
      <trkpt lat="43.52973" lon="6.62283">
        <ele>351.8</ele>
        <time>2024-12-29T13:43:15.999Z</time>
      </trkpt>
      <trkpt lat="43.52968" lon="6.62286">
        <ele>352</ele>
        <time>2024-12-29T13:43:20Z</time>
      </trkpt>
      <trkpt lat="43.52963" lon="6.6229">
        <ele>352.3</ele>
        <time>2024-12-29T13:43:24.499Z</time>
      </trkpt>
      <trkpt lat="43.52958" lon="6.62294">
        <ele>352.4</ele>
        <time>2024-12-29T13:43:29Z</time>
      </trkpt>
      <trkpt lat="43.52955" lon="6.62298">
        <ele>352.6</ele>
        <time>2024-12-29T13:43:32.999Z</time>
      </trkpt>
      <trkpt lat="43.52951" lon="6.62302">
        <ele>352.5</ele>
        <time>2024-12-29T13:43:37Z</time>
      </trkpt>
      <trkpt lat="43.52948" lon="6.62304">
        <ele>352.3</ele>
        <time>2024-12-29T13:46:37Z</time>
      </trkpt>
      <trkpt lat="43.52944" lon="6.62307">
        <ele>352.1</ele>
        <time>2024-12-29T13:47:09Z</time>
      </trkpt>
      <trkpt lat="43.52942" lon="6.62313">
        <ele>352.5</ele>
        <time>2024-12-29T13:47:22.499Z</time>
      </trkpt>
      <trkpt lat="43.5294" lon="6.62319">
        <ele>352.8</ele>
        <time>2024-12-29T13:47:36Z</time>
      </trkpt>
      <trkpt lat="43.52934" lon="6.62324">
        <ele>352.8</ele>
        <time>2024-12-29T13:47:41.499Z</time>
      </trkpt>
      <trkpt lat="43.52928" lon="6.6233">
        <ele>352.7</ele>
        <time>2024-12-29T13:47:47Z</time>
      </trkpt>
      <trkpt lat="43.52925" lon="6.62335">
        <ele>352.6</ele>
        <time>2024-12-29T13:47:51.999Z</time>
      </trkpt>
      <trkpt lat="43.52921" lon="6.6234">
        <ele>352.3</ele>
        <time>2024-12-29T13:47:57Z</time>
      </trkpt>
      <trkpt lat="43.52918" lon="6.62345">
        <ele>352.1</ele>
        <time>2024-12-29T13:48:02.499Z</time>
      </trkpt>
      <trkpt lat="43.52915" lon="6.62351">
        <ele>352</ele>
        <time>2024-12-29T13:48:08Z</time>
      </trkpt>
      <trkpt lat="43.5291" lon="6.62358">
        <ele>351.8</ele>
        <time>2024-12-29T13:48:17Z</time>
      </trkpt>
      <trkpt lat="43.52907" lon="6.62363">
        <ele>351.5</ele>
        <time>2024-12-29T13:48:20.999Z</time>
      </trkpt>
      <trkpt lat="43.52904" lon="6.62368">
        <ele>350.8</ele>
        <time>2024-12-29T13:48:25Z</time>
      </trkpt>
      <trkpt lat="43.52898" lon="6.62375">
        <ele>349.7</ele>
        <time>2024-12-29T13:48:35Z</time>
      </trkpt>
      <trkpt lat="43.52893" lon="6.62381">
        <ele>348.5</ele>
        <time>2024-12-29T13:48:39.999Z</time>
      </trkpt>
      <trkpt lat="43.52889" lon="6.62386">
        <ele>347.4</ele>
        <time>2024-12-29T13:48:45Z</time>
      </trkpt>
      <trkpt lat="43.52884" lon="6.62393">
        <ele>346.7</ele>
        <time>2024-12-29T13:48:49.999Z</time>
      </trkpt>
      <trkpt lat="43.5288" lon="6.62399">
        <ele>346</ele>
        <time>2024-12-29T13:48:55Z</time>
      </trkpt>
      <trkpt lat="43.52876" lon="6.62403">
        <ele>345.5</ele>
        <time>2024-12-29T13:48:59.499Z</time>
      </trkpt>
      <trkpt lat="43.52871" lon="6.62407">
        <ele>344.9</ele>
        <time>2024-12-29T13:49:04Z</time>
      </trkpt>
      <trkpt lat="43.52867" lon="6.62413">
        <ele>343.9</ele>
        <time>2024-12-29T13:49:08.999Z</time>
      </trkpt>
      <trkpt lat="43.52864" lon="6.62419">
        <ele>343.3</ele>
        <time>2024-12-29T13:49:14Z</time>
      </trkpt>
      <trkpt lat="43.52861" lon="6.62423">
        <ele>343.2</ele>
        <time>2024-12-29T13:49:18.999Z</time>
      </trkpt>
      <trkpt lat="43.52857" lon="6.62427">
        <ele>342.9</ele>
        <time>2024-12-29T13:49:24Z</time>
      </trkpt>
      <trkpt lat="43.52851" lon="6.62436">
        <ele>342.2</ele>
        <time>2024-12-29T13:49:36Z</time>
      </trkpt>
      <trkpt lat="43.52848" lon="6.62441">
        <ele>341.7</ele>
        <time>2024-12-29T13:49:40.999Z</time>
      </trkpt>
      <trkpt lat="43.52844" lon="6.62446">
        <ele>341.1</ele>
        <time>2024-12-29T13:49:46Z</time>
      </trkpt>
      <trkpt lat="43.52839" lon="6.62448">
        <ele>340.5</ele>
        <time>2024-12-29T13:49:52.499Z</time>
      </trkpt>
      <trkpt lat="43.52835" lon="6.62451">
        <ele>340</ele>
        <time>2024-12-29T13:49:59Z</time>
      </trkpt>
      <trkpt lat="43.5283" lon="6.62454">
        <ele>339.1</ele>
        <time>2024-12-29T13:50:03.499Z</time>
      </trkpt>
      <trkpt lat="43.52826" lon="6.62457">
        <ele>338.2</ele>
        <time>2024-12-29T13:50:08Z</time>
      </trkpt>
      <trkpt lat="43.52822" lon="6.62462">
        <ele>337.6</ele>
        <time>2024-12-29T13:50:12.499Z</time>
      </trkpt>
      <trkpt lat="43.52818" lon="6.62468">
        <ele>337.1</ele>
        <time>2024-12-29T13:50:17Z</time>
      </trkpt>
      <trkpt lat="43.52816" lon="6.62476">
        <ele>336.9</ele>
        <time>2024-12-29T13:50:21.499Z</time>
      </trkpt>
      <trkpt lat="43.52815" lon="6.62484">
        <ele>336.3</ele>
        <time>2024-12-29T13:50:26Z</time>
      </trkpt>
      <trkpt lat="43.52816" lon="6.62494">
        <ele>336.3</ele>
        <time>2024-12-29T13:50:35Z</time>
      </trkpt>
      <trkpt lat="43.52817" lon="6.625">
        <ele>336.5</ele>
        <time>2024-12-29T13:50:39.500Z</time>
      </trkpt>
      <trkpt lat="43.52818" lon="6.62506">
        <ele>336.1</ele>
        <time>2024-12-29T13:50:44Z</time>
      </trkpt>
      <trkpt lat="43.5282" lon="6.62512">
        <ele>336</ele>
        <time>2024-12-29T13:50:48.500Z</time>
      </trkpt>
      <trkpt lat="43.52822" lon="6.62519">
        <ele>335.8</ele>
        <time>2024-12-29T13:50:53Z</time>
      </trkpt>
      <trkpt lat="43.52824" lon="6.62525">
        <ele>335.7</ele>
        <time>2024-12-29T13:50:57.500Z</time>
      </trkpt>
      <trkpt lat="43.52827" lon="6.62531">
        <ele>335.9</ele>
        <time>2024-12-29T13:51:02Z</time>
      </trkpt>
      <trkpt lat="43.52829" lon="6.62539">
        <ele>335</ele>
        <time>2024-12-29T13:51:06.500Z</time>
      </trkpt>
      <trkpt lat="43.52832" lon="6.62547">
        <ele>334.4</ele>
        <time>2024-12-29T13:51:11Z</time>
      </trkpt>
      <trkpt lat="43.52834" lon="6.62558">
        <ele>333.3</ele>
        <time>2024-12-29T13:51:19Z</time>
      </trkpt>
      <trkpt lat="43.52834" lon="6.62569">
        <ele>333.3</ele>
        <time>2024-12-29T13:51:28Z</time>
      </trkpt>
      <trkpt lat="43.52832" lon="6.62575">
        <ele>332.6</ele>
        <time>2024-12-29T13:51:32.499Z</time>
      </trkpt>
      <trkpt lat="43.5283" lon="6.62582">
        <ele>332</ele>
        <time>2024-12-29T13:51:37Z</time>
      </trkpt>
      <trkpt lat="43.52825" lon="6.6259">
        <ele>332.1</ele>
        <time>2024-12-29T13:51:42.999Z</time>
      </trkpt>
      <trkpt lat="43.52821" lon="6.62597">
        <ele>332.2</ele>
        <time>2024-12-29T13:51:49Z</time>
      </trkpt>
      <trkpt lat="43.52816" lon="6.62603">
        <ele>331.6</ele>
        <time>2024-12-29T13:51:54.499Z</time>
      </trkpt>
      <trkpt lat="43.52811" lon="6.62609">
        <ele>330.8</ele>
        <time>2024-12-29T13:52:00Z</time>
      </trkpt>
      <trkpt lat="43.52803" lon="6.62613">
        <ele>329.2</ele>
        <time>2024-12-29T13:52:09Z</time>
      </trkpt>
      <trkpt lat="43.52797" lon="6.62616">
        <ele>329.1</ele>
        <time>2024-12-29T13:52:12.999Z</time>
      </trkpt>
      <trkpt lat="43.52792" lon="6.62619">
        <ele>329</ele>
        <time>2024-12-29T13:52:17Z</time>
      </trkpt>
      <trkpt lat="43.52786" lon="6.6262">
        <ele>328</ele>
        <time>2024-12-29T13:52:22.500Z</time>
      </trkpt>
      <trkpt lat="43.5278" lon="6.62621">
        <ele>327</ele>
        <time>2024-12-29T13:52:28Z</time>
      </trkpt>
      <trkpt lat="43.52776" lon="6.62624">
        <ele>327</ele>
        <time>2024-12-29T13:52:32.499Z</time>
      </trkpt>
      <trkpt lat="43.52771" lon="6.62627">
        <ele>327.1</ele>
        <time>2024-12-29T13:52:37Z</time>
      </trkpt>
      <trkpt lat="43.52765" lon="6.62629">
        <ele>326.6</ele>
        <time>2024-12-29T13:52:41.999Z</time>
      </trkpt>
      <trkpt lat="43.52759" lon="6.62631">
        <ele>325.9</ele>
        <time>2024-12-29T13:52:47Z</time>
      </trkpt>
      <trkpt lat="43.52755" lon="6.62635">
        <ele>325.7</ele>
        <time>2024-12-29T13:52:50.999Z</time>
      </trkpt>
      <trkpt lat="43.52752" lon="6.62639">
        <ele>325.4</ele>
        <time>2024-12-29T13:52:55Z</time>
      </trkpt>
      <trkpt lat="43.52747" lon="6.62644">
        <ele>325.1</ele>
        <time>2024-12-29T13:52:59.499Z</time>
      </trkpt>
      <trkpt lat="43.52742" lon="6.62649">
        <ele>324.6</ele>
        <time>2024-12-29T13:53:04Z</time>
      </trkpt>
      <trkpt lat="43.52738" lon="6.62653">
        <ele>324.1</ele>
        <time>2024-12-29T13:53:08.499Z</time>
      </trkpt>
      <trkpt lat="43.52735" lon="6.62656">
        <ele>323.7</ele>
        <time>2024-12-29T13:53:13Z</time>
      </trkpt>
      <trkpt lat="43.52732" lon="6.6266">
        <ele>323.1</ele>
        <time>2024-12-29T13:53:17.499Z</time>
      </trkpt>
      <trkpt lat="43.52728" lon="6.62664">
        <ele>322.4</ele>
        <time>2024-12-29T13:53:22Z</time>
      </trkpt>
      <trkpt lat="43.52723" lon="6.62661">
        <ele>321.2</ele>
        <time>2024-12-29T13:53:25.803Z</time>
      </trkpt>
      <trkpt lat="43.52718" lon="6.62656">
        <ele>319.8</ele>
        <time>2024-12-29T13:53:30Z</time>
      </trkpt>
      <trkpt lat="43.52714" lon="6.62651">
        <ele>318.8</ele>
        <time>2024-12-29T13:53:34.499Z</time>
      </trkpt>
      <trkpt lat="43.52711" lon="6.62645">
        <ele>318.3</ele>
        <time>2024-12-29T13:53:39Z</time>
      </trkpt>
      <trkpt lat="43.52709" lon="6.62637">
        <ele>318.2</ele>
        <time>2024-12-29T13:53:57.999Z</time>
      </trkpt>
      <trkpt lat="43.52706" lon="6.62629">
        <ele>317.9</ele>
        <time>2024-12-29T13:54:17Z</time>
      </trkpt>
      <trkpt lat="43.52705" lon="6.62622">
        <ele>318</ele>
        <time>2024-12-29T13:54:35Z</time>
      </trkpt>
      <trkpt lat="43.52704" lon="6.62615">
        <ele>318.2</ele>
        <time>2024-12-29T13:54:39.499Z</time>
      </trkpt>
      <trkpt lat="43.52703" lon="6.62607">
        <ele>318</ele>
        <time>2024-12-29T13:54:44Z</time>
      </trkpt>
      <trkpt lat="43.52701" lon="6.626">
        <ele>317.2</ele>
        <time>2024-12-29T13:54:48.499Z</time>
      </trkpt>
      <trkpt lat="43.52698" lon="6.62593">
        <ele>316.3</ele>
        <time>2024-12-29T13:54:53Z</time>
      </trkpt>
      <trkpt lat="43.52697" lon="6.62586">
        <ele>315.6</ele>
        <time>2024-12-29T13:54:56.999Z</time>
      </trkpt>
      <trkpt lat="43.52695" lon="6.6258">
        <ele>315</ele>
        <time>2024-12-29T13:55:01Z</time>
      </trkpt>
      <trkpt lat="43.52693" lon="6.62574">
        <ele>314.5</ele>
        <time>2024-12-29T13:55:04.999Z</time>
      </trkpt>
      <trkpt lat="43.52691" lon="6.62568">
        <ele>314.1</ele>
        <time>2024-12-29T13:55:09Z</time>
      </trkpt>
      <trkpt lat="43.5269" lon="6.62562">
        <ele>313.9</ele>
        <time>2024-12-29T13:55:12.999Z</time>
      </trkpt>
      <trkpt lat="43.52689" lon="6.62556">
        <ele>313.8</ele>
        <time>2024-12-29T13:55:17Z</time>
      </trkpt>
      <trkpt lat="43.52686" lon="6.62549">
        <ele>313.3</ele>
        <time>2024-12-29T13:55:21.999Z</time>
      </trkpt>
      <trkpt lat="43.52684" lon="6.62543">
        <ele>313.1</ele>
        <time>2024-12-29T13:55:27Z</time>
      </trkpt>
      <trkpt lat="43.52682" lon="6.62537">
        <ele>313</ele>
        <time>2024-12-29T13:55:30.999Z</time>
      </trkpt>
      <trkpt lat="43.52679" lon="6.62531">
        <ele>313.2</ele>
        <time>2024-12-29T13:55:35Z</time>
      </trkpt>
      <trkpt lat="43.52677" lon="6.62525">
        <ele>313.1</ele>
        <time>2024-12-29T13:55:38.999Z</time>
      </trkpt>
      <trkpt lat="43.52674" lon="6.62519">
        <ele>312.6</ele>
        <time>2024-12-29T13:55:43Z</time>
      </trkpt>
      <trkpt lat="43.52669" lon="6.6251">
        <ele>312.1</ele>
        <time>2024-12-29T13:55:52Z</time>
      </trkpt>
      <trkpt lat="43.52663" lon="6.62509">
        <ele>311.1</ele>
        <time>2024-12-29T13:56:15Z</time>
      </trkpt>
      <trkpt lat="43.5266" lon="6.62514">
        <ele>310.5</ele>
        <time>2024-12-29T13:56:20.999Z</time>
      </trkpt>
      <trkpt lat="43.52656" lon="6.62518">
        <ele>309.8</ele>
        <time>2024-12-29T13:56:27Z</time>
      </trkpt>
      <trkpt lat="43.52656" lon="6.62525">
        <ele>310.5</ele>
        <time>2024-12-29T13:56:31.499Z</time>
      </trkpt>
      <trkpt lat="43.52656" lon="6.62532">
        <ele>310.5</ele>
        <time>2024-12-29T13:56:36Z</time>
      </trkpt>
      <trkpt lat="43.52656" lon="6.62538">
        <ele>310.2</ele>
        <time>2024-12-29T13:56:40.000Z</time>
      </trkpt>
      <trkpt lat="43.52657" lon="6.62545">
        <ele>310.1</ele>
        <time>2024-12-29T13:56:44Z</time>
      </trkpt>
      <trkpt lat="43.52658" lon="6.62551">
        <ele>310.2</ele>
        <time>2024-12-29T13:56:48.000Z</time>
      </trkpt>
      <trkpt lat="43.52659" lon="6.62558">
        <ele>310</ele>
        <time>2024-12-29T13:56:52Z</time>
      </trkpt>
      <trkpt lat="43.52663" lon="6.62568">
        <ele>310.5</ele>
        <time>2024-12-29T13:57:00Z</time>
      </trkpt>
      <trkpt lat="43.52666" lon="6.62574">
        <ele>310.8</ele>
        <time>2024-12-29T13:57:03.500Z</time>
      </trkpt>
      <trkpt lat="43.52668" lon="6.6258">
        <ele>310.6</ele>
        <time>2024-12-29T13:57:07Z</time>
      </trkpt>
      <trkpt lat="43.52669" lon="6.62586">
        <ele>310.2</ele>
        <time>2024-12-29T13:57:11.000Z</time>
      </trkpt>
      <trkpt lat="43.52671" lon="6.62592">
        <ele>310.1</ele>
        <time>2024-12-29T13:57:15Z</time>
      </trkpt>
      <trkpt lat="43.52672" lon="6.62599">
        <ele>309.8</ele>
        <time>2024-12-29T13:57:19.000Z</time>
      </trkpt>
      <trkpt lat="43.52673" lon="6.62605">
        <ele>309.7</ele>
        <time>2024-12-29T13:57:23Z</time>
      </trkpt>
      <trkpt lat="43.52675" lon="6.62617">
        <ele>309.7</ele>
        <time>2024-12-29T13:57:31Z</time>
      </trkpt>
      <trkpt lat="43.52675" lon="6.62625">
        <ele>309.3</ele>
        <time>2024-12-29T13:57:35.500Z</time>
      </trkpt>
      <trkpt lat="43.52675" lon="6.62632">
        <ele>309</ele>
        <time>2024-12-29T13:57:40Z</time>
      </trkpt>
      <trkpt lat="43.52677" lon="6.62638">
        <ele>309.4</ele>
        <time>2024-12-29T13:57:44.000Z</time>
      </trkpt>
      <trkpt lat="43.52678" lon="6.62645">
        <ele>309</ele>
        <time>2024-12-29T13:57:48Z</time>
      </trkpt>
      <trkpt lat="43.52679" lon="6.62652">
        <ele>308.6</ele>
        <time>2024-12-29T13:57:52.000Z</time>
      </trkpt>
      <trkpt lat="43.5268" lon="6.62658">
        <ele>308.3</ele>
        <time>2024-12-29T13:57:56Z</time>
      </trkpt>
      <trkpt lat="43.5268" lon="6.62665">
        <ele>307.5</ele>
        <time>2024-12-29T13:58:00.000Z</time>
      </trkpt>
      <trkpt lat="43.5268" lon="6.62672">
        <ele>306.9</ele>
        <time>2024-12-29T13:58:04Z</time>
      </trkpt>
      <trkpt lat="43.52679" lon="6.62679">
        <ele>306.1</ele>
        <time>2024-12-29T13:58:08.000Z</time>
      </trkpt>
      <trkpt lat="43.52679" lon="6.62685">
        <ele>305.7</ele>
        <time>2024-12-29T13:58:12Z</time>
      </trkpt>
      <trkpt lat="43.52679" lon="6.62692">
        <ele>305.2</ele>
        <time>2024-12-29T13:58:16.000Z</time>
      </trkpt>
      <trkpt lat="43.52679" lon="6.62699">
        <ele>304.9</ele>
        <time>2024-12-29T13:58:20Z</time>
      </trkpt>
      <trkpt lat="43.52678" lon="6.62706">
        <ele>304.4</ele>
        <time>2024-12-29T13:58:23.999Z</time>
      </trkpt>
      <trkpt lat="43.52677" lon="6.62713">
        <ele>303.9</ele>
        <time>2024-12-29T13:58:28Z</time>
      </trkpt>
      <trkpt lat="43.52676" lon="6.62721">
        <ele>303.4</ele>
        <time>2024-12-29T13:58:32.000Z</time>
      </trkpt>
      <trkpt lat="43.52676" lon="6.62729">
        <ele>303.6</ele>
        <time>2024-12-29T13:58:36Z</time>
      </trkpt>
      <trkpt lat="43.52675" lon="6.62735">
        <ele>303.5</ele>
        <time>2024-12-29T13:58:39.999Z</time>
      </trkpt>
      <trkpt lat="43.52674" lon="6.62742">
        <ele>303.4</ele>
        <time>2024-12-29T13:58:44Z</time>
      </trkpt>
      <trkpt lat="43.52673" lon="6.62748">
        <ele>303.2</ele>
        <time>2024-12-29T13:58:47.999Z</time>
      </trkpt>
      <trkpt lat="43.52672" lon="6.62754">
        <ele>302.8</ele>
        <time>2024-12-29T13:58:52Z</time>
      </trkpt>
      <trkpt lat="43.52671" lon="6.6276">
        <ele>302.3</ele>
        <time>2024-12-29T13:58:55.348Z</time>
      </trkpt>
      <trkpt lat="43.5267" lon="6.62769">
        <ele>301.7</ele>
        <time>2024-12-29T13:59:00Z</time>
      </trkpt>
      <trkpt lat="43.52669" lon="6.62781">
        <ele>300.9</ele>
        <time>2024-12-29T13:59:08Z</time>
      </trkpt>
      <trkpt lat="43.52668" lon="6.62787">
        <ele>300</ele>
        <time>2024-12-29T13:59:13.499Z</time>
      </trkpt>
      <trkpt lat="43.52666" lon="6.62793">
        <ele>299.4</ele>
        <time>2024-12-29T13:59:19Z</time>
      </trkpt>
      <trkpt lat="43.52663" lon="6.62804">
        <ele>298.8</ele>
        <time>2024-12-29T13:59:28Z</time>
      </trkpt>
      <trkpt lat="43.52657" lon="6.62807">
        <ele>298.4</ele>
        <time>2024-12-29T13:59:33.499Z</time>
      </trkpt>
      <trkpt lat="43.52651" lon="6.6281">
        <ele>298</ele>
        <time>2024-12-29T13:59:39Z</time>
      </trkpt>
      <trkpt lat="43.52644" lon="6.62811">
        <ele>297.6</ele>
        <time>2024-12-29T13:59:44.000Z</time>
      </trkpt>
      <trkpt lat="43.52637" lon="6.62813">
        <ele>297.2</ele>
        <time>2024-12-29T13:59:49Z</time>
      </trkpt>
      <trkpt lat="43.52632" lon="6.62814">
        <ele>297.1</ele>
        <time>2024-12-29T13:59:53.500Z</time>
      </trkpt>
      <trkpt lat="43.52627" lon="6.62815">
        <ele>296.9</ele>
        <time>2024-12-29T13:59:58Z</time>
      </trkpt>
      <trkpt lat="43.52621" lon="6.62816">
        <ele>296.7</ele>
        <time>2024-12-29T14:00:03.000Z</time>
      </trkpt>
      <trkpt lat="43.52616" lon="6.62817">
        <ele>296.6</ele>
        <time>2024-12-29T14:00:08Z</time>
      </trkpt>
      <trkpt lat="43.5261" lon="6.62817">
        <ele>296.4</ele>
        <time>2024-12-29T14:00:15.000Z</time>
      </trkpt>
      <trkpt lat="43.52605" lon="6.62817">
        <ele>296.3</ele>
        <time>2024-12-29T14:00:22Z</time>
      </trkpt>
      <trkpt lat="43.52606" lon="6.62818">
        <ele>296.4</ele>
        <time>2024-12-29T14:00:49Z</time>
      </trkpt>
      <trkpt lat="43.52598" lon="6.62819">
        <ele>296.3</ele>
        <time>2024-12-29T14:00:54.500Z</time>
      </trkpt>
      <trkpt lat="43.5259" lon="6.62821">
        <ele>296.1</ele>
        <time>2024-12-29T14:01:00Z</time>
      </trkpt>
      <trkpt lat="43.52583" lon="6.6282">
        <ele>296</ele>
        <time>2024-12-29T14:01:04.500Z</time>
      </trkpt>
      <trkpt lat="43.52577" lon="6.62819">
        <ele>295.9</ele>
        <time>2024-12-29T14:01:09Z</time>
      </trkpt>
      <trkpt lat="43.52572" lon="6.6282">
        <ele>295.8</ele>
        <time>2024-12-29T14:01:15.500Z</time>
      </trkpt>
      <trkpt lat="43.52567" lon="6.6282">
        <ele>295.7</ele>
        <time>2024-12-29T14:01:22Z</time>
      </trkpt>
      <trkpt lat="43.52562" lon="6.62822">
        <ele>295.5</ele>
        <time>2024-12-29T14:01:26.499Z</time>
      </trkpt>
      <trkpt lat="43.52556" lon="6.62824">
        <ele>295.3</ele>
        <time>2024-12-29T14:01:31Z</time>
      </trkpt>
      <trkpt lat="43.52551" lon="6.6283">
        <ele>295.4</ele>
        <time>2024-12-29T14:01:34.999Z</time>
      </trkpt>
      <trkpt lat="43.52545" lon="6.62836">
        <ele>295.7</ele>
        <time>2024-12-29T14:01:39Z</time>
      </trkpt>
      <trkpt lat="43.52541" lon="6.62841">
        <ele>295.9</ele>
        <time>2024-12-29T14:01:43.499Z</time>
      </trkpt>
      <trkpt lat="43.52538" lon="6.62847">
        <ele>295.8</ele>
        <time>2024-12-29T14:01:48Z</time>
      </trkpt>
      <trkpt lat="43.52534" lon="6.62856">
        <ele>295.5</ele>
        <time>2024-12-29T14:01:57Z</time>
      </trkpt>
      <trkpt lat="43.5253" lon="6.62865">
        <ele>295</ele>
        <time>2024-12-29T14:02:03.499Z</time>
      </trkpt>
      <trkpt lat="43.52525" lon="6.62873">
        <ele>294.7</ele>
        <time>2024-12-29T14:02:10Z</time>
      </trkpt>
      <trkpt lat="43.5252" lon="6.62882">
        <ele>294.6</ele>
        <time>2024-12-29T14:02:15.499Z</time>
      </trkpt>
      <trkpt lat="43.52516" lon="6.6289">
        <ele>294.3</ele>
        <time>2024-12-29T14:02:21Z</time>
      </trkpt>
      <trkpt lat="43.52512" lon="6.62896">
        <ele>293.9</ele>
        <time>2024-12-29T14:02:25.499Z</time>
      </trkpt>
      <trkpt lat="43.52507" lon="6.62902">
        <ele>293.2</ele>
        <time>2024-12-29T14:02:30Z</time>
      </trkpt>
      <trkpt lat="43.52501" lon="6.62911">
        <ele>291.9</ele>
        <time>2024-12-29T14:02:39Z</time>
      </trkpt>
      <trkpt lat="43.52498" lon="6.62915">
        <ele>291.3</ele>
        <time>2024-12-29T14:02:42.999Z</time>
      </trkpt>
      <trkpt lat="43.52494" lon="6.62919">
        <ele>291</ele>
        <time>2024-12-29T14:02:47Z</time>
      </trkpt>
      <trkpt lat="43.5249" lon="6.62923">
        <ele>290.6</ele>
        <time>2024-12-29T14:02:51.999Z</time>
      </trkpt>
      <trkpt lat="43.52486" lon="6.62928">
        <ele>289.9</ele>
        <time>2024-12-29T14:02:57Z</time>
      </trkpt>
      <trkpt lat="43.5248" lon="6.62933">
        <ele>288.9</ele>
        <time>2024-12-29T14:03:02.999Z</time>
      </trkpt>
      <trkpt lat="43.52473" lon="6.62939">
        <ele>287.2</ele>
        <time>2024-12-29T14:03:09Z</time>
      </trkpt>
      <trkpt lat="43.52469" lon="6.62943">
        <ele>286.6</ele>
        <time>2024-12-29T14:03:12.999Z</time>
      </trkpt>
      <trkpt lat="43.52466" lon="6.62948">
        <ele>286.6</ele>
        <time>2024-12-29T14:03:17Z</time>
      </trkpt>
      <trkpt lat="43.52462" lon="6.62953">
        <ele>286.7</ele>
        <time>2024-12-29T14:03:20.999Z</time>
      </trkpt>
      <trkpt lat="43.52459" lon="6.62957">
        <ele>286.6</ele>
        <time>2024-12-29T14:03:25Z</time>
      </trkpt>
      <trkpt lat="43.52456" lon="6.62962">
        <ele>286.2</ele>
        <time>2024-12-29T14:03:29.499Z</time>
      </trkpt>
      <trkpt lat="43.52452" lon="6.62966">
        <ele>285.6</ele>
        <time>2024-12-29T14:03:34Z</time>
      </trkpt>
      <trkpt lat="43.52448" lon="6.62972">
        <ele>284.4</ele>
        <time>2024-12-29T14:03:38.499Z</time>
      </trkpt>
      <trkpt lat="43.52443" lon="6.62978">
        <ele>284</ele>
        <time>2024-12-29T14:03:43Z</time>
      </trkpt>
      <trkpt lat="43.52438" lon="6.62984">
        <ele>284</ele>
        <time>2024-12-29T14:03:47.499Z</time>
      </trkpt>
      <trkpt lat="43.52433" lon="6.62989">
        <ele>283.6</ele>
        <time>2024-12-29T14:03:52Z</time>
      </trkpt>
      <trkpt lat="43.5243" lon="6.62996">
        <ele>282.8</ele>
        <time>2024-12-29T14:03:56.499Z</time>
      </trkpt>
      <trkpt lat="43.52428" lon="6.63003">
        <ele>282.4</ele>
        <time>2024-12-29T14:04:01Z</time>
      </trkpt>
      <trkpt lat="43.52422" lon="6.63012">
        <ele>282.4</ele>
        <time>2024-12-29T14:04:10Z</time>
      </trkpt>
      <trkpt lat="43.52419" lon="6.63018">
        <ele>282.5</ele>
        <time>2024-12-29T14:04:13.999Z</time>
      </trkpt>
      <trkpt lat="43.52415" lon="6.63024">
        <ele>282.6</ele>
        <time>2024-12-29T14:04:18Z</time>
      </trkpt>
      <trkpt lat="43.52413" lon="6.63032">
        <ele>282.6</ele>
        <time>2024-12-29T14:04:23.999Z</time>
      </trkpt>
      <trkpt lat="43.52411" lon="6.63039">
        <ele>282.5</ele>
        <time>2024-12-29T14:04:30Z</time>
      </trkpt>
      <trkpt lat="43.5241" lon="6.63046">
        <ele>282.4</ele>
        <time>2024-12-29T14:04:34.499Z</time>
      </trkpt>
      <trkpt lat="43.5241" lon="6.63053">
        <ele>282.5</ele>
        <time>2024-12-29T14:04:39Z</time>
      </trkpt>
      <trkpt lat="43.52409" lon="6.63061">
        <ele>282.1</ele>
        <time>2024-12-29T14:04:43.499Z</time>
      </trkpt>
      <trkpt lat="43.52409" lon="6.63068">
        <ele>281.6</ele>
        <time>2024-12-29T14:04:48Z</time>
      </trkpt>
      <trkpt lat="43.52408" lon="6.63075">
        <ele>281</ele>
        <time>2024-12-29T14:04:51.999Z</time>
      </trkpt>
      <trkpt lat="43.52407" lon="6.63081">
        <ele>280.5</ele>
        <time>2024-12-29T14:04:56Z</time>
      </trkpt>
      <trkpt lat="43.52405" lon="6.6309">
        <ele>279.2</ele>
        <time>2024-12-29T14:04:59.999Z</time>
      </trkpt>
      <trkpt lat="43.52403" lon="6.63098">
        <ele>277.9</ele>
        <time>2024-12-29T14:05:04Z</time>
      </trkpt>
      <trkpt lat="43.52402" lon="6.63104">
        <ele>276.9</ele>
        <time>2024-12-29T14:05:07.502Z</time>
      </trkpt>
      <trkpt lat="43.524" lon="6.63111">
        <ele>275.6</ele>
        <time>2024-12-29T14:05:12Z</time>
      </trkpt>
      <trkpt lat="43.52398" lon="6.63116">
        <ele>275.1</ele>
        <time>2024-12-29T14:05:15.999Z</time>
      </trkpt>
      <trkpt lat="43.52396" lon="6.63122">
        <ele>274.5</ele>
        <time>2024-12-29T14:05:20Z</time>
      </trkpt>
      <trkpt lat="43.52394" lon="6.63129">
        <ele>274</ele>
        <time>2024-12-29T14:05:23.999Z</time>
      </trkpt>
      <trkpt lat="43.52392" lon="6.63135">
        <ele>273.5</ele>
        <time>2024-12-29T14:05:28Z</time>
      </trkpt>
      <trkpt lat="43.52388" lon="6.63145">
        <ele>272.9</ele>
        <time>2024-12-29T14:05:37Z</time>
      </trkpt>
      <trkpt lat="43.52386" lon="6.63151">
        <ele>272.7</ele>
        <time>2024-12-29T14:05:41.499Z</time>
      </trkpt>
      <trkpt lat="43.52384" lon="6.63157">
        <ele>272.6</ele>
        <time>2024-12-29T14:05:46Z</time>
      </trkpt>
      <trkpt lat="43.52382" lon="6.63164">
        <ele>272.5</ele>
        <time>2024-12-29T14:05:49.999Z</time>
      </trkpt>
      <trkpt lat="43.5238" lon="6.63171">
        <ele>272.4</ele>
        <time>2024-12-29T14:05:54Z</time>
      </trkpt>
      <trkpt lat="43.52378" lon="6.63178">
        <ele>272.4</ele>
        <time>2024-12-29T14:05:57.999Z</time>
      </trkpt>
      <trkpt lat="43.52377" lon="6.63184">
        <ele>272.4</ele>
        <time>2024-12-29T14:06:02Z</time>
      </trkpt>
      <trkpt lat="43.52375" lon="6.6319">
        <ele>272.4</ele>
        <time>2024-12-29T14:06:05.999Z</time>
      </trkpt>
      <trkpt lat="43.52373" lon="6.63196">
        <ele>272.5</ele>
        <time>2024-12-29T14:06:10Z</time>
      </trkpt>
      <trkpt lat="43.52371" lon="6.63203">
        <ele>272.9</ele>
        <time>2024-12-29T14:06:14.499Z</time>
      </trkpt>
      <trkpt lat="43.5237" lon="6.63209">
        <ele>273.2</ele>
        <time>2024-12-29T14:06:19Z</time>
      </trkpt>
      <trkpt lat="43.52368" lon="6.63216">
        <ele>273.4</ele>
        <time>2024-12-29T14:06:23.999Z</time>
      </trkpt>
      <trkpt lat="43.52366" lon="6.63223">
        <ele>273.6</ele>
        <time>2024-12-29T14:06:29Z</time>
      </trkpt>
      <trkpt lat="43.52363" lon="6.63233">
        <ele>273.6</ele>
        <time>2024-12-29T14:06:38Z</time>
      </trkpt>
      <trkpt lat="43.5236" lon="6.63241">
        <ele>273.7</ele>
        <time>2024-12-29T14:06:42.499Z</time>
      </trkpt>
      <trkpt lat="43.52358" lon="6.63249">
        <ele>274.1</ele>
        <time>2024-12-29T14:06:47Z</time>
      </trkpt>
      <trkpt lat="43.52356" lon="6.63256">
        <ele>274.5</ele>
        <time>2024-12-29T14:06:51.499Z</time>
      </trkpt>
      <trkpt lat="43.52354" lon="6.63262">
        <ele>274.9</ele>
        <time>2024-12-29T14:06:56Z</time>
      </trkpt>
      <trkpt lat="43.52353" lon="6.63269">
        <ele>275.4</ele>
        <time>2024-12-29T14:07:00.499Z</time>
      </trkpt>
      <trkpt lat="43.52351" lon="6.63275">
        <ele>275.9</ele>
        <time>2024-12-29T14:07:05Z</time>
      </trkpt>
      <trkpt lat="43.52349" lon="6.63283">
        <ele>276.8</ele>
        <time>2024-12-29T14:07:09.499Z</time>
      </trkpt>
      <trkpt lat="43.52347" lon="6.63291">
        <ele>277.7</ele>
        <time>2024-12-29T14:07:14Z</time>
      </trkpt>
      <trkpt lat="43.52343" lon="6.63301">
        <ele>278.9</ele>
        <time>2024-12-29T14:07:23Z</time>
      </trkpt>
      <trkpt lat="43.52342" lon="6.63306">
        <ele>279.4</ele>
        <time>2024-12-29T14:07:27.499Z</time>
      </trkpt>
      <trkpt lat="43.5234" lon="6.63312">
        <ele>279.5</ele>
        <time>2024-12-29T14:07:32Z</time>
      </trkpt>
      <trkpt lat="43.52338" lon="6.63319">
        <ele>279.4</ele>
        <time>2024-12-29T14:07:36.499Z</time>
      </trkpt>
      <trkpt lat="43.52336" lon="6.63325">
        <ele>279.3</ele>
        <time>2024-12-29T14:07:41Z</time>
      </trkpt>
      <trkpt lat="43.52335" lon="6.63332">
        <ele>279.1</ele>
        <time>2024-12-29T14:07:45.499Z</time>
      </trkpt>
      <trkpt lat="43.52335" lon="6.6334">
        <ele>278.8</ele>
        <time>2024-12-29T14:07:50Z</time>
      </trkpt>
      <trkpt lat="43.52335" lon="6.63351">
        <ele>278.5</ele>
        <time>2024-12-29T14:07:59Z</time>
      </trkpt>
      <trkpt lat="43.52335" lon="6.63359">
        <ele>278.2</ele>
        <time>2024-12-29T14:08:21Z</time>
      </trkpt>
      <trkpt lat="43.52336" lon="6.63363">
        <ele>278.1</ele>
        <time>2024-12-29T14:08:57Z</time>
      </trkpt>
      <trkpt lat="43.52338" lon="6.63371">
        <ele>278</ele>
        <time>2024-12-29T14:09:49Z</time>
      </trkpt>
      <trkpt lat="43.5234" lon="6.63378">
        <ele>278</ele>
        <time>2024-12-29T14:09:53.500Z</time>
      </trkpt>
      <trkpt lat="43.52342" lon="6.63385">
        <ele>278</ele>
        <time>2024-12-29T14:09:58Z</time>
      </trkpt>
      <trkpt lat="43.52344" lon="6.63392">
        <ele>278</ele>
        <time>2024-12-29T14:10:02.500Z</time>
      </trkpt>
      <trkpt lat="43.52345" lon="6.634">
        <ele>277.6</ele>
        <time>2024-12-29T14:10:07Z</time>
      </trkpt>
      <trkpt lat="43.52346" lon="6.63406">
        <ele>277.4</ele>
        <time>2024-12-29T14:10:11.170Z</time>
      </trkpt>
      <trkpt lat="43.52348" lon="6.63412">
        <ele>277.4</ele>
        <time>2024-12-29T14:10:15Z</time>
      </trkpt>
      <trkpt lat="43.52349" lon="6.6342">
        <ele>277.2</ele>
        <time>2024-12-29T14:10:19.000Z</time>
      </trkpt>
      <trkpt lat="43.52349" lon="6.63427">
        <ele>277.1</ele>
        <time>2024-12-29T14:10:23Z</time>
      </trkpt>
      <trkpt lat="43.52349" lon="6.63434">
        <ele>277</ele>
        <time>2024-12-29T14:10:26.999Z</time>
      </trkpt>
      <trkpt lat="43.52348" lon="6.63441">
        <ele>276.7</ele>
        <time>2024-12-29T14:10:31Z</time>
      </trkpt>
      <trkpt lat="43.52347" lon="6.63449">
        <ele>276.5</ele>
        <time>2024-12-29T14:10:34.999Z</time>
      </trkpt>
      <trkpt lat="43.52346" lon="6.63457">
        <ele>276.5</ele>
        <time>2024-12-29T14:10:39Z</time>
      </trkpt>
      <trkpt lat="43.52344" lon="6.63468">
        <ele>276.2</ele>
        <time>2024-12-29T14:10:47Z</time>
      </trkpt>
      <trkpt lat="43.52344" lon="6.63477">
        <ele>276.4</ele>
        <time>2024-12-29T14:10:50.499Z</time>
      </trkpt>
      <trkpt lat="43.52343" lon="6.63485">
        <ele>276.4</ele>
        <time>2024-12-29T14:10:54Z</time>
      </trkpt>
      <trkpt lat="43.52342" lon="6.63492">
        <ele>276.3</ele>
        <time>2024-12-29T14:10:57.499Z</time>
      </trkpt>
      <trkpt lat="43.52341" lon="6.63498">
        <ele>276.2</ele>
        <time>2024-12-29T14:11:01Z</time>
      </trkpt>
      <trkpt lat="43.52341" lon="6.63505">
        <ele>276.3</ele>
        <time>2024-12-29T14:11:04.999Z</time>
      </trkpt>
      <trkpt lat="43.5234" lon="6.63512">
        <ele>276.1</ele>
        <time>2024-12-29T14:11:09Z</time>
      </trkpt>
      <trkpt lat="43.5234" lon="6.63519">
        <ele>276.2</ele>
        <time>2024-12-29T14:11:13.000Z</time>
      </trkpt>
      <trkpt lat="43.52339" lon="6.63526">
        <ele>276</ele>
        <time>2024-12-29T14:11:17Z</time>
      </trkpt>
      <trkpt lat="43.52339" lon="6.63534">
        <ele>276.1</ele>
        <time>2024-12-29T14:11:20.500Z</time>
      </trkpt>
      <trkpt lat="43.52339" lon="6.63542">
        <ele>276.2</ele>
        <time>2024-12-29T14:11:24Z</time>
      </trkpt>
      <trkpt lat="43.52339" lon="6.63554">
        <ele>276.4</ele>
        <time>2024-12-29T14:11:32Z</time>
      </trkpt>
      <trkpt lat="43.5234" lon="6.63561">
        <ele>276.9</ele>
        <time>2024-12-29T14:11:35.500Z</time>
      </trkpt>
      <trkpt lat="43.5234" lon="6.63568">
        <ele>277</ele>
        <time>2024-12-29T14:11:39Z</time>
      </trkpt>
      <trkpt lat="43.5234" lon="6.63579">
        <ele>277.1</ele>
        <time>2024-12-29T14:11:47Z</time>
      </trkpt>
      <trkpt lat="43.52338" lon="6.63586">
        <ele>276.4</ele>
        <time>2024-12-29T14:11:50.318Z</time>
      </trkpt>
      <trkpt lat="43.52337" lon="6.63596">
        <ele>276.6</ele>
        <time>2024-12-29T14:11:55Z</time>
      </trkpt>
      <trkpt lat="43.52336" lon="6.63603">
        <ele>276.6</ele>
        <time>2024-12-29T14:11:58.999Z</time>
      </trkpt>
      <trkpt lat="43.52334" lon="6.6361">
        <ele>276.2</ele>
        <time>2024-12-29T14:12:03Z</time>
      </trkpt>
      <trkpt lat="43.52331" lon="6.63617">
        <ele>276.8</ele>
        <time>2024-12-29T14:12:06.999Z</time>
      </trkpt>
      <trkpt lat="43.52328" lon="6.63624">
        <ele>277.6</ele>
        <time>2024-12-29T14:12:11Z</time>
      </trkpt>
      <trkpt lat="43.52324" lon="6.63632">
        <ele>278.1</ele>
        <time>2024-12-29T14:12:19Z</time>
      </trkpt>
      <trkpt lat="43.52322" lon="6.63637">
        <ele>278.4</ele>
        <time>2024-12-29T14:12:25.499Z</time>
      </trkpt>
      <trkpt lat="43.5232" lon="6.63643">
        <ele>279.4</ele>
        <time>2024-12-29T14:12:32Z</time>
      </trkpt>
      <trkpt lat="43.52315" lon="6.6365">
        <ele>279.7</ele>
        <time>2024-12-29T14:13:01Z</time>
      </trkpt>
      <trkpt lat="43.52311" lon="6.63654">
        <ele>279.3</ele>
        <time>2024-12-29T14:13:05.499Z</time>
      </trkpt>
      <trkpt lat="43.52307" lon="6.63657">
        <ele>278.5</ele>
        <time>2024-12-29T14:13:10Z</time>
      </trkpt>
      <trkpt lat="43.52303" lon="6.63662">
        <ele>278.6</ele>
        <time>2024-12-29T14:13:13.499Z</time>
      </trkpt>
      <trkpt lat="43.523" lon="6.63668">
        <ele>279.3</ele>
        <time>2024-12-29T14:13:17Z</time>
      </trkpt>
      <trkpt lat="43.52297" lon="6.63673">
        <ele>279.9</ele>
        <time>2024-12-29T14:13:20.499Z</time>
      </trkpt>
      <trkpt lat="43.52294" lon="6.63678">
        <ele>280.2</ele>
        <time>2024-12-29T14:13:24Z</time>
      </trkpt>
      <trkpt lat="43.52293" lon="6.63686">
        <ele>281.4</ele>
        <time>2024-12-29T14:13:27.999Z</time>
      </trkpt>
      <trkpt lat="43.52293" lon="6.63693">
        <ele>282.8</ele>
        <time>2024-12-29T14:13:32Z</time>
      </trkpt>
      <trkpt lat="43.52292" lon="6.63701">
        <ele>282.5</ele>
        <time>2024-12-29T14:13:35.999Z</time>
      </trkpt>
      <trkpt lat="43.52291" lon="6.63708">
        <ele>282</ele>
        <time>2024-12-29T14:13:40Z</time>
      </trkpt>
      <trkpt lat="43.52292" lon="6.63715">
        <ele>282.3</ele>
        <time>2024-12-29T14:13:44.000Z</time>
      </trkpt>
      <trkpt lat="43.52293" lon="6.63721">
        <ele>282.5</ele>
        <time>2024-12-29T14:13:48Z</time>
      </trkpt>
      <trkpt lat="43.52295" lon="6.63732">
        <ele>283.2</ele>
        <time>2024-12-29T14:13:55Z</time>
      </trkpt>
      <trkpt lat="43.52295" lon="6.63738">
        <ele>283.2</ele>
        <time>2024-12-29T14:13:59.000Z</time>
      </trkpt>
      <trkpt lat="43.52296" lon="6.63744">
        <ele>283.6</ele>
        <time>2024-12-29T14:14:03Z</time>
      </trkpt>
      <trkpt lat="43.52297" lon="6.63751">
        <ele>283.9</ele>
        <time>2024-12-29T14:14:06.038Z</time>
      </trkpt>
      <trkpt lat="43.52298" lon="6.63758">
        <ele>284.4</ele>
        <time>2024-12-29T14:14:09.077Z</time>
      </trkpt>
      <trkpt lat="43.52298" lon="6.63763">
        <ele>284.4</ele>
        <time>2024-12-29T14:14:11Z</time>
      </trkpt>
      <trkpt lat="43.523" lon="6.63772">
        <ele>285.2</ele>
        <time>2024-12-29T14:14:20Z</time>
      </trkpt>
      <trkpt lat="43.523" lon="6.63779">
        <ele>285.2</ele>
        <time>2024-12-29T14:14:24.000Z</time>
      </trkpt>
      <trkpt lat="43.52301" lon="6.63786">
        <ele>285.8</ele>
        <time>2024-12-29T14:14:28Z</time>
      </trkpt>
      <trkpt lat="43.52303" lon="6.63796">
        <ele>286.8</ele>
        <time>2024-12-29T14:14:36Z</time>
      </trkpt>
      <trkpt lat="43.52304" lon="6.63804">
        <ele>287.4</ele>
        <time>2024-12-29T14:14:46.500Z</time>
      </trkpt>
      <trkpt lat="43.52304" lon="6.63812">
        <ele>287.7</ele>
        <time>2024-12-29T14:14:57Z</time>
      </trkpt>
      <trkpt lat="43.52306" lon="6.63823">
        <ele>288.8</ele>
        <time>2024-12-29T14:15:09Z</time>
      </trkpt>
      <trkpt lat="43.52307" lon="6.6383">
        <ele>289.2</ele>
        <time>2024-12-29T14:15:13.000Z</time>
      </trkpt>
      <trkpt lat="43.52308" lon="6.63836">
        <ele>289.5</ele>
        <time>2024-12-29T14:15:17Z</time>
      </trkpt>
      <trkpt lat="43.5231" lon="6.63846">
        <ele>290</ele>
        <time>2024-12-29T14:15:26Z</time>
      </trkpt>
      <trkpt lat="43.52312" lon="6.63854">
        <ele>290.4</ele>
        <time>2024-12-29T14:15:30.000Z</time>
      </trkpt>
      <trkpt lat="43.52313" lon="6.63862">
        <ele>290.6</ele>
        <time>2024-12-29T14:15:34Z</time>
      </trkpt>
      <trkpt lat="43.52315" lon="6.63868">
        <ele>291.2</ele>
        <time>2024-12-29T14:15:38.000Z</time>
      </trkpt>
      <trkpt lat="43.52316" lon="6.63875">
        <ele>291.6</ele>
        <time>2024-12-29T14:15:42Z</time>
      </trkpt>
      <trkpt lat="43.52316" lon="6.63886">
        <ele>291.9</ele>
        <time>2024-12-29T14:15:50Z</time>
      </trkpt>
      <trkpt lat="43.52315" lon="6.63893">
        <ele>292.4</ele>
        <time>2024-12-29T14:15:54.499Z</time>
      </trkpt>
      <trkpt lat="43.52314" lon="6.639">
        <ele>293.2</ele>
        <time>2024-12-29T14:15:59Z</time>
      </trkpt>
      <trkpt lat="43.52313" lon="6.63907">
        <ele>293.9</ele>
        <time>2024-12-29T14:16:04.499Z</time>
      </trkpt>
      <trkpt lat="43.52312" lon="6.63914">
        <ele>294.7</ele>
        <time>2024-12-29T14:16:10Z</time>
      </trkpt>
      <trkpt lat="43.52307" lon="6.63923">
        <ele>295.7</ele>
        <time>2024-12-29T14:16:19Z</time>
      </trkpt>
      <trkpt lat="43.52301" lon="6.63928">
        <ele>297.3</ele>
        <time>2024-12-29T14:16:27Z</time>
      </trkpt>
      <trkpt lat="43.52296" lon="6.63928">
        <ele>297.6</ele>
        <time>2024-12-29T14:16:31.500Z</time>
      </trkpt>
      <trkpt lat="43.52292" lon="6.63929">
        <ele>298.2</ele>
        <time>2024-12-29T14:16:36Z</time>
      </trkpt>
      <trkpt lat="43.52286" lon="6.63929">
        <ele>298.5</ele>
        <time>2024-12-29T14:16:40.500Z</time>
      </trkpt>
      <trkpt lat="43.5228" lon="6.63929">
        <ele>298.9</ele>
        <time>2024-12-29T14:16:45Z</time>
      </trkpt>
      <trkpt lat="43.52274" lon="6.6393">
        <ele>299.2</ele>
        <time>2024-12-29T14:16:49.500Z</time>
      </trkpt>
      <trkpt lat="43.52269" lon="6.63931">
        <ele>299.3</ele>
        <time>2024-12-29T14:16:54Z</time>
      </trkpt>
      <trkpt lat="43.52263" lon="6.63933">
        <ele>299.7</ele>
        <time>2024-12-29T14:16:58.500Z</time>
      </trkpt>
      <trkpt lat="43.52258" lon="6.63934">
        <ele>299.7</ele>
        <time>2024-12-29T14:17:03Z</time>
      </trkpt>
      <trkpt lat="43.52254" lon="6.63938">
        <ele>300.6</ele>
        <time>2024-12-29T14:18:52Z</time>
      </trkpt>
      <trkpt lat="43.52252" lon="6.63938">
        <ele>300.5</ele>
        <time>2024-12-29T14:20:16Z</time>
      </trkpt>
      <trkpt lat="43.52249" lon="6.63939">
        <ele>300.4</ele>
        <time>2024-12-29T14:20:54Z</time>
      </trkpt>
      <trkpt lat="43.52241" lon="6.63944">
        <ele>300</ele>
        <time>2024-12-29T14:21:22Z</time>
      </trkpt>
      <trkpt lat="43.52237" lon="6.6395">
        <ele>300.5</ele>
        <time>2024-12-29T14:21:28.499Z</time>
      </trkpt>
      <trkpt lat="43.52233" lon="6.63955">
        <ele>300.8</ele>
        <time>2024-12-29T14:21:35Z</time>
      </trkpt>
      <trkpt lat="43.52229" lon="6.63959">
        <ele>300.7</ele>
        <time>2024-12-29T14:21:39.999Z</time>
      </trkpt>
      <trkpt lat="43.52225" lon="6.63963">
        <ele>300.7</ele>
        <time>2024-12-29T14:21:45Z</time>
      </trkpt>
      <trkpt lat="43.52221" lon="6.63968">
        <ele>300.9</ele>
        <time>2024-12-29T14:21:49.999Z</time>
      </trkpt>
      <trkpt lat="43.52218" lon="6.63972">
        <ele>301.5</ele>
        <time>2024-12-29T14:21:55Z</time>
      </trkpt>
      <trkpt lat="43.52213" lon="6.63978">
        <ele>302.6</ele>
        <time>2024-12-29T14:21:59.999Z</time>
      </trkpt>
      <trkpt lat="43.52209" lon="6.63983">
        <ele>303.5</ele>
        <time>2024-12-29T14:22:05Z</time>
      </trkpt>
      <trkpt lat="43.52205" lon="6.63987">
        <ele>304.1</ele>
        <time>2024-12-29T14:22:09.999Z</time>
      </trkpt>
      <trkpt lat="43.52201" lon="6.63992">
        <ele>304.9</ele>
        <time>2024-12-29T14:22:15Z</time>
      </trkpt>
      <trkpt lat="43.52197" lon="6.63998">
        <ele>305.9</ele>
        <time>2024-12-29T14:22:20.499Z</time>
      </trkpt>
      <trkpt lat="43.52194" lon="6.64004">
        <ele>306.4</ele>
        <time>2024-12-29T14:22:26Z</time>
      </trkpt>
      <trkpt lat="43.52192" lon="6.64011">
        <ele>306.9</ele>
        <time>2024-12-29T14:22:30.999Z</time>
      </trkpt>
      <trkpt lat="43.5219" lon="6.64017">
        <ele>307.2</ele>
        <time>2024-12-29T14:22:36Z</time>
      </trkpt>
      <trkpt lat="43.52188" lon="6.64023">
        <ele>307.5</ele>
        <time>2024-12-29T14:22:39.926Z</time>
      </trkpt>
      <trkpt lat="43.52186" lon="6.64029">
        <ele>307.7</ele>
        <time>2024-12-29T14:22:43.853Z</time>
      </trkpt>
      <trkpt lat="43.52186" lon="6.64034">
        <ele>308.2</ele>
        <time>2024-12-29T14:22:47.097Z</time>
      </trkpt>
      <trkpt lat="43.52183" lon="6.64043">
        <ele>308.5</ele>
        <time>2024-12-29T14:22:54Z</time>
      </trkpt>
      <trkpt lat="43.5218" lon="6.64049">
        <ele>308.6</ele>
        <time>2024-12-29T14:22:57.999Z</time>
      </trkpt>
      <trkpt lat="43.52177" lon="6.64055">
        <ele>308.8</ele>
        <time>2024-12-29T14:23:02Z</time>
      </trkpt>
      <trkpt lat="43.5217" lon="6.64061">
        <ele>308.6</ele>
        <time>2024-12-29T14:23:10Z</time>
      </trkpt>
      <trkpt lat="43.52164" lon="6.64067">
        <ele>308.7</ele>
        <time>2024-12-29T14:23:18Z</time>
      </trkpt>
      <trkpt lat="43.52161" lon="6.64071">
        <ele>309</ele>
        <time>2024-12-29T14:23:21.999Z</time>
      </trkpt>
      <trkpt lat="43.52157" lon="6.64075">
        <ele>309.2</ele>
        <time>2024-12-29T14:23:26Z</time>
      </trkpt>
      <trkpt lat="43.52153" lon="6.6408">
        <ele>309.5</ele>
        <time>2024-12-29T14:23:30.999Z</time>
      </trkpt>
      <trkpt lat="43.52149" lon="6.64085">
        <ele>309.7</ele>
        <time>2024-12-29T14:23:36Z</time>
      </trkpt>
      <trkpt lat="43.52145" lon="6.64091">
        <ele>309.8</ele>
        <time>2024-12-29T14:23:40.999Z</time>
      </trkpt>
      <trkpt lat="43.52141" lon="6.64097">
        <ele>309.8</ele>
        <time>2024-12-29T14:23:46Z</time>
      </trkpt>
      <trkpt lat="43.52139" lon="6.64105">
        <ele>310.4</ele>
        <time>2024-12-29T14:23:51.499Z</time>
      </trkpt>
      <trkpt lat="43.52136" lon="6.64113">
        <ele>310.3</ele>
        <time>2024-12-29T14:23:57Z</time>
      </trkpt>
      <trkpt lat="43.52134" lon="6.64122">
        <ele>310.1</ele>
        <time>2024-12-29T14:24:04.025Z</time>
        <extensions>
          <visugpx:TrkExtension xmlns:visugpx="https://www.visugpx.com/editgpx/">
            <visugpx:node>1</visugpx:node>
            </visugpx:TrkExtension>
        </extensions>
      </trkpt>
      <trkpt lat="43.52133" lon="6.64121">
        <ele>309.8</ele>
        <time>2024-12-29T14:24:04.728Z</time>
      </trkpt>
      <trkpt lat="43.52131" lon="6.64132">
        <ele>309.6</ele>
        <time>2024-12-29T14:24:12.765Z</time>
      </trkpt>
      <trkpt lat="43.52128" lon="6.64142">
        <ele>309.1</ele>
        <time>2024-12-29T14:24:20.802Z</time>
      </trkpt>
      <trkpt lat="43.52124" lon="6.64151">
        <ele>308.6</ele>
        <time>2024-12-29T14:24:28.478Z</time>
      </trkpt>
      <trkpt lat="43.5212" lon="6.64156">
        <ele>308</ele>
        <time>2024-12-29T14:24:33.851Z</time>
      </trkpt>
      <trkpt lat="43.52116" lon="6.6416">
        <ele>307.4</ele>
        <time>2024-12-29T14:24:39.224Z</time>
      </trkpt>
      <trkpt lat="43.52111" lon="6.64165">
        <ele>306.8</ele>
        <time>2024-12-29T14:24:44.598Z</time>
      </trkpt>
      <trkpt lat="43.52107" lon="6.64169">
        <ele>306.2</ele>
        <time>2024-12-29T14:24:49.972Z</time>
      </trkpt>
      <trkpt lat="43.52102" lon="6.64174">
        <ele>305.5</ele>
        <time>2024-12-29T14:24:56.061Z</time>
      </trkpt>
      <trkpt lat="43.52097" lon="6.64179">
        <ele>304.9</ele>
        <time>2024-12-29T14:25:02.150Z</time>
      </trkpt>
      <trkpt lat="43.52092" lon="6.64183">
        <ele>304.3</ele>
        <time>2024-12-29T14:25:08.239Z</time>
      </trkpt>
      <trkpt lat="43.52087" lon="6.64188">
        <ele>303.8</ele>
        <time>2024-12-29T14:25:14.328Z</time>
      </trkpt>
      <trkpt lat="43.52082" lon="6.64194">
        <ele>303.5</ele>
        <time>2024-12-29T14:25:21.361Z</time>
      </trkpt>
      <trkpt lat="43.52076" lon="6.642">
        <ele>302.5</ele>
        <time>2024-12-29T14:25:28.394Z</time>
      </trkpt>
      <trkpt lat="43.52069" lon="6.64207">
        <ele>301.2</ele>
        <time>2024-12-29T14:25:37.174Z</time>
      </trkpt>
      <trkpt lat="43.52066" lon="6.64211">
        <ele>300.7</ele>
        <time>2024-12-29T14:25:41.563Z</time>
      </trkpt>
      <trkpt lat="43.52062" lon="6.64215">
        <ele>300.1</ele>
        <time>2024-12-29T14:25:45.954Z</time>
      </trkpt>
      <trkpt lat="43.52055" lon="6.64222">
        <ele>298.8</ele>
        <time>2024-12-29T14:25:54.734Z</time>
      </trkpt>
      <trkpt lat="43.52048" lon="6.64229">
        <ele>297.7</ele>
        <time>2024-12-29T14:26:03.514Z</time>
        <extensions>
          <visugpx:TrkExtension xmlns:visugpx="https://www.visugpx.com/editgpx/">
            <visugpx:node>2</visugpx:node>
            </visugpx:TrkExtension>
        </extensions>
      </trkpt>
      <trkpt lat="43.52044" lon="6.64233">
        <ele>297.1</ele>
        <time>2024-12-29T14:26:08.469Z</time>
      </trkpt>
      <trkpt lat="43.5204" lon="6.64237">
        <ele>296.4</ele>
        <time>2024-12-29T14:26:13.424Z</time>
      </trkpt>
      <trkpt lat="43.52036" lon="6.64241">
        <ele>295.6</ele>
        <time>2024-12-29T14:26:18.379Z</time>
      </trkpt>
      <trkpt lat="43.52032" lon="6.64245">
        <ele>294.8</ele>
        <time>2024-12-29T14:26:23.334Z</time>
      </trkpt>
      <trkpt lat="43.52027" lon="6.64251">
        <ele>293.8</ele>
        <time>2024-12-29T14:26:29.981Z</time>
      </trkpt>
      <trkpt lat="43.52025" lon="6.64254">
        <ele>293.3</ele>
        <time>2024-12-29T14:26:32.944Z</time>
      </trkpt>
      <trkpt lat="43.5202" lon="6.64261">
        <ele>292</ele>
        <time>2024-12-29T14:26:40.090Z</time>
      </trkpt>
      <trkpt lat="43.52018" lon="6.64268">
        <ele>291.6</ele>
        <time>2024-12-29T14:26:45.765Z</time>
      </trkpt>
      <trkpt lat="43.52015" lon="6.64275">
        <ele>290.8</ele>
        <time>2024-12-29T14:26:51.440Z</time>
      </trkpt>
      <trkpt lat="43.52013" lon="6.64283">
        <ele>290.4</ele>
        <time>2024-12-29T14:26:57.443Z</time>
      </trkpt>
      <trkpt lat="43.5201" lon="6.6429">
        <ele>289.7</ele>
        <time>2024-12-29T14:27:03.446Z</time>
      </trkpt>
      <trkpt lat="43.52008" lon="6.64297">
        <ele>289.3</ele>
        <time>2024-12-29T14:27:08.918Z</time>
      </trkpt>
      <trkpt lat="43.52006" lon="6.64304">
        <ele>288.9</ele>
        <time>2024-12-29T14:27:14.390Z</time>
      </trkpt>
      <trkpt lat="43.52005" lon="6.64311">
        <ele>288.3</ele>
        <time>2024-12-29T14:27:19.222Z</time>
      </trkpt>
      <trkpt lat="43.52004" lon="6.64317">
        <ele>287.6</ele>
        <time>2024-12-29T14:27:24.054Z</time>
      </trkpt>
      <trkpt lat="43.52003" lon="6.64324">
        <ele>286.8</ele>
        <time>2024-12-29T14:27:29.421Z</time>
      </trkpt>
      <trkpt lat="43.52002" lon="6.64332">
        <ele>285.9</ele>
        <time>2024-12-29T14:27:34.788Z</time>
      </trkpt>
      <trkpt lat="43.52001" lon="6.64339">
        <ele>285.2</ele>
        <time>2024-12-29T14:27:40.155Z</time>
      </trkpt>
      <trkpt lat="43.52" lon="6.64346">
        <ele>284.5</ele>
        <time>2024-12-29T14:27:45.522Z</time>
      </trkpt>
      <trkpt lat="43.52" lon="6.64354">
        <ele>284.3</ele>
        <time>2024-12-29T14:27:51.159Z</time>
      </trkpt>
      <trkpt lat="43.52" lon="6.64362">
        <ele>284</ele>
        <time>2024-12-29T14:27:56.796Z</time>
      </trkpt>
      <trkpt lat="43.52" lon="6.64369">
        <ele>283.7</ele>
        <time>2024-12-29T14:28:02.433Z</time>
      </trkpt>
      <trkpt lat="43.52" lon="6.64377">
        <ele>283.4</ele>
        <time>2024-12-29T14:28:08.070Z</time>
      </trkpt>
      <trkpt lat="43.52002" lon="6.64384">
        <ele>283.7</ele>
        <time>2024-12-29T14:28:13.031Z</time>
      </trkpt>
      <trkpt lat="43.52003" lon="6.6439">
        <ele>283.6</ele>
        <time>2024-12-29T14:28:17.992Z</time>
      </trkpt>
      <trkpt lat="43.52004" lon="6.64398">
        <ele>282.3</ele>
        <time>2024-12-29T14:28:23.897Z</time>
      </trkpt>
      <trkpt lat="43.52009" lon="6.64408">
        <ele>281.6</ele>
        <time>2024-12-29T14:28:32.732Z</time>
      </trkpt>
      <trkpt lat="43.52014" lon="6.64415">
        <ele>281.4</ele>
        <time>2024-12-29T14:28:39.879Z</time>
      </trkpt>
      <trkpt lat="43.52019" lon="6.64422">
        <ele>281.8</ele>
        <time>2024-12-29T14:28:47.026Z</time>
      </trkpt>
      <trkpt lat="43.52023" lon="6.64429">
        <ele>282.2</ele>
        <time>2024-12-29T14:28:53.509Z</time>
      </trkpt>
      <trkpt lat="43.52027" lon="6.64433">
        <ele>282.7</ele>
        <time>2024-12-29T14:28:58Z</time>
      </trkpt>
      <trkpt lat="43.52024" lon="6.64444">
        <ele>281.3</ele>
        <time>2024-12-29T14:29:08Z</time>
      </trkpt>
      <trkpt lat="43.5202" lon="6.6445">
        <ele>282.1</ele>
        <time>2024-12-29T14:29:12.499Z</time>
      </trkpt>
      <trkpt lat="43.52017" lon="6.64456">
        <ele>283.1</ele>
        <time>2024-12-29T14:29:17Z</time>
      </trkpt>
      <trkpt lat="43.52012" lon="6.64462">
        <ele>283.5</ele>
        <time>2024-12-29T14:29:21.499Z</time>
      </trkpt>
      <trkpt lat="43.52007" lon="6.64468">
        <ele>283.8</ele>
        <time>2024-12-29T14:29:26Z</time>
      </trkpt>
      <trkpt lat="43.52003" lon="6.64473">
        <ele>283.9</ele>
        <time>2024-12-29T14:29:29.999Z</time>
      </trkpt>
      <trkpt lat="43.51999" lon="6.64479">
        <ele>284</ele>
        <time>2024-12-29T14:29:34Z</time>
      </trkpt>
      <trkpt lat="43.51995" lon="6.64484">
        <ele>283.7</ele>
        <time>2024-12-29T14:29:37.999Z</time>
      </trkpt>
      <trkpt lat="43.51991" lon="6.64489">
        <ele>283.4</ele>
        <time>2024-12-29T14:29:42Z</time>
      </trkpt>
      <trkpt lat="43.51988" lon="6.64495">
        <ele>283.4</ele>
        <time>2024-12-29T14:29:46.499Z</time>
      </trkpt>
      <trkpt lat="43.51986" lon="6.64501">
        <ele>283.6</ele>
        <time>2024-12-29T14:29:51Z</time>
      </trkpt>
      <trkpt lat="43.51982" lon="6.6451">
        <ele>283.1</ele>
        <time>2024-12-29T14:29:59Z</time>
      </trkpt>
      <trkpt lat="43.5198" lon="6.64516">
        <ele>283</ele>
        <time>2024-12-29T14:30:02.999Z</time>
      </trkpt>
      <trkpt lat="43.51979" lon="6.64522">
        <ele>283.2</ele>
        <time>2024-12-29T14:30:07Z</time>
      </trkpt>
      <trkpt lat="43.51977" lon="6.64528">
        <ele>282.9</ele>
        <time>2024-12-29T14:30:10.999Z</time>
      </trkpt>
      <trkpt lat="43.51976" lon="6.64535">
        <ele>283.1</ele>
        <time>2024-12-29T14:30:15Z</time>
      </trkpt>
      <trkpt lat="43.51972" lon="6.64543">
        <ele>282</ele>
        <time>2024-12-29T14:30:29Z</time>
      </trkpt>
      <trkpt lat="43.51971" lon="6.6455">
        <ele>282.2</ele>
        <time>2024-12-29T14:30:34.499Z</time>
      </trkpt>
      <trkpt lat="43.5197" lon="6.64557">
        <ele>282.1</ele>
        <time>2024-12-29T14:30:40Z</time>
      </trkpt>
      <trkpt lat="43.51971" lon="6.64565">
        <ele>281.3</ele>
        <time>2024-12-29T14:30:44.500Z</time>
      </trkpt>
      <trkpt lat="43.51973" lon="6.64572">
        <ele>281</ele>
        <time>2024-12-29T14:30:49Z</time>
      </trkpt>
      <trkpt lat="43.51975" lon="6.64578">
        <ele>280.9</ele>
        <time>2024-12-29T14:30:53.500Z</time>
      </trkpt>
      <trkpt lat="43.51977" lon="6.64584">
        <ele>280.7</ele>
        <time>2024-12-29T14:30:58Z</time>
      </trkpt>
      <trkpt lat="43.5198" lon="6.64589">
        <ele>280.3</ele>
        <time>2024-12-29T14:31:03.000Z</time>
      </trkpt>
      <trkpt lat="43.51983" lon="6.64595">
        <ele>279.4</ele>
        <time>2024-12-29T14:31:08Z</time>
      </trkpt>
      <trkpt lat="43.51987" lon="6.64599">
        <ele>279.4</ele>
        <time>2024-12-29T14:31:13.500Z</time>
      </trkpt>
      <trkpt lat="43.51991" lon="6.64604">
        <ele>279</ele>
        <time>2024-12-29T14:31:19Z</time>
      </trkpt>
      <trkpt lat="43.51996" lon="6.6461">
        <ele>278.3</ele>
        <time>2024-12-29T14:31:24.000Z</time>
      </trkpt>
      <trkpt lat="43.52001" lon="6.64616">
        <ele>278.6</ele>
        <time>2024-12-29T14:31:29Z</time>
      </trkpt>
      <trkpt lat="43.52004" lon="6.64622">
        <ele>278.9</ele>
        <time>2024-12-29T14:31:33.500Z</time>
      </trkpt>
      <trkpt lat="43.52008" lon="6.64628">
        <ele>279.5</ele>
        <time>2024-12-29T14:31:38Z</time>
      </trkpt>
      <trkpt lat="43.5201" lon="6.64635">
        <ele>279.1</ele>
        <time>2024-12-29T14:31:42.000Z</time>
      </trkpt>
      <trkpt lat="43.52012" lon="6.64641">
        <ele>278.9</ele>
        <time>2024-12-29T14:31:46Z</time>
      </trkpt>
      <trkpt lat="43.52013" lon="6.64648">
        <ele>278.5</ele>
        <time>2024-12-29T14:31:50.000Z</time>
      </trkpt>
      <trkpt lat="43.52014" lon="6.64655">
        <ele>278</ele>
        <time>2024-12-29T14:31:54Z</time>
      </trkpt>
      <trkpt lat="43.52016" lon="6.64662">
        <ele>277.8</ele>
        <time>2024-12-29T14:31:58.000Z</time>
      </trkpt>
      <trkpt lat="43.52017" lon="6.64668">
        <ele>277.4</ele>
        <time>2024-12-29T14:32:02Z</time>
      </trkpt>
      <trkpt lat="43.52017" lon="6.64675">
        <ele>277</ele>
        <time>2024-12-29T14:32:06.500Z</time>
      </trkpt>
      <trkpt lat="43.52017" lon="6.64681">
        <ele>276.6</ele>
        <time>2024-12-29T14:32:11Z</time>
      </trkpt>
      <trkpt lat="43.52017" lon="6.64689">
        <ele>276</ele>
        <time>2024-12-29T14:32:16.000Z</time>
      </trkpt>
      <trkpt lat="43.52017" lon="6.64697">
        <ele>275.5</ele>
        <time>2024-12-29T14:32:21Z</time>
      </trkpt>
      <trkpt lat="43.52018" lon="6.64704">
        <ele>275.1</ele>
        <time>2024-12-29T14:32:25.500Z</time>
      </trkpt>
      <trkpt lat="43.52019" lon="6.6471">
        <ele>274.8</ele>
        <time>2024-12-29T14:32:30Z</time>
      </trkpt>
      <trkpt lat="43.52021" lon="6.64716">
        <ele>274.6</ele>
        <time>2024-12-29T14:32:34.500Z</time>
      </trkpt>
      <trkpt lat="43.52022" lon="6.64723">
        <ele>274.1</ele>
        <time>2024-12-29T14:32:39Z</time>
      </trkpt>
      <trkpt lat="43.52023" lon="6.6473">
        <ele>273.8</ele>
        <time>2024-12-29T14:32:43.000Z</time>
      </trkpt>
      <trkpt lat="43.52024" lon="6.64737">
        <ele>273.5</ele>
        <time>2024-12-29T14:32:47Z</time>
      </trkpt>
      <trkpt lat="43.52026" lon="6.64744">
        <ele>273.2</ele>
        <time>2024-12-29T14:32:51.000Z</time>
      </trkpt>
      <trkpt lat="43.52028" lon="6.64751">
        <ele>272.9</ele>
        <time>2024-12-29T14:32:55Z</time>
      </trkpt>
      <trkpt lat="43.52031" lon="6.64757">
        <ele>272.9</ele>
        <time>2024-12-29T14:32:59.500Z</time>
      </trkpt>
      <trkpt lat="43.52033" lon="6.64763">
        <ele>272.7</ele>
        <time>2024-12-29T14:33:04Z</time>
      </trkpt>
      <trkpt lat="43.52035" lon="6.64769">
        <ele>272.6</ele>
        <time>2024-12-29T14:33:08.500Z</time>
      </trkpt>
      <trkpt lat="43.52036" lon="6.64776">
        <ele>272.2</ele>
        <time>2024-12-29T14:33:13Z</time>
      </trkpt>
      <trkpt lat="43.52038" lon="6.64783">
        <ele>271.5</ele>
        <time>2024-12-29T14:33:17.500Z</time>
      </trkpt>
      <trkpt lat="43.5204" lon="6.64791">
        <ele>270.4</ele>
        <time>2024-12-29T14:33:22Z</time>
      </trkpt>
      <trkpt lat="43.52042" lon="6.64798">
        <ele>269.6</ele>
        <time>2024-12-29T14:33:26.500Z</time>
      </trkpt>
      <trkpt lat="43.52044" lon="6.64805">
        <ele>268.9</ele>
        <time>2024-12-29T14:33:31Z</time>
      </trkpt>
      <trkpt lat="43.52047" lon="6.64816">
        <ele>268.3</ele>
        <time>2024-12-29T14:33:39Z</time>
      </trkpt>
      <trkpt lat="43.5205" lon="6.64823">
        <ele>268.4</ele>
        <time>2024-12-29T14:33:43.500Z</time>
      </trkpt>
      <trkpt lat="43.52053" lon="6.6483">
        <ele>268.5</ele>
        <time>2024-12-29T14:33:48Z</time>
      </trkpt>
      <trkpt lat="43.52053" lon="6.64838">
        <ele>267.2</ele>
        <time>2024-12-29T14:33:52.499Z</time>
      </trkpt>
      <trkpt lat="43.52052" lon="6.64845">
        <ele>265.7</ele>
        <time>2024-12-29T14:33:57Z</time>
      </trkpt>
      <trkpt lat="43.52051" lon="6.64852">
        <ele>264.2</ele>
        <time>2024-12-29T14:34:45Z</time>
      </trkpt>
      <trkpt lat="43.52051" lon="6.6486">
        <ele>262.9</ele>
        <time>2024-12-29T14:34:52.500Z</time>
      </trkpt>
      <trkpt lat="43.52051" lon="6.64867">
        <ele>261.9</ele>
        <time>2024-12-29T14:35:00Z</time>
      </trkpt>
      <trkpt lat="43.52051" lon="6.64876">
        <ele>260.6</ele>
        <time>2024-12-29T14:35:06.500Z</time>
      </trkpt>
      <trkpt lat="43.52051" lon="6.64885">
        <ele>259.4</ele>
        <time>2024-12-29T14:35:13Z</time>
      </trkpt>
      <trkpt lat="43.52051" lon="6.64892">
        <ele>258.4</ele>
        <time>2024-12-29T14:35:18.000Z</time>
      </trkpt>
      <trkpt lat="43.52051" lon="6.64898">
        <ele>257.6</ele>
        <time>2024-12-29T14:35:23Z</time>
      </trkpt>
      <trkpt lat="43.52052" lon="6.64905">
        <ele>256.9</ele>
        <time>2024-12-29T14:35:28.000Z</time>
      </trkpt>
      <trkpt lat="43.52054" lon="6.64912">
        <ele>256.3</ele>
        <time>2024-12-29T14:35:33Z</time>
      </trkpt>
      <trkpt lat="43.52055" lon="6.6492">
        <ele>255.5</ele>
        <time>2024-12-29T14:35:37.500Z</time>
      </trkpt>
      <trkpt lat="43.52056" lon="6.64927">
        <ele>255</ele>
        <time>2024-12-29T14:35:42Z</time>
      </trkpt>
      <trkpt lat="43.52058" lon="6.64933">
        <ele>254.9</ele>
        <time>2024-12-29T14:35:46.500Z</time>
      </trkpt>
      <trkpt lat="43.52061" lon="6.64939">
        <ele>254.9</ele>
        <time>2024-12-29T14:35:51Z</time>
      </trkpt>
      <trkpt lat="43.52062" lon="6.64946">
        <ele>254</ele>
        <time>2024-12-29T14:35:55.500Z</time>
      </trkpt>
      <trkpt lat="43.52064" lon="6.64954">
        <ele>252.6</ele>
        <time>2024-12-29T14:36:00Z</time>
      </trkpt>
      <trkpt lat="43.52066" lon="6.6496">
        <ele>251.5</ele>
        <time>2024-12-29T14:36:30.500Z</time>
      </trkpt>
      <trkpt lat="43.52068" lon="6.64965">
        <ele>250.6</ele>
        <time>2024-12-29T14:37:01Z</time>
      </trkpt>
      <trkpt lat="43.52072" lon="6.64975">
        <ele>249.3</ele>
        <time>2024-12-29T14:37:20Z</time>
      </trkpt>
      <trkpt lat="43.52074" lon="6.64981">
        <ele>249.4</ele>
        <time>2024-12-29T14:37:30.500Z</time>
      </trkpt>
      <trkpt lat="43.52075" lon="6.64987">
        <ele>249.4</ele>
        <time>2024-12-29T14:37:41Z</time>
      </trkpt>
      <trkpt lat="43.52071" lon="6.64996">
        <ele>248.7</ele>
        <time>2024-12-29T14:37:55Z</time>
      </trkpt>
      <trkpt lat="43.52075" lon="6.65006">
        <ele>249.4</ele>
        <time>2024-12-29T14:38:08Z</time>
      </trkpt>
      <trkpt lat="43.52071" lon="6.65011">
        <ele>249.1</ele>
        <time>2024-12-29T14:38:16.999Z</time>
      </trkpt>
      <trkpt lat="43.52068" lon="6.65016">
        <ele>248.9</ele>
        <time>2024-12-29T14:38:26Z</time>
      </trkpt>
      <trkpt lat="43.52067" lon="6.65024">
        <ele>248.9</ele>
        <time>2024-12-29T14:38:30.499Z</time>
      </trkpt>
      <trkpt lat="43.52066" lon="6.65031">
        <ele>248.8</ele>
        <time>2024-12-29T14:38:35Z</time>
      </trkpt>
      <trkpt lat="43.52065" lon="6.65038">
        <ele>248.5</ele>
        <time>2024-12-29T14:38:40.499Z</time>
      </trkpt>
      <trkpt lat="43.52064" lon="6.65044">
        <ele>248.1</ele>
        <time>2024-12-29T14:38:46Z</time>
      </trkpt>
      <trkpt lat="43.52062" lon="6.65056">
        <ele>247.3</ele>
        <time>2024-12-29T14:39:03Z</time>
      </trkpt>
      <trkpt lat="43.52062" lon="6.6506">
        <ele>246.2</ele>
        <time>2024-12-29T14:39:37Z</time>
      </trkpt>
      <trkpt lat="43.52062" lon="6.6506">
        <ele>246.2</ele>
        <time>2024-12-29T14:40:40Z</time>
      </trkpt>
      <trkpt lat="43.52062" lon="6.65057">
        <ele>247</ele>
        <time>2024-12-29T14:41:50Z</time>
      </trkpt>
      <trkpt lat="43.52062" lon="6.65053">
        <ele>247.5</ele>
        <time>2024-12-29T14:44:38Z</time>
      </trkpt>
      <trkpt lat="43.5206" lon="6.65048">
        <ele>247.2</ele>
        <time>2024-12-29T14:45:11Z</time>
      </trkpt>
      <trkpt lat="43.52061" lon="6.65041">
        <ele>247.6</ele>
        <time>2024-12-29T14:45:19.500Z</time>
      </trkpt>
      <trkpt lat="43.52061" lon="6.65033">
        <ele>247.8</ele>
        <time>2024-12-29T14:45:28Z</time>
      </trkpt>
      <trkpt lat="43.52064" lon="6.65025">
        <ele>248.5</ele>
        <time>2024-12-29T14:46:03Z</time>
      </trkpt>
      <trkpt lat="43.52057" lon="6.65021">
        <ele>247.2</ele>
        <time>2024-12-29T14:46:33Z</time>
      </trkpt>
      <trkpt lat="43.52051" lon="6.65025">
        <ele>246.7</ele>
        <time>2024-12-29T14:46:57Z</time>
      </trkpt>
      <trkpt lat="43.52046" lon="6.65029">
        <ele>246.3</ele>
        <time>2024-12-29T14:47:02.499Z</time>
      </trkpt>
      <trkpt lat="43.52041" lon="6.65033">
        <ele>246.1</ele>
        <time>2024-12-29T14:47:08Z</time>
      </trkpt>
      <trkpt lat="43.52037" lon="6.65036">
        <ele>246</ele>
        <time>2024-12-29T14:47:12.999Z</time>
      </trkpt>
      <trkpt lat="43.52032" lon="6.65039">
        <ele>245.9</ele>
        <time>2024-12-29T14:47:18Z</time>
      </trkpt>
      <trkpt lat="43.52028" lon="6.65043">
        <ele>246.1</ele>
        <time>2024-12-29T14:47:23.499Z</time>
      </trkpt>
      <trkpt lat="43.52023" lon="6.65047">
        <ele>245.8</ele>
        <time>2024-12-29T14:47:29Z</time>
      </trkpt>
      <trkpt lat="43.52019" lon="6.65051">
        <ele>245.7</ele>
        <time>2024-12-29T14:47:33.499Z</time>
      </trkpt>
      <trkpt lat="43.52015" lon="6.65056">
        <ele>245.6</ele>
        <time>2024-12-29T14:47:38Z</time>
      </trkpt>
      <trkpt lat="43.52009" lon="6.65059">
        <ele>245.4</ele>
        <time>2024-12-29T14:47:43.499Z</time>
      </trkpt>
      <trkpt lat="43.52004" lon="6.65062">
        <ele>245.4</ele>
        <time>2024-12-29T14:47:49Z</time>
      </trkpt>
      <trkpt lat="43.52" lon="6.65065">
        <ele>245.7</ele>
        <time>2024-12-29T14:47:53.499Z</time>
      </trkpt>
      <trkpt lat="43.51995" lon="6.65068">
        <ele>245.7</ele>
        <time>2024-12-29T14:47:58Z</time>
      </trkpt>
      <trkpt lat="43.5199" lon="6.65071">
        <ele>245.7</ele>
        <time>2024-12-29T14:48:03.499Z</time>
      </trkpt>
      <trkpt lat="43.51985" lon="6.65074">
        <ele>245.7</ele>
        <time>2024-12-29T14:48:09Z</time>
      </trkpt>
      <trkpt lat="43.5198" lon="6.65074">
        <ele>245.2</ele>
        <time>2024-12-29T14:48:14.500Z</time>
      </trkpt>
      <trkpt lat="43.51974" lon="6.65073">
        <ele>244.3</ele>
        <time>2024-12-29T14:48:20Z</time>
      </trkpt>
      <trkpt lat="43.51968" lon="6.65074">
        <ele>244</ele>
        <time>2024-12-29T14:48:26.000Z</time>
      </trkpt>
      <trkpt lat="43.51962" lon="6.65076">
        <ele>243.9</ele>
        <time>2024-12-29T14:48:32Z</time>
      </trkpt>
      <trkpt lat="43.51957" lon="6.65075">
        <ele>243.4</ele>
        <time>2024-12-29T14:48:37.000Z</time>
      </trkpt>
      <trkpt lat="43.51952" lon="6.65073">
        <ele>242.7</ele>
        <time>2024-12-29T14:48:42Z</time>
      </trkpt>
      <trkpt lat="43.51944" lon="6.65077">
        <ele>242.8</ele>
        <time>2024-12-29T14:48:52Z</time>
      </trkpt>
      <trkpt lat="43.5194" lon="6.65083">
        <ele>243.5</ele>
        <time>2024-12-29T14:49:00.999Z</time>
      </trkpt>
      <trkpt lat="43.51937" lon="6.65089">
        <ele>244.3</ele>
        <time>2024-12-29T14:49:10Z</time>
      </trkpt>
      <trkpt lat="43.51932" lon="6.65092">
        <ele>244.4</ele>
        <time>2024-12-29T14:49:16.999Z</time>
      </trkpt>
      <trkpt lat="43.51928" lon="6.65096">
        <ele>244.8</ele>
        <time>2024-12-29T14:49:24Z</time>
      </trkpt>
      <trkpt lat="43.51922" lon="6.65097">
        <ele>244.4</ele>
        <time>2024-12-29T14:49:30.500Z</time>
      </trkpt>
      <trkpt lat="43.51917" lon="6.65097">
        <ele>244</ele>
        <time>2024-12-29T14:49:37Z</time>
      </trkpt>
      <trkpt lat="43.51912" lon="6.65099">
        <ele>243.9</ele>
        <time>2024-12-29T14:49:42.499Z</time>
      </trkpt>
      <trkpt lat="43.51906" lon="6.65101">
        <ele>243.7</ele>
        <time>2024-12-29T14:49:48Z</time>
      </trkpt>
      <trkpt lat="43.51902" lon="6.65103">
        <ele>243.7</ele>
        <time>2024-12-29T14:49:53.000Z</time>
      </trkpt>
      <trkpt lat="43.51897" lon="6.65104">
        <ele>243.3</ele>
        <time>2024-12-29T14:49:58Z</time>
      </trkpt>
      <trkpt lat="43.51889" lon="6.65106">
        <ele>242.9</ele>
        <time>2024-12-29T14:50:09Z</time>
      </trkpt>
      <trkpt lat="43.51885" lon="6.65108">
        <ele>242.8</ele>
        <time>2024-12-29T14:50:19.999Z</time>
      </trkpt>
      <trkpt lat="43.5188" lon="6.6511">
        <ele>242.5</ele>
        <time>2024-12-29T14:50:31Z</time>
      </trkpt>
      <trkpt lat="43.51874" lon="6.65111">
        <ele>241.8</ele>
        <time>2024-12-29T14:50:52Z</time>
      </trkpt>
      <trkpt lat="43.51868" lon="6.65115">
        <ele>241.5</ele>
        <time>2024-12-29T14:51:13Z</time>
      </trkpt>
      <trkpt lat="43.51862" lon="6.65114">
        <ele>240.5</ele>
        <time>2024-12-29T14:51:24.499Z</time>
      </trkpt>
      <trkpt lat="43.51857" lon="6.65112">
        <ele>239.5</ele>
        <time>2024-12-29T14:51:36Z</time>
      </trkpt>
      <trkpt lat="43.51851" lon="6.65119">
        <ele>239.7</ele>
        <time>2024-12-29T14:51:51Z</time>
      </trkpt>
      <trkpt lat="43.51846" lon="6.6512">
        <ele>239.1</ele>
        <time>2024-12-29T14:51:58.000Z</time>
      </trkpt>
      <trkpt lat="43.51842" lon="6.65121">
        <ele>238.7</ele>
        <time>2024-12-29T14:52:05Z</time>
      </trkpt>
      <trkpt lat="43.51836" lon="6.65121">
        <ele>237.8</ele>
        <time>2024-12-29T14:52:12.000Z</time>
      </trkpt>
      <trkpt lat="43.51831" lon="6.65122">
        <ele>237.1</ele>
        <time>2024-12-29T14:52:19Z</time>
      </trkpt>
      <trkpt lat="43.51823" lon="6.65127">
        <ele>236.3</ele>
        <time>2024-12-29T14:52:29Z</time>
      </trkpt>
      <trkpt lat="43.51818" lon="6.65127">
        <ele>235.3</ele>
        <time>2024-12-29T14:52:33.500Z</time>
      </trkpt>
      <trkpt lat="43.51813" lon="6.65128">
        <ele>234.5</ele>
        <time>2024-12-29T14:52:38Z</time>
      </trkpt>
      <trkpt lat="43.51809" lon="6.65134">
        <ele>234.8</ele>
        <time>2024-12-29T14:52:43.999Z</time>
      </trkpt>
      <trkpt lat="43.51806" lon="6.6514">
        <ele>235.2</ele>
        <time>2024-12-29T14:52:50Z</time>
      </trkpt>
      <trkpt lat="43.51801" lon="6.65146">
        <ele>235.6</ele>
        <time>2024-12-29T14:52:55.499Z</time>
      </trkpt>
      <trkpt lat="43.51797" lon="6.65151">
        <ele>235.9</ele>
        <time>2024-12-29T14:53:01Z</time>
      </trkpt>
      <trkpt lat="43.51789" lon="6.65152">
        <ele>235.5</ele>
        <time>2024-12-29T14:53:13Z</time>
      </trkpt>
      <trkpt lat="43.51784" lon="6.65155">
        <ele>235.5</ele>
        <time>2024-12-29T14:53:19.499Z</time>
      </trkpt>
      <trkpt lat="43.5178" lon="6.65158">
        <ele>235.5</ele>
        <time>2024-12-29T14:53:26Z</time>
      </trkpt>
      <trkpt lat="43.51779" lon="6.6516">
        <ele>235.6</ele>
        <time>2024-12-29T14:53:52Z</time>
      </trkpt>
      <trkpt lat="43.51783" lon="6.65164">
        <ele>236.2</ele>
        <time>2024-12-29T14:54:13Z</time>
      </trkpt>
      <trkpt lat="43.51785" lon="6.65172">
        <ele>236.6</ele>
        <time>2024-12-29T14:54:30Z</time>
      </trkpt>
      <trkpt lat="43.51786" lon="6.65179">
        <ele>236.7</ele>
        <time>2024-12-29T14:54:36.500Z</time>
      </trkpt>
      <trkpt lat="43.51787" lon="6.65185">
        <ele>236.9</ele>
        <time>2024-12-29T14:54:43Z</time>
      </trkpt>
      <trkpt lat="43.51779" lon="6.65185">
        <ele>236.1</ele>
        <time>2024-12-29T14:55:01Z</time>
      </trkpt>
      <trkpt lat="43.51775" lon="6.65181">
        <ele>235.5</ele>
        <time>2024-12-29T14:55:08.999Z</time>
      </trkpt>
      <trkpt lat="43.51771" lon="6.65178">
        <ele>234.6</ele>
        <time>2024-12-29T14:55:17Z</time>
      </trkpt>
      <trkpt lat="43.51768" lon="6.6517">
        <ele>233.7</ele>
        <time>2024-12-29T14:55:24.999Z</time>
      </trkpt>
      <trkpt lat="43.51765" lon="6.65163">
        <ele>232.5</ele>
        <time>2024-12-29T14:55:33Z</time>
      </trkpt>
      <trkpt lat="43.51758" lon="6.65162">
        <ele>230.7</ele>
        <time>2024-12-29T14:55:58Z</time>
      </trkpt>
      <trkpt lat="43.51752" lon="6.65168">
        <ele>229.6</ele>
        <time>2024-12-29T14:56:03.499Z</time>
      </trkpt>
      <trkpt lat="43.51746" lon="6.65174">
        <ele>229.2</ele>
        <time>2024-12-29T14:56:09Z</time>
      </trkpt>
      <trkpt lat="43.51739" lon="6.65179">
        <ele>228.6</ele>
        <time>2024-12-29T14:56:18Z</time>
      </trkpt>
      <trkpt lat="43.51733" lon="6.65182">
        <ele>227.9</ele>
        <time>2024-12-29T14:56:23.499Z</time>
      </trkpt>
      <trkpt lat="43.51728" lon="6.65186">
        <ele>227.4</ele>
        <time>2024-12-29T14:56:29Z</time>
      </trkpt>
      <trkpt lat="43.5172" lon="6.65191">
        <ele>226.5</ele>
        <time>2024-12-29T14:56:38Z</time>
      </trkpt>
      <trkpt lat="43.51715" lon="6.65199">
        <ele>226.1</ele>
        <time>2024-12-29T14:56:47Z</time>
      </trkpt>
      <trkpt lat="43.5171" lon="6.65208">
        <ele>225.5</ele>
        <time>2024-12-29T14:57:03Z</time>
      </trkpt>
      <trkpt lat="43.51707" lon="6.65213">
        <ele>225.1</ele>
        <time>2024-12-29T14:57:06.797Z</time>
      </trkpt>
      <trkpt lat="43.51704" lon="6.65218">
        <ele>224.7</ele>
        <time>2024-12-29T14:57:10.594Z</time>
      </trkpt>
      <trkpt lat="43.51699" lon="6.65224">
        <ele>223.8</ele>
        <time>2024-12-29T14:57:16Z</time>
      </trkpt>
      <trkpt lat="43.51697" lon="6.65232">
        <ele>223.5</ele>
        <time>2024-12-29T14:57:21.499Z</time>
      </trkpt>
      <trkpt lat="43.51694" lon="6.65239">
        <ele>222.9</ele>
        <time>2024-12-29T14:57:27Z</time>
      </trkpt>
      <trkpt lat="43.51693" lon="6.65246">
        <ele>222.8</ele>
        <time>2024-12-29T14:57:32.499Z</time>
      </trkpt>
      <trkpt lat="43.51692" lon="6.65253">
        <ele>222.6</ele>
        <time>2024-12-29T14:57:38Z</time>
      </trkpt>
      <trkpt lat="43.5169" lon="6.65259">
        <ele>222.3</ele>
        <time>2024-12-29T14:57:43.999Z</time>
      </trkpt>
      <trkpt lat="43.51689" lon="6.65265">
        <ele>222.1</ele>
        <time>2024-12-29T14:57:50Z</time>
      </trkpt>
      <trkpt lat="43.51687" lon="6.65277">
        <ele>221.7</ele>
        <time>2024-12-29T14:58:01Z</time>
      </trkpt>
      <trkpt lat="43.51687" lon="6.65284">
        <ele>221.7</ele>
        <time>2024-12-29T14:58:06.999Z</time>
      </trkpt>
      <trkpt lat="43.51686" lon="6.65291">
        <ele>221.5</ele>
        <time>2024-12-29T14:58:13Z</time>
      </trkpt>
      <trkpt lat="43.51686" lon="6.65301">
        <ele>221.5</ele>
        <time>2024-12-29T14:58:20.230Z</time>
      </trkpt>
      <trkpt lat="43.51687" lon="6.65308">
        <ele>221.8</ele>
        <time>2024-12-29T14:58:25Z</time>
      </trkpt>
      <trkpt lat="43.51687" lon="6.65314">
        <ele>222.2</ele>
        <time>2024-12-29T14:58:32.999Z</time>
      </trkpt>
      <trkpt lat="43.51686" lon="6.65321">
        <ele>222.4</ele>
        <time>2024-12-29T14:58:41Z</time>
      </trkpt>
      <trkpt lat="43.51685" lon="6.65333">
        <ele>222.9</ele>
        <time>2024-12-29T14:58:55Z</time>
      </trkpt>
      <trkpt lat="43.51683" lon="6.65339">
        <ele>223</ele>
        <time>2024-12-29T14:59:01.999Z</time>
      </trkpt>
      <trkpt lat="43.51681" lon="6.65345">
        <ele>223.1</ele>
        <time>2024-12-29T14:59:09Z</time>
      </trkpt>
      <trkpt lat="43.51678" lon="6.6535">
        <ele>223</ele>
        <time>2024-12-29T14:59:14.999Z</time>
      </trkpt>
      <trkpt lat="43.51675" lon="6.65355">
        <ele>222.9</ele>
        <time>2024-12-29T14:59:21Z</time>
      </trkpt>
      <trkpt lat="43.51672" lon="6.65356">
        <ele>222.4</ele>
        <time>2024-12-29T15:00:06Z</time>
      </trkpt>
      <trkpt lat="43.51669" lon="6.65363">
        <ele>222.6</ele>
        <time>2024-12-29T15:00:12.999Z</time>
      </trkpt>
      <trkpt lat="43.51667" lon="6.65371">
        <ele>222.8</ele>
        <time>2024-12-29T15:00:20Z</time>
      </trkpt>
      <trkpt lat="43.51663" lon="6.65377">
        <ele>222</ele>
        <time>2024-12-29T15:00:25.999Z</time>
      </trkpt>
      <trkpt lat="43.5166" lon="6.65383">
        <ele>221.5</ele>
        <time>2024-12-29T15:00:32Z</time>
      </trkpt>
      <trkpt lat="43.51656" lon="6.65388">
        <ele>220.5</ele>
        <time>2024-12-29T15:00:39.499Z</time>
      </trkpt>
      <trkpt lat="43.51653" lon="6.65392">
        <ele>219.8</ele>
        <time>2024-12-29T15:00:47Z</time>
      </trkpt>
      <trkpt lat="43.51649" lon="6.65397">
        <ele>218.9</ele>
        <time>2024-12-29T15:00:53.499Z</time>
      </trkpt>
      <trkpt lat="43.51646" lon="6.65402">
        <ele>218.5</ele>
        <time>2024-12-29T15:01:00Z</time>
      </trkpt>
      <trkpt lat="43.51642" lon="6.65402">
        <ele>217.2</ele>
        <time>2024-12-29T15:01:11.000Z</time>
      </trkpt>
      <trkpt lat="43.51637" lon="6.65402">
        <ele>215.8</ele>
        <time>2024-12-29T15:01:22Z</time>
      </trkpt>
      <trkpt lat="43.51632" lon="6.65404">
        <ele>214.4</ele>
        <time>2024-12-29T15:01:52Z</time>
      </trkpt>
      <trkpt lat="43.51626" lon="6.65403">
        <ele>212.3</ele>
        <time>2024-12-29T15:01:55.978Z</time>
      </trkpt>
      <trkpt lat="43.51624" lon="6.65414">
        <ele>212.9</ele>
        <time>2024-12-29T15:02:02Z</time>
      </trkpt>
      <trkpt lat="43.51622" lon="6.65422">
        <ele>212.8</ele>
        <time>2024-12-29T15:02:06.499Z</time>
      </trkpt>
      <trkpt lat="43.51619" lon="6.65429">
        <ele>212.1</ele>
        <time>2024-12-29T15:02:11Z</time>
      </trkpt>
      <trkpt lat="43.51617" lon="6.65435">
        <ele>211.7</ele>
        <time>2024-12-29T15:02:16.499Z</time>
      </trkpt>
      <trkpt lat="43.51614" lon="6.65441">
        <ele>210.9</ele>
        <time>2024-12-29T15:02:22Z</time>
      </trkpt>
      <trkpt lat="43.51612" lon="6.65449">
        <ele>210.5</ele>
        <time>2024-12-29T15:02:29.999Z</time>
      </trkpt>
      <trkpt lat="43.51609" lon="6.65457">
        <ele>209.5</ele>
        <time>2024-12-29T15:02:38Z</time>
      </trkpt>
      <trkpt lat="43.51608" lon="6.65463">
        <ele>209.3</ele>
        <time>2024-12-29T15:02:44.499Z</time>
      </trkpt>
      <trkpt lat="43.51606" lon="6.6547">
        <ele>208.7</ele>
        <time>2024-12-29T15:02:51Z</time>
      </trkpt>
      <trkpt lat="43.51604" lon="6.65478">
        <ele>208.1</ele>
        <time>2024-12-29T15:02:55.999Z</time>
      </trkpt>
      <trkpt lat="43.51603" lon="6.65485">
        <ele>207.8</ele>
        <time>2024-12-29T15:03:01Z</time>
      </trkpt>
      <trkpt lat="43.51602" lon="6.65492">
        <ele>207.5</ele>
        <time>2024-12-29T15:03:06.499Z</time>
      </trkpt>
      <trkpt lat="43.51602" lon="6.65498">
        <ele>207.7</ele>
        <time>2024-12-29T15:03:12Z</time>
      </trkpt>
      <trkpt lat="43.51602" lon="6.65505">
        <ele>207.3</ele>
        <time>2024-12-29T15:03:15.304Z</time>
      </trkpt>
      <trkpt lat="43.51601" lon="6.65511">
        <ele>206.8</ele>
        <time>2024-12-29T15:03:18.609Z</time>
      </trkpt>
      <trkpt lat="43.51602" lon="6.65521">
        <ele>206.7</ele>
        <time>2024-12-29T15:03:24Z</time>
      </trkpt>
      <trkpt lat="43.51603" lon="6.65527">
        <ele>206.8</ele>
        <time>2024-12-29T15:03:29.500Z</time>
      </trkpt>
      <trkpt lat="43.51604" lon="6.65533">
        <ele>206.4</ele>
        <time>2024-12-29T15:03:35Z</time>
      </trkpt>
      <trkpt lat="43.51605" lon="6.65544">
        <ele>205.4</ele>
        <time>2024-12-29T15:03:47Z</time>
      </trkpt>
      <trkpt lat="43.51607" lon="6.65555">
        <ele>205.3</ele>
        <time>2024-12-29T15:03:59Z</time>
      </trkpt>
      <trkpt lat="43.51609" lon="6.65561">
        <ele>205.4</ele>
        <time>2024-12-29T15:04:07.500Z</time>
      </trkpt>
      <trkpt lat="43.51611" lon="6.65566">
        <ele>206</ele>
        <time>2024-12-29T15:04:16Z</time>
      </trkpt>
      <trkpt lat="43.51613" lon="6.65574">
        <ele>202.4</ele>
        <time>2024-12-29T15:04:24.500Z</time>
      </trkpt>
      <trkpt lat="43.51615" lon="6.65582">
        <ele>197.1</ele>
        <time>2024-12-29T15:04:33Z</time>
      </trkpt>
      <trkpt lat="43.51613" lon="6.6559">
        <ele>195.2</ele>
        <time>2024-12-29T15:05:03Z</time>
      </trkpt>
      <trkpt lat="43.51618" lon="6.656">
        <ele>180.8</ele>
        <time>2024-12-29T15:05:18Z</time>
      </trkpt>
      <trkpt lat="43.5162" lon="6.65602">
        <ele>176.6</ele>
        <time>2024-12-29T15:06:13Z</time>
      </trkpt>
      <trkpt lat="43.51623" lon="6.656">
        <ele>173.4</ele>
        <time>2024-12-29T15:07:39Z</time>
      </trkpt>
      <trkpt lat="43.51619" lon="6.65604">
        <ele>176.7</ele>
        <time>2024-12-29T15:08:27Z</time>
      </trkpt>
      <trkpt lat="43.51617" lon="6.656">
        <ele>182.3</ele>
        <time>2024-12-29T15:09:23Z</time>
      </trkpt>
      <trkpt lat="43.51617" lon="6.65599">
        <ele>182.9</ele>
        <time>2024-12-29T15:10:07Z</time>
      </trkpt>
      <trkpt lat="43.51617" lon="6.65597">
        <ele>184.2</ele>
        <time>2024-12-29T15:10:52Z</time>
      </trkpt>
      <trkpt lat="43.51611" lon="6.65593">
        <ele>195.9</ele>
        <time>2024-12-29T15:11:09.449Z</time>
      </trkpt>
      <trkpt lat="43.51612" lon="6.65584">
        <ele>201.1</ele>
        <time>2024-12-29T15:11:26Z</time>
      </trkpt>
      <trkpt lat="43.51613" lon="6.65573">
        <ele>202.7</ele>
        <time>2024-12-29T15:11:47Z</time>
      </trkpt>
      <trkpt lat="43.5161" lon="6.65567">
        <ele>205</ele>
        <time>2024-12-29T15:12:07Z</time>
      </trkpt>
      <trkpt lat="43.51607" lon="6.6556">
        <ele>204.2</ele>
        <time>2024-12-29T15:12:30Z</time>
      </trkpt>
      <trkpt lat="43.51606" lon="6.65554">
        <ele>204.7</ele>
        <time>2024-12-29T15:12:38.999Z</time>
      </trkpt>
      <trkpt lat="43.51604" lon="6.65547">
        <ele>204.4</ele>
        <time>2024-12-29T15:12:48Z</time>
      </trkpt>
      <trkpt lat="43.51603" lon="6.65541">
        <ele>204.7</ele>
        <time>2024-12-29T15:12:53.499Z</time>
      </trkpt>
      <trkpt lat="43.51602" lon="6.65534">
        <ele>205.4</ele>
        <time>2024-12-29T15:12:59Z</time>
      </trkpt>
      <trkpt lat="43.51601" lon="6.65526">
        <ele>206.1</ele>
        <time>2024-12-29T15:13:18Z</time>
      </trkpt>
      <trkpt lat="43.51599" lon="6.65516">
        <ele>205.7</ele>
        <time>2024-12-29T15:13:36Z</time>
      </trkpt>
      <trkpt lat="43.51599" lon="6.65505">
        <ele>206.1</ele>
        <time>2024-12-29T15:18:08Z</time>
      </trkpt>
      <trkpt lat="43.51599" lon="6.65499">
        <ele>206.3</ele>
        <time>2024-12-29T15:18:15.000Z</time>
      </trkpt>
      <trkpt lat="43.51599" lon="6.65492">
        <ele>206.2</ele>
        <time>2024-12-29T15:18:22Z</time>
      </trkpt>
      <trkpt lat="43.51602" lon="6.65484">
        <ele>207.3</ele>
        <time>2024-12-29T15:18:34Z</time>
      </trkpt>
      <trkpt lat="43.51604" lon="6.65475">
        <ele>208</ele>
        <time>2024-12-29T15:18:49Z</time>
      </trkpt>
      <trkpt lat="43.51606" lon="6.65466">
        <ele>208.6</ele>
        <time>2024-12-29T15:18:55.000Z</time>
      </trkpt>
      <trkpt lat="43.51608" lon="6.65458">
        <ele>209.1</ele>
        <time>2024-12-29T15:19:01Z</time>
      </trkpt>
      <trkpt lat="43.51609" lon="6.65451">
        <ele>209.3</ele>
        <time>2024-12-29T15:19:07.500Z</time>
      </trkpt>
      <trkpt lat="43.51611" lon="6.65445">
        <ele>210</ele>
        <time>2024-12-29T15:19:14Z</time>
      </trkpt>
      <trkpt lat="43.51613" lon="6.65438">
        <ele>210.4</ele>
        <time>2024-12-29T15:19:19.500Z</time>
      </trkpt>
      <trkpt lat="43.51616" lon="6.65432">
        <ele>211.2</ele>
        <time>2024-12-29T15:19:25Z</time>
      </trkpt>
      <trkpt lat="43.51618" lon="6.65426">
        <ele>211.7</ele>
        <time>2024-12-29T15:19:30.500Z</time>
      </trkpt>
      <trkpt lat="43.5162" lon="6.6542">
        <ele>212</ele>
        <time>2024-12-29T15:19:36Z</time>
      </trkpt>
      <trkpt lat="43.51622" lon="6.65412">
        <ele>212</ele>
        <time>2024-12-29T15:19:41.500Z</time>
      </trkpt>
      <trkpt lat="43.51625" lon="6.65403">
        <ele>212</ele>
        <time>2024-12-29T15:19:47Z</time>
      </trkpt>
      <trkpt lat="43.51627" lon="6.65395">
        <ele>211.8</ele>
        <time>2024-12-29T15:19:53.000Z</time>
      </trkpt>
      <trkpt lat="43.5163" lon="6.65386">
        <ele>212.1</ele>
        <time>2024-12-29T15:19:59Z</time>
      </trkpt>
      <trkpt lat="43.51632" lon="6.65379">
        <ele>212.7</ele>
        <time>2024-12-29T15:20:08.500Z</time>
      </trkpt>
      <trkpt lat="43.51634" lon="6.65371">
        <ele>213.1</ele>
        <time>2024-12-29T15:20:18Z</time>
      </trkpt>
      <trkpt lat="43.51637" lon="6.6536">
        <ele>213.6</ele>
        <time>2024-12-29T15:20:29Z</time>
      </trkpt>
      <trkpt lat="43.51638" lon="6.65355">
        <ele>213.8</ele>
        <time>2024-12-29T15:20:35.500Z</time>
      </trkpt>
      <trkpt lat="43.5164" lon="6.65349">
        <ele>214.3</ele>
        <time>2024-12-29T15:20:42Z</time>
      </trkpt>
      <trkpt lat="43.51643" lon="6.65343">
        <ele>214.9</ele>
        <time>2024-12-29T15:20:48.000Z</time>
      </trkpt>
      <trkpt lat="43.51645" lon="6.65338">
        <ele>215.2</ele>
        <time>2024-12-29T15:20:54Z</time>
      </trkpt>
    </trkseg>
  </trk>
</gpx>